GFSWCAN_925_thetae_000.txt.gz
Theta_e
312 314 315 315 314 314 314 314 314 315 315 315 315 315 316 315 315 315 319 320 318 309 312 317 317 316 315 310 308 310 311 306 306 309 309 307 312 307 310 310 309 308 306 310 307 313 315 311 312 312 310 308 309 309
310 311 313 314 314 314 315 315 315 315 315 315 315 315 316 316 315 315 316 318 318 316 312 318 318 318 319 315 312 309 311 310 306 306 306 300 310 309 304 314 311 314 310 309 308 309 308 309 311 309 310 310 308 310
309 310 311 313 314 314 314 314 315 315 315 315 315 315 316 316 315 314 315 317 317 304 309 312 313 315 316 317 317 310 302 312 311 307 304 306 311 308 315 313 312 311 310 309 310 311 310 309 310 310 308 308 310 309
308 309 309 310 312 313 313 313 314 314 314 314 315 315 315 316 315 314 314 315 315 307 304 309 313 314 314 314 315 317 315 314 314 309 305 306 310 310 311 313 313 312 312 312 312 311 310 310 308 309 310 309 306 305
303 305 307 308 309 310 312 312 312 314 314 314 314 315 315 315 315 314 313 313 314 314 307 306 310 312 314 315 315 315 315 313 305 308 304 309 305 308 305 305 310 311 312 313 314 311 311 311 310 307 306 304 302 301
302 302 303 304 305 307 309 310 311 312 313 313 313 313 313 313 313 312 308 312 312 314 306 309 308 309 312 312 312 312 313 311 312 309 305 306 308 309 309 311 310 310 311 312 313 311 310 309 306 305 304 304 303 303
300 301 301 302 303 304 305 306 307 309 310 311 311 312 312 312 312 311 309 309 311 312 301 307 306 301 305 307 307 308 310 309 311 311 307 308 308 312 306 315 312 310 309 310 310 309 309 306 305 302 301 301 300 300
300 301 302 302 303 303 303 304 304 306 308 309 311 310 311 309 308 307 308 310 310 312 303 307 306 304 305 302 301 300 300 302 308 310 304 306 306 304 310 312 309 309 309 308 308 305 304 303 301 300 299 299 299 298
300 301 301 301 302 302 302 304 305 305 305 306 307 308 305 305 305 305 307 308 308 307 305 301 307 309 304 302 299 299 300 304 301 303 304 306 304 310 309 309 308 307 306 305 302 301 301 300 299 300 299 298 299 297
300 301 301 300 300 301 301 303 304 306 306 305 305 303 298 302 303 304 304 299 298 296 298 302 300 306 306 300 301 301 299 302 305 303 302 305 308 307 307 307 307 303 303 302 301 302 301 298 296 296 296 296 294 293
299 300 300 299 300 300 301 302 303 302 302 301 299 297 301 302 302 298 299 301 300 301 298 298 300 304 301 304 303 299 302 301 303 297 304 297 302 302 302 302 301 301 301 300 298 296 295 295 295 295 293 294 293 292
298 299 300 299 299 300 300 301 301 302 301 301 301 301 301 301 299 302 301 299 301 301 298 300 300 302 299 301 300 299 300 299 302 295 301 302 297 299 300 298 298 296 296 296 295 295 295 295 294 294 293 292 292 292
298 299 300 300 299 299 300 300 301 300 301 301 299 298 300 298 303 301 302 302 300 300 299 300 301 299 298 297 299 297 300 299 290 300 301 295 298 298 298 298 298 297 296 295 295 295 295 295 295 293 292 293 292 291
297 299 299 300 299 299 300 299 301 300 300 295 296 298 299 297 297 296 297 298 298 298 298 298 299 297 294 291 295 298 294 291 296 300 295 293 296 296 296 296 295 295 292 290 293 295 294 293 292 293 291 290 290 291
298 299 299 300 299 298 299 298 299 298 298 293 293 294 293 294 294 296 296 297 296 296 297 296 295 293 290 290 287 289 291 298 297 293 290 291 294 294 294 294 293 290 289 289 294 293 293 292 290 292 294 294 292 292
299 299 298 299 298 297 297 297 297 297 293 290 291 289 292 294 295 295 296 297 295 293 289 291 291 289 289 287 289 288 290 292 290 286 288 290 293 292 292 291 292 292 292 293 294 294 293 292 291 291 293 292 291 290
298 296 297 297 296 296 296 296 295 291 289 288 287 291 289 291 288 295 291 296 296 295 289 287 289 292 288 285 288 291 289 288 287 288 289 290 292 292 291 292 292 292 292 292 292 292 291 292 292 289 290 291 292 291
295 296 296 295 295 295 294 295 292 289 291 287 287 285 284 283 294 292 292 292 295 295 287 289 289 288 286 286 286 286 285 284 287 287 288 289 291 292 292 291 292 292 292 292 291 291 291 291 289 289 291 292 291 291
295 295 293 294 294 293 292 292 292 288 287 284 285 283 284 283 284 289 288 292 294 293 289 284 284 283 285 283 281 282 280 282 288 291 291 291 292 292 292 293 292 292 291 291 291 291 291 291 291 292 292 292 290 290
294 294 294 293 293 293 288 286 292 287 288 288 283 285 285 285 282 282 289 288 292 292 294 294 287 286 285 287 285 285 287 286 286 288 291 291 292 292 292 292 291 291 291 291 291 291 291 290 291 292 292 291 289 289
294 293 293 293 294 293 288 285 285 286 287 288 286 287 285 280 284 291 292 285 291 292 291 289 287 288 290 289 290 290 289 290 290 288 291 291 292 292 291 291 292 291 289 289 287 290 290 290 291 291 291 291 290 290
293 292 292 292 290 289 285 290 287 286 285 284 285 285 283 283 283 286 283 292 292 288 288 288 290 289 288 288 290 291 291 292 292 291 291 291 288 288 290 291 291 289 291 291 291 291 291 291 291 291 291 290 290 290
292 291 290 290 287 286 284 290 286 286 286 284 283 284 281 280 282 286 283 287 287 288 291 290 291 291 290 291 291 291 292 292 290 290 290 290 291 291 291 290 290 289 289 291 291 291 291 291 291 291 290 289 289 288
291 290 289 289 284 281 283 291 288 285 280 284 282 282 283 281 281 281 284 281 287 289 287 290 290 290 289 289 288 290 291 292 292 292 292 291 289 289 289 289 289 289 290 290 290 290 290 290 290 289 289 289 288 287
287 290 290 289 289 288 290 283 282 281 283 279 279 279 282 279 282 278 282 287 284 285 286 288 287 288 289 289 286 290 293 292 291 286 292 291 290 289 289 289 288 288 289 290 289 290 290 289 289 289 289 288 288 288
287 286 290 288 283 285 284 280 279 282 276 279 280 281 275 278 281 284 285 282 279 280 280 282 283 282 286 288 288 288 292 293 293 290 290 290 289 288 288 288 288 288 289 290 289 289 289 289 288 288 288 288 288 288
285 285 287 285 286 284 280 276 279 278 278 282 279 280 280 287 284 284 284 284 284 291 293 294 292 289 288 292 293 293 293 292 292 291 289 289 288 288 288 287 287 288 288 288 288 288 288 288 287 287 288 288 288 288
284 280 288 285 285 283 281 277 278 282 281 283 280 282 285 284 285 284 285 292 292 293 293 293 293 293 292 292 292 292 292 290 289 289 288 288 288 289 288 287 286 286 286 287 287 288 287 288 288 288 288 288 288 287
289 283 286 286 283 283 284 284 283 284 284 283 282 280 281 283 283 283 290 291 291 291 291 291 290 291 291 291 290 290 289 288 288 284 288 287 287 287 286 285 286 286 286 286 286 287 287 287 287 287 287 288 288 287
285 285 286 278 283 284 284 283 281 279 280 288 287 285 285 286 290 291 291 291 290 289 290 291 291 291 290 289 288 288 288 288 288 287 286 284 283 284 285 285 285 285 285 285 286 286 285 285 286 286 286 287 286 286
279 276 279 277 279 282 284 280 283 281 276 282 286 287 290 289 290 286 285 284 285 287 288 288 288 287 286 286 286 285 285 284 284 283 283 283 283 283 283 284 284 285 284 285 285 285 285 285 285 284 284 284 283 283
275 280 282 283 288 284 282 283 283 285 284 280 289 281 283 281 287 280 278 280 280 279 278 279 279 280 281 282 283 283 283 281 281 281 281 281 281 281 282 283 283 284 284 284 284 284 283 283 283 283 283 283 282 281
277 274 274 275 277 276 278 280 278 278 275 280 286 286 286 284 288 278 276 276 276 275 275 276 277 279 280 281 281 280 279 279 278 278 278 278 278 279 279 280 281 281 282 282 281 281 280 280 279 279 278 278 276 275

GFSWCAN_925_thetae_003.txt.gz
Theta_e
309 311 314 314 314 313 313 314 314 314 314 314 315 315 315 315 314 318 319 318 316 306 310 316 315 313 311 308 307 309 309 305 306 308 304 306 299 305 309 308 307 308 308 306 307 310 311 308 312 313 311 308 308 307
310 311 314 314 314 314 314 314 314 314 314 314 314 314 315 315 315 315 318 318 317 314 311 317 318 317 317 313 309 307 310 307 305 308 306 300 306 307 303 314 308 312 309 307 310 309 307 306 311 309 309 308 307 307
309 310 311 313 314 314 314 314 314 314 314 314 314 314 315 315 315 314 316 316 315 302 308 311 312 315 316 318 317 310 300 309 306 305 303 305 311 305 315 313 312 312 310 307 310 311 310 310 310 310 308 308 309 305
307 309 309 311 314 314 314 314 314 315 315 314 314 314 315 315 315 314 313 314 313 305 303 307 311 313 314 315 316 317 314 312 309 303 303 306 309 309 310 313 312 313 312 312 313 313 311 310 309 309 309 305 302 301
304 306 308 309 311 313 313 314 314 314 314 314 314 314 314 315 315 314 313 312 313 311 305 305 309 311 312 313 313 314 315 311 303 306 305 308 304 307 304 305 309 311 312 312 315 312 311 312 307 305 304 302 302 301
302 303 305 306 307 310 311 312 313 313 313 313 313 314 314 314 314 314 309 313 312 312 305 309 307 308 310 310 311 311 311 309 309 309 305 306 308 309 309 311 310 310 311 311 312 311 311 307 302 301 301 301 302 302
300 301 302 303 304 305 307 309 311 312 312 312 312 311 312 312 313 311 310 309 310 311 302 306 306 300 304 305 304 305 307 307 309 308 307 307 308 311 305 313 311 310 309 308 308 309 308 304 302 301 300 299 297 297
300 301 302 302 303 303 304 305 306 308 308 310 310 311 311 310 311 309 310 309 310 311 304 307 306 303 304 301 301 299 300 302 306 309 304 304 304 303 310 310 309 307 306 306 306 305 304 302 301 298 298 298 297 296
300 301 301 301 302 302 303 303 303 305 306 307 308 308 305 306 306 306 309 309 310 308 304 301 307 310 302 301 298 298 299 304 300 302 303 305 305 311 309 308 306 306 306 305 301 301 300 299 299 297 295 294 295 294
300 301 300 300 300 301 302 303 304 304 306 306 306 304 299 302 304 304 305 301 299 297 298 302 301 306 306 299 300 302 298 303 306 303 301 304 307 305 304 301 302 302 302 300 299 300 296 294 293 292 292 292 293 292
299 300 299 299 300 302 302 304 304 304 304 302 299 297 301 302 302 298 300 302 300 302 298 298 299 304 301 304 303 299 302 301 303 296 303 299 300 301 298 298 297 297 297 295 295 295 294 294 293 293 292 293 293 292
299 300 299 299 300 301 301 302 302 302 302 302 301 301 301 301 299 303 303 299 301 303 298 300 300 301 298 301 301 299 300 299 300 295 301 299 296 297 296 296 295 295 296 296 296 295 296 296 295 293 292 292 293 292
298 300 299 298 299 300 301 301 302 301 301 300 300 298 301 298 304 304 304 302 300 299 298 299 301 298 298 298 298 296 299 298 291 297 298 295 296 295 295 296 296 296 294 293 293 294 295 295 295 294 292 293 290 289
298 300 299 298 299 300 300 300 301 300 300 294 295 301 301 300 300 297 292 292 297 297 298 298 298 297 294 292 293 297 292 289 298 299 294 291 294 293 292 293 293 293 290 289 291 292 292 292 292 293 292 291 290 291
298 300 299 299 298 300 298 300 300 298 298 294 290 293 295 292 295 296 296 297 296 296 296 297 296 293 292 289 291 288 291 295 297 292 288 289 293 292 292 292 292 289 289 289 291 291 291 291 290 290 291 291 290 291
299 299 299 299 298 298 298 299 299 297 293 290 290 288 293 296 296 295 297 297 295 295 293 293 286 286 288 285 287 291 289 290 289 284 286 288 293 292 291 290 291 291 290 290 291 291 291 290 289 289 290 290 290 290
298 297 298 298 297 296 297 297 296 291 287 286 286 291 284 291 287 294 293 296 295 295 294 286 288 290 286 283 286 289 287 286 284 286 286 289 291 291 290 290 290 291 291 291 291 291 290 290 290 288 286 290 291 291
297 297 297 296 296 296 295 294 290 287 290 286 287 283 290 283 294 294 289 287 295 295 290 290 287 286 284 285 285 285 284 283 285 286 287 288 290 290 290 290 291 291 291 291 291 290 290 289 288 288 289 290 290 290
296 296 296 296 294 293 292 292 291 288 285 282 283 282 282 283 285 287 285 292 294 293 292 290 283 283 285 283 281 279 276 279 286 289 287 290 291 291 291 291 291 291 291 290 290 290 290 289 289 289 289 289 289 289
296 294 294 294 293 292 288 285 291 287 288 287 282 284 284 284 281 282 290 285 290 293 295 294 287 285 284 285 284 284 285 285 285 287 289 289 291 291 290 291 290 290 289 289 290 289 289 289 289 290 290 289 289 289
294 294 293 293 293 292 288 284 284 285 286 287 285 285 284 282 287 285 290 290 291 293 293 289 284 286 289 289 289 290 289 288 287 286 288 290 291 291 290 290 289 290 288 287 286 288 290 290 290 290 290 290 290 290
293 293 292 291 289 288 285 288 285 284 283 282 283 284 282 281 285 288 283 291 291 290 288 286 289 289 289 288 289 289 289 290 289 289 289 289 286 288 288 289 289 287 288 288 288 289 290 290 290 289 290 290 290 289
292 292 290 289 285 282 284 288 283 285 285 283 282 284 279 278 281 284 285 288 286 288 290 289 290 290 289 290 289 289 290 290 289 289 289 289 289 289 289 291 289 288 288 288 289 289 290 289 290 288 288 289 289 288
291 290 286 286 280 281 281 290 287 282 279 283 281 280 281 278 278 279 283 280 286 287 286 289 289 288 288 288 287 289 290 290 290 290 291 288 286 289 291 290 289 289 289 288 288 288 289 289 289 289 289 288 288 287
286 289 283 288 288 288 287 282 281 284 285 278 279 278 280 277 281 277 281 283 279 280 284 286 285 286 286 285 285 288 290 289 289 285 292 291 291 290 289 288 287 288 288 288 287 289 289 288 288 288 288 288 288 287
283 285 289 289 288 281 283 282 286 282 274 277 277 277 271 275 280 283 283 281 277 279 278 279 279 280 283 286 285 287 292 292 292 288 291 291 290 289 286 287 287 286 287 288 288 288 288 287 288 288 287 287 287 287
283 286 287 284 284 283 279 274 276 275 276 280 277 276 277 282 281 283 282 283 283 290 291 292 291 288 288 291 292 292 291 291 291 292 291 289 289 288 288 287 286 287 286 286 285 285 287 287 287 288 287 287 287 287
283 281 287 284 281 279 278 274 276 280 280 281 277 281 283 283 284 283 284 290 290 291 292 292 291 291 291 291 290 290 292 291 290 289 288 288 288 287 287 286 286 285 285 285 286 286 285 286 286 287 287 288 288 288
289 283 281 281 281 282 284 283 281 282 283 282 281 278 280 281 282 284 290 290 289 289 290 290 290 290 290 289 289 290 290 289 287 282 283 280 283 286 285 285 285 284 284 284 284 285 285 285 285 285 286 286 287 287
284 284 288 287 288 288 285 282 279 277 278 285 283 284 284 283 290 288 288 287 286 287 287 288 289 289 288 289 289 289 287 287 287 286 285 280 282 283 283 283 283 283 283 283 284 284 285 285 285 285 284 284 285 285
277 275 277 274 277 278 280 277 278 277 274 279 279 284 288 284 282 279 279 280 282 282 282 280 282 281 281 281 283 283 282 282 282 282 281 281 281 281 282 282 282 282 282 283 284 284 283 283 283 284 284 284 283 283
279 278 279 280 280 279 273 278 276 277 281 274 287 276 273 276 279 273 274 276 275 274 275 275 276 277 279 280 281 281 281 279 279 278 279 279 279 279 279 280 280 281 281 281 281 282 282 281 281 280 280 281 280 279
271 268 267 271 275 275 273 276 274 274 270 272 283 276 275 280 280 274 274 273 273 273 273 274 276 277 277 279 278 277 277 277 276 276 276 276 276 277 277 277 277 278 278 279 279 279 278 278 277 275 274 273 272 272

GFSWCAN_925_thetae_006.txt.gz
Theta_e
305 308 311 313 313 312 312 313 314 314 313 314 315 315 315 314 315 319 318 317 315 304 308 314 312 311 309 307 307 308 308 303 306 309 305 306 297 304 307 308 306 306 304 302 306 310 310 306 310 313 310 310 309 308
308 308 310 313 313 312 312 312 313 314 314 313 314 314 315 315 314 316 318 317 316 311 309 316 317 315 313 311 307 303 309 306 304 305 305 300 303 301 305 314 306 310 308 310 312 308 306 307 311 308 308 308 307 308
308 308 310 311 313 314 313 312 313 313 314 314 314 314 314 315 315 314 316 315 314 299 307 311 312 314 316 317 315 309 299 306 305 303 301 302 304 302 313 311 306 311 310 311 311 310 311 312 310 308 306 307 303 302
305 307 309 310 313 314 314 314 313 313 313 314 314 314 314 315 315 314 314 314 313 303 303 306 310 312 313 315 316 315 312 309 305 300 301 303 309 309 310 312 312 311 311 312 311 313 311 309 307 305 304 303 302 301
303 304 306 308 310 313 314 314 314 314 314 314 314 314 314 315 315 314 314 313 313 311 305 304 309 311 311 312 313 314 313 308 304 306 304 308 303 307 303 305 309 309 311 310 313 310 312 312 307 305 304 303 302 301
302 302 304 306 308 310 313 312 314 314 314 314 314 314 313 314 314 314 308 313 312 312 304 306 306 306 308 309 310 310 310 307 306 308 304 306 308 308 308 310 310 309 309 310 312 311 310 307 304 302 301 299 299 298
300 301 302 303 305 306 310 313 313 314 313 313 313 312 313 314 314 313 309 309 311 311 300 305 304 298 303 304 302 304 305 304 306 307 305 306 306 310 305 313 310 309 308 309 307 308 306 302 302 300 300 297 296 295
300 301 300 301 302 304 305 308 312 312 313 312 312 312 313 312 312 310 310 309 311 310 303 306 306 301 303 300 301 299 299 302 306 308 303 304 304 302 310 309 307 306 306 305 303 302 301 301 300 297 294 294 293 292
300 301 302 302 302 302 303 304 306 307 310 310 310 310 307 308 306 307 309 310 311 308 306 301 307 310 301 301 298 296 298 304 301 302 303 304 305 310 308 302 301 300 303 304 300 299 298 294 294 293 293 292 291 291
300 301 301 300 301 302 303 303 304 305 306 306 306 304 299 302 304 306 306 302 301 298 299 302 301 306 306 299 301 302 298 303 307 303 300 303 306 304 298 299 299 298 298 298 298 296 295 295 293 293 292 291 291 291
300 300 299 300 301 302 303 303 303 305 305 303 299 298 301 302 302 299 300 303 301 303 299 299 300 304 300 304 304 299 303 301 299 295 303 302 300 299 295 294 293 294 294 294 295 295 294 293 293 293 291 292 292 292
300 300 299 300 301 301 303 303 303 303 302 303 302 302 302 301 299 304 303 299 302 302 298 300 300 301 298 300 301 299 301 299 301 294 299 296 295 296 295 296 295 294 293 293 293 293 293 293 294 293 292 292 292 292
299 299 299 300 301 301 301 302 302 302 302 301 301 298 301 298 304 304 302 302 302 299 298 298 300 298 297 297 298 298 298 296 291 295 295 294 295 293 292 293 293 294 293 292 291 292 292 292 292 292 290 291 291 290
298 299 298 299 300 300 301 301 301 300 299 295 297 302 300 300 301 300 299 293 292 297 298 298 297 297 293 296 295 294 292 291 298 295 292 290 293 292 291 291 291 292 290 288 290 291 291 290 290 290 290 290 289 288
298 299 298 299 300 300 301 300 299 298 297 295 292 297 298 293 293 297 296 297 295 295 296 297 295 293 293 292 292 289 295 295 294 291 287 288 292 292 292 292 290 288 288 288 291 290 289 290 289 289 290 290 289 289
298 299 299 298 299 298 300 300 299 297 292 291 289 288 292 296 295 296 297 298 295 295 293 291 288 292 290 287 289 292 291 291 288 282 285 287 292 292 291 290 290 290 290 289 290 290 290 290 289 288 289 289 290 290
299 298 299 298 298 298 298 298 297 290 288 287 286 290 283 286 289 290 295 295 295 295 295 291 289 289 285 284 287 287 286 285 283 284 285 288 291 290 290 290 289 290 289 290 290 290 290 290 289 287 285 288 289 289
297 298 298 297 297 297 296 294 289 288 289 286 287 284 291 286 287 288 289 288 293 293 291 292 287 285 283 285 285 285 284 282 283 283 286 288 290 290 290 289 290 290 290 290 290 290 289 289 288 288 288 288 288 288
297 298 297 296 296 294 292 292 290 288 285 283 283 284 283 284 288 285 285 288 293 292 290 287 282 285 287 284 282 277 275 279 285 287 286 289 289 289 289 290 290 290 290 290 289 289 289 289 289 289 289 288 288 289
296 296 295 295 295 292 288 286 289 287 287 287 282 285 283 284 285 286 289 286 287 292 294 291 288 285 284 284 284 283 284 284 284 286 288 286 289 290 290 290 289 290 289 289 288 287 286 287 288 290 289 289 289 290
295 294 293 293 292 291 287 283 284 284 285 286 283 283 282 286 288 288 290 288 291 292 288 287 283 285 288 288 289 290 288 288 287 285 286 288 289 290 290 290 290 289 288 288 286 287 288 288 289 289 289 288 288 288
292 293 292 292 289 287 285 286 285 283 283 282 281 281 278 278 285 287 288 290 290 286 288 288 290 287 288 288 289 289 289 289 288 288 288 288 286 286 286 288 288 287 288 287 288 287 288 288 288 289 289 288 287 288
293 292 289 288 284 281 285 286 283 283 283 282 280 281 278 276 278 285 288 289 286 287 289 288 290 290 289 290 290 290 290 288 288 287 287 287 288 288 288 288 288 286 285 287 288 288 288 287 287 289 289 288 288 288
292 289 286 285 281 283 285 286 284 282 278 279 279 282 280 277 278 285 285 279 285 285 285 289 289 286 288 288 285 288 289 289 289 288 289 287 285 288 290 290 290 289 288 288 287 287 287 287 289 288 288 288 287 287
289 289 283 287 286 284 285 279 279 287 289 278 280 279 278 275 280 278 279 281 277 277 281 284 284 285 284 281 284 288 290 289 288 284 291 290 290 289 288 290 289 288 287 287 287 287 287 287 287 286 287 288 287 287
283 287 287 284 287 280 279 282 285 284 272 276 280 275 269 273 279 283 282 280 275 276 275 278 278 278 281 285 284 287 291 291 290 286 289 290 289 287 286 281 283 286 287 287 286 286 286 285 285 285 285 286 287 287
283 288 288 283 283 280 276 272 274 274 274 279 275 274 275 281 279 282 281 281 282 289 290 291 291 287 287 291 291 291 290 290 289 289 289 289 289 289 289 287 286 286 285 285 285 285 284 285 285 285 285 285 286 287
280 280 286 284 284 279 277 273 275 278 278 279 276 280 282 281 283 282 283 290 290 289 289 289 291 291 290 290 290 289 290 290 290 290 288 288 288 288 287 286 285 285 285 284 284 283 284 284 284 284 284 284 284 285
288 282 280 283 277 275 279 281 280 280 282 282 282 279 280 280 282 283 286 286 286 286 286 286 287 288 288 288 289 289 287 288 287 286 285 285 280 285 284 284 283 283 283 283 283 283 283 284 284 284 284 283 283 283
285 281 280 278 281 284 283 284 280 275 277 282 280 281 281 282 281 279 280 280 279 279 281 282 282 283 283 284 285 286 283 284 284 284 284 279 281 281 281 281 282 282 282 282 282 281 283 283 283 283 283 283 283 282
273 277 281 278 280 277 278 274 276 275 270 274 273 281 286 278 275 274 274 274 275 275 275 275 276 277 277 277 278 280 281 279 279 280 280 279 279 279 279 279 279 280 280 280 279 279 281 281 280 280 279 279 278 277
280 278 278 278 278 274 268 276 270 272 272 272 284 270 271 272 270 273 272 272 272 272 272 272 273 273 275 276 277 277 277 276 276 276 276 276 276 276 276 276 277 277 278 278 278 278 278 277 277 275 274 273 272 271
268 267 271 269 274 275 269 272 271 273 268 267 269 268 267 271 274 272 272 271 271 270 270 271 273 274 275 275 275 275 275 275 275 275 275 274 274 274 274 274 275 275 276 276 276 276 275 274 273 272 270 270 269 268

GFSWCAN_925_thetae_009.txt.gz
Theta_e
305 307 311 313 313 312 311 312 312 312 313 314 314 314 314 314 317 318 316 315 313 305 309 312 310 310 309 308 312 309 311 307 307 310 311 311 309 310 310 309 308 310 312 310 309 312 313 306 309 314 313 311 310 309
308 306 309 311 312 312 311 311 312 313 313 313 314 314 315 315 314 317 317 315 314 310 310 315 316 312 312 310 309 304 310 308 309 308 305 305 308 302 307 316 306 313 311 313 312 313 308 307 311 311 308 309 307 306
306 307 308 310 311 312 312 312 312 313 314 314 313 314 314 315 314 315 316 315 314 302 307 311 312 313 316 315 312 312 303 307 306 305 305 305 310 305 311 310 310 310 308 313 311 313 311 311 310 308 306 305 304 304
303 304 307 309 310 312 312 312 312 312 313 314 314 313 314 314 315 314 315 313 313 302 304 308 309 311 313 314 316 314 310 307 303 303 302 304 308 308 309 313 313 313 311 312 311 312 311 310 310 308 305 304 303 302
302 303 304 307 308 310 312 313 313 312 313 313 313 313 314 314 315 314 314 313 312 312 307 305 308 309 309 311 314 314 310 307 306 306 305 309 306 308 305 306 310 311 313 314 314 312 312 311 309 305 304 303 301 301
301 302 301 304 306 309 311 313 313 313 313 313 313 313 313 314 314 314 308 313 313 312 303 308 303 303 306 308 310 309 310 307 308 309 305 307 308 310 309 311 310 309 310 311 312 310 309 306 304 302 301 300 297 296
300 300 300 300 304 305 308 311 313 314 313 313 313 313 313 313 313 312 309 309 312 312 301 305 304 299 302 303 301 303 305 306 309 308 305 306 307 310 305 312 310 308 307 308 306 307 304 302 302 299 296 295 294 294
300 301 301 301 302 303 305 307 312 313 313 314 313 313 313 313 313 311 310 311 311 309 304 305 306 301 302 301 303 299 302 304 307 309 303 305 305 304 310 308 303 302 303 304 302 302 302 297 296 296 295 294 294 294
300 301 301 301 301 301 303 304 307 311 313 313 312 311 308 309 308 309 310 311 310 307 306 302 308 310 301 301 299 299 300 305 302 303 303 305 306 310 304 301 302 300 302 301 298 295 296 296 296 296 295 295 294 293
300 300 300 300 301 301 301 302 304 306 311 310 307 306 299 303 306 307 308 303 301 298 300 303 301 307 306 300 302 304 299 304 307 304 300 304 306 299 297 298 299 299 299 298 297 297 296 296 295 295 294 294 293 292
299 300 299 300 301 302 302 301 303 304 305 304 299 298 301 302 303 300 300 303 301 303 300 300 300 305 300 305 305 299 303 302 305 301 304 304 304 299 296 295 294 294 294 294 295 294 293 293 293 293 293 293 292 291
299 300 299 300 301 303 303 301 301 303 303 303 301 302 302 301 299 301 303 300 303 304 299 301 300 301 298 300 301 299 302 300 300 296 302 303 298 296 296 295 295 293 292 292 291 291 291 291 291 291 291 290 290 290
299 299 299 301 301 301 302 303 303 303 302 302 300 298 301 298 304 305 306 304 304 300 298 299 300 298 297 298 299 299 299 300 293 298 300 297 296 293 292 293 293 292 292 291 291 291 291 291 291 290 289 290 289 288
299 299 299 300 300 300 302 301 301 300 299 296 301 303 301 302 301 297 297 297 295 298 298 298 297 298 294 297 296 298 294 293 299 297 297 294 293 292 292 292 292 292 289 288 289 290 290 289 289 289 289 289 288 287
298 299 299 300 300 300 299 299 299 298 296 294 295 300 299 293 295 297 296 297 295 296 297 297 295 296 293 294 293 293 296 297 296 296 293 292 292 292 293 292 291 289 288 288 290 290 289 289 288 288 289 289 288 287
298 298 299 300 300 300 300 299 299 296 292 292 290 292 292 293 296 297 297 298 295 294 293 293 292 296 295 293 294 294 294 293 294 290 290 290 292 292 292 291 290 290 289 289 289 289 289 289 288 288 289 289 289 288
298 299 298 299 298 299 299 298 297 290 290 288 288 288 288 288 293 295 295 296 295 296 296 292 294 295 289 291 292 290 290 290 289 289 287 289 291 291 290 289 289 289 289 289 289 289 289 289 289 288 287 289 289 288
297 299 298 298 298 298 297 294 290 289 290 288 289 289 291 290 287 286 291 292 295 294 292 293 289 288 289 290 291 288 288 286 286 287 289 289 290 290 290 289 289 289 289 289 289 289 289 288 287 288 288 289 288 287
297 298 297 297 297 295 291 291 289 288 285 284 284 287 287 289 288 286 288 289 290 290 289 288 287 290 290 288 288 285 283 285 289 289 289 289 290 289 289 289 289 289 289 289 289 288 288 286 285 286 287 287 288 288
296 296 295 295 296 292 288 285 288 287 287 287 284 288 285 287 287 288 289 291 293 295 295 294 291 289 288 287 286 287 287 285 286 288 289 288 288 288 288 289 289 289 289 289 289 289 288 287 287 287 287 287 288 288
292 293 293 294 292 290 286 284 285 284 286 286 283 284 284 287 289 289 291 291 292 293 292 290 288 288 288 288 288 289 288 287 288 288 289 289 288 288 288 289 288 288 287 287 286 286 286 287 287 287 287 287 288 287
292 294 292 291 288 287 284 285 285 283 283 282 282 282 279 280 287 288 289 291 291 289 289 288 289 289 288 288 289 289 289 289 288 288 288 287 287 287 286 287 287 287 287 287 287 286 286 287 287 287 287 287 288 288
293 292 289 287 284 281 285 285 282 283 283 282 279 282 279 277 279 285 288 289 288 287 288 288 289 290 289 290 289 289 289 288 287 287 287 286 287 287 286 287 287 285 284 287 289 287 287 287 286 286 287 288 288 288
292 289 287 282 279 284 284 281 282 283 279 280 280 283 281 279 282 286 287 283 285 284 286 288 288 287 287 287 286 288 289 288 288 288 289 287 286 287 289 289 289 288 289 289 287 287 286 286 287 286 286 285 286 287
287 287 282 285 283 282 281 284 284 288 287 285 283 281 278 276 280 281 285 283 280 280 282 282 282 285 286 284 283 287 290 289 288 286 290 289 288 286 287 288 287 287 288 287 287 286 286 286 286 286 285 285 285 286
284 287 281 279 280 280 278 285 285 286 280 280 283 274 270 275 280 284 283 282 279 280 279 280 282 282 283 284 285 286 290 290 289 286 289 289 288 286 286 286 285 286 287 286 286 285 285 284 285 285 285 285 285 285
285 287 285 282 282 279 275 273 275 274 280 281 276 274 275 282 280 283 282 281 283 287 288 289 288 287 287 288 289 289 289 288 288 288 288 288 287 287 287 285 286 286 285 285 285 284 283 284 284 284 284 283 283 283
279 279 283 281 282 277 276 272 274 279 279 279 276 280 282 282 284 283 282 282 283 285 286 286 286 285 285 286 287 287 288 288 288 288 288 288 287 285 285 284 284 284 284 283 283 283 283 283 282 282 283 283 282 282
285 278 279 285 282 282 278 282 282 281 282 280 281 278 281 281 277 276 277 277 279 280 280 279 281 281 283 283 284 285 285 284 285 286 288 287 284 282 282 282 282 282 282 282 282 282 282 281 281 282 282 281 281 281
284 279 278 276 279 281 282 281 279 274 277 280 279 280 281 275 273 273 273 273 273 273 273 274 275 275 276 276 277 279 279 279 278 279 282 282 278 278 279 279 279 280 280 280 280 280 279 280 280 280 280 279 277 277
274 282 279 279 279 277 275 270 273 272 268 273 270 279 282 274 273 272 271 271 272 272 271 271 271 272 273 273 274 276 277 275 275 275 276 276 276 276 276 277 277 277 277 277 277 277 278 277 276 275 274 273 272 271
281 281 279 280 278 271 268 274 270 270 268 270 274 265 269 271 269 271 270 270 270 269 269 269 270 271 273 274 274 273 273 273 273 273 273 274 274 274 274 274 275 275 276 276 276 276 275 274 273 271 270 269 269 268
274 276 276 273 275 275 269 270 270 274 269 267 266 265 266 268 268 269 269 269 268 268 267 269 271 272 272 272 271 271 271 271 272 272 272 272 272 272 272 272 273 273 274 274 274 273 272 271 270 268 268 267 266 266

GFSWCAN_925_thetae_012.txt.gz
Theta_e
306 309 313 313 312 311 311 311 311 312 312 313 314 314 314 314 318 317 315 315 317 318 316 315 314 317 316 319 324 318 320 318 318 316 318 319 319 318 316 314 315 318 320 317 316 316 318 311 312 317 315 313 310 309
307 307 309 312 312 312 311 311 311 312 312 313 314 314 315 314 315 317 319 314 313 319 318 315 316 313 316 316 318 317 319 318 321 320 314 312 313 310 320 320 313 317 315 316 315 318 314 314 315 312 312 312 308 308
305 307 307 310 312 312 311 311 311 312 313 313 313 314 314 315 314 315 316 314 314 316 317 319 319 314 315 314 314 321 316 316 316 314 317 314 314 316 316 317 319 315 313 316 315 314 314 314 313 313 310 307 307 305
303 304 307 308 310 311 312 312 311 312 313 313 313 313 314 315 314 315 315 313 313 310 311 317 310 313 312 315 316 315 314 311 311 313 309 310 315 315 315 318 317 316 315 315 315 315 314 313 312 311 307 305 304 302
302 302 303 306 308 309 311 312 311 311 312 313 313 313 313 314 314 314 314 313 313 319 319 317 310 308 309 312 316 315 315 316 314 312 306 313 316 315 312 312 316 315 315 315 316 314 313 313 308 307 306 303 301 300
300 300 300 302 306 308 310 311 312 312 312 313 313 313 313 314 314 314 318 314 313 313 316 320 310 309 308 311 314 315 315 316 315 315 314 315 314 317 310 314 313 313 313 313 313 310 310 308 306 304 302 301 298 297
299 300 299 302 303 306 308 310 312 313 313 312 313 313 313 314 314 315 316 311 312 313 311 315 313 306 304 308 307 310 310 314 314 316 312 316 316 313 312 313 313 312 306 307 308 308 307 306 305 300 298 298 298 297
299 300 301 301 302 302 305 307 311 312 313 313 313 313 313 313 312 313 311 312 311 310 308 311 309 310 305 308 307 302 307 310 311 313 306 312 310 311 313 312 306 305 304 305 305 306 305 301 299 299 299 297 297 296
299 300 301 301 301 301 302 304 307 311 312 313 313 313 311 311 309 310 310 311 310 311 311 308 310 311 305 304 303 304 306 311 307 306 307 309 309 313 310 305 304 304 306 303 302 301 300 298 298 297 296 295 295 295
299 300 300 300 301 302 301 303 305 308 308 312 310 308 300 304 308 308 309 310 306 305 304 309 309 313 309 304 306 308 304 310 311 307 304 304 308 299 300 302 302 303 302 301 300 298 296 295 294 294 295 294 294 293
299 300 299 300 300 302 301 302 304 304 304 306 299 299 301 303 303 301 302 305 302 304 302 301 302 306 304 310 309 303 305 305 309 307 308 308 309 303 301 299 298 298 296 295 294 294 294 294 294 295 294 293 293 293
299 299 299 300 301 302 300 301 302 302 302 302 301 301 301 301 299 303 303 300 302 308 301 303 302 302 300 303 305 301 306 304 309 302 304 306 305 301 299 298 297 295 294 293 293 293 293 294 294 293 293 292 292 291
298 299 299 300 301 302 301 300 301 300 301 301 298 296 299 297 306 308 308 306 306 303 301 301 302 301 300 300 301 304 307 306 300 301 305 305 302 300 298 297 296 295 294 292 293 293 294 294 292 291 291 290 290 290
298 299 299 300 300 301 302 302 301 301 300 299 299 303 304 304 304 304 305 306 301 302 301 300 299 302 298 300 301 305 300 300 303 303 305 302 299 296 296 296 295 294 292 291 292 293 292 291 291 290 290 290 289 289
298 299 299 299 300 301 300 299 299 297 296 298 300 303 302 297 299 299 299 300 298 299 300 300 299 301 299 299 299 299 300 302 302 303 301 299 296 296 296 295 295 295 292 291 292 292 291 290 290 290 290 290 290 289
296 299 298 299 299 299 299 297 298 296 293 296 295 298 296 299 299 298 299 299 297 296 296 299 300 302 301 300 300 301 301 301 301 300 299 296 296 295 295 295 294 292 291 291 292 292 291 290 290 291 290 289 289 289
296 298 298 299 300 300 300 298 297 292 294 296 296 293 295 298 302 300 300 298 296 298 301 299 302 301 295 299 299 297 299 299 298 297 296 295 295 295 293 293 291 291 291 291 292 292 291 290 289 289 290 290 289 289
297 298 299 299 299 298 297 294 294 295 295 293 296 295 294 294 295 296 296 296 297 297 297 299 294 296 298 299 299 298 296 295 295 294 294 294 294 293 293 292 292 291 292 292 291 291 290 289 290 292 290 289 288 288
296 298 298 298 298 296 295 293 292 295 292 292 291 291 292 293 291 290 292 292 294 293 294 296 297 298 297 294 297 297 295 295 296 295 294 293 293 292 291 291 290 290 291 291 292 292 292 291 290 290 290 289 288 288
295 297 297 297 296 294 294 293 290 293 294 293 291 293 292 292 290 291 293 295 296 297 298 298 298 297 297 296 294 295 295 294 293 294 294 293 292 291 291 291 292 292 292 291 292 291 290 291 292 291 290 289 288 288
294 293 295 296 292 290 291 292 292 292 292 293 290 293 291 290 291 292 293 292 296 297 297 297 297 297 293 292 291 292 292 292 293 293 293 293 292 292 291 291 291 291 291 292 292 292 291 291 291 290 288 288 287 287
291 292 292 291 289 289 290 288 292 289 292 292 292 291 293 293 291 291 291 292 293 295 295 296 295 295 294 293 292 291 292 291 291 291 290 290 292 292 292 291 291 292 292 292 292 292 291 291 289 288 287 287 287 287
292 292 289 288 290 291 290 287 291 290 293 292 291 293 292 292 289 287 290 291 292 292 292 293 292 292 292 292 291 291 290 290 291 291 291 291 291 291 291 291 291 290 291 292 291 290 290 289 288 287 287 287 287 286
292 289 289 289 290 290 289 290 290 290 290 291 291 291 290 290 286 288 290 290 292 290 290 291 291 292 291 290 291 291 291 290 291 291 291 291 291 292 292 291 291 290 290 289 289 289 289 287 287 287 287 287 286 286
292 289 289 289 288 288 289 290 289 291 291 289 289 290 289 285 290 290 290 292 292 292 293 290 289 290 292 293 292 291 289 290 291 292 292 291 290 290 291 291 291 290 288 287 288 288 288 287 286 286 286 285 286 286
289 288 289 288 288 289 289 289 289 289 289 288 288 286 284 289 291 292 291 293 293 292 294 294 293 292 291 290 291 291 291 289 289 290 290 290 289 289 290 290 290 290 288 287 286 287 286 286 285 285 285 285 285 284
289 289 289 285 287 285 286 284 284 287 287 288 290 287 289 291 292 292 290 286 289 285 285 285 286 287 288 287 287 287 287 287 287 288 288 287 286 287 286 287 288 287 285 285 285 285 285 284 285 285 285 284 283 283
288 288 288 288 287 286 288 288 288 288 290 288 288 289 291 291 292 288 284 280 279 281 282 283 283 282 282 283 283 284 283 283 284 285 285 285 285 284 283 283 283 283 283 283 283 283 283 283 283 283 283 283 283 282
290 287 288 286 286 286 288 290 290 290 289 288 291 292 290 286 278 278 277 276 277 278 278 277 278 277 279 279 280 280 279 279 280 283 285 286 288 281 279 279 279 280 280 280 281 281 281 280 280 280 279 279 279 279
288 287 288 286 287 290 292 289 291 287 286 287 287 287 285 277 274 273 274 274 274 274 274 274 274 274 275 275 276 278 276 275 275 276 278 279 277 275 275 275 276 276 277 277 279 280 279 278 278 277 277 276 275 275
284 287 288 288 289 290 287 280 280 280 283 287 285 289 289 276 273 271 271 272 272 272 272 272 273 274 274 274 274 275 275 273 272 272 272 272 272 272 273 274 274 275 274 275 276 276 275 276 275 274 273 272 271 271
285 287 288 288 289 284 281 283 284 285 286 285 287 280 279 279 276 272 269 270 271 270 269 270 271 272 272 271 271 271 270 269 269 270 270 271 271 271 272 272 273 273 273 273 273 273 272 272 272 271 271 269 268 267
281 282 282 283 285 287 282 282 283 283 283 283 281 279 276 277 273 270 269 268 269 268 268 268 268 269 270 270 269 269 269 268 269 269 269 270 270 270 270 271 271 271 271 271 270 270 269 269 268 267 266 266 265 264

GFSWCAN_925_thetae_015.txt.gz
Theta_e
312 313 313 313 312 311 310 311 311 311 312 313 313 314 314 315 317 321 319 314 323 323 320 319 319 321 322 322 327 323 322 322 324 320 322 324 322 320 319 316 318 318 321 318 318 320 319 314 314 319 317 317 315 312
307 311 313 313 312 312 311 311 311 312 312 313 314 314 314 314 317 318 320 314 319 322 322 320 318 318 319 319 321 322 321 322 322 324 322 323 324 316 321 321 316 318 318 319 318 319 315 314 315 315 315 315 312 308
307 307 310 312 312 312 312 311 311 312 312 313 313 314 315 314 314 318 320 318 320 324 321 321 320 317 318 318 318 323 322 320 321 321 322 317 318 319 318 321 320 316 316 318 318 315 314 314 314 314 313 312 308 306
305 306 308 309 311 312 312 311 311 312 313 313 313 313 314 315 315 317 319 316 319 317 318 322 313 317 314 318 319 319 319 318 319 319 312 311 321 319 320 319 319 318 317 318 319 316 314 315 313 312 311 308 306 306
302 302 304 306 308 310 312 311 311 311 313 313 313 313 314 314 315 317 317 316 316 322 322 322 315 313 313 316 319 318 318 319 320 316 312 317 321 321 318 317 319 315 316 320 320 315 315 315 312 310 309 308 304 303
300 300 303 304 306 307 310 311 312 311 312 313 313 313 313 314 315 319 320 318 314 319 320 318 316 313 313 315 318 318 318 319 320 320 314 319 318 319 316 317 314 314 314 314 316 314 312 309 309 308 306 304 302 301
300 300 301 302 303 305 307 309 311 311 311 312 313 313 313 314 317 317 318 315 314 317 319 318 320 311 310 314 314 316 315 317 317 317 319 318 318 316 316 317 313 313 312 310 310 310 308 308 307 304 302 301 300 299
300 301 301 301 301 302 304 306 309 311 312 312 312 313 313 313 313 315 313 312 313 316 316 316 315 313 309 313 314 309 313 314 315 317 312 315 316 316 315 314 314 311 309 308 307 307 309 306 304 302 301 299 297 297
299 300 300 300 301 301 301 303 306 310 312 312 312 313 313 312 312 315 312 312 312 316 317 312 313 314 310 308 307 308 309 315 311 310 311 314 314 316 314 313 311 310 309 308 306 305 303 302 300 298 297 297 296 296
299 300 299 299 300 302 301 302 304 307 310 312 310 309 303 307 310 310 311 314 312 310 311 310 313 314 311 307 307 309 307 314 312 310 305 305 308 309 307 308 307 307 306 304 304 302 299 297 296 296 296 296 295 294
299 300 299 300 301 302 301 302 305 306 304 306 300 299 301 304 306 302 305 311 309 307 306 310 311 311 308 311 309 307 309 308 312 310 311 311 311 310 306 305 305 303 302 300 298 296 296 296 296 296 296 294 294 293
299 299 299 300 301 301 301 302 303 303 302 302 301 301 302 300 300 308 307 301 304 309 303 303 304 308 304 306 305 301 307 306 313 307 308 309 309 307 305 303 301 299 297 296 295 295 295 295 295 295 294 293 293 292
298 298 299 300 300 301 301 301 301 301 301 300 296 296 298 297 305 308 308 308 307 302 300 301 301 300 300 301 302 305 308 311 304 305 306 309 307 304 303 301 299 297 295 294 294 294 294 294 294 293 293 292 292 292
297 298 299 299 300 301 301 300 300 300 299 298 299 304 304 305 305 306 308 306 302 302 301 300 300 302 300 304 304 308 304 304 305 305 308 307 305 303 302 300 298 297 293 292 293 293 294 294 293 292 291 291 291 291
296 298 299 299 300 299 300 301 301 298 299 300 300 304 303 300 299 298 298 301 300 301 302 304 304 305 303 304 304 302 303 305 305 307 307 303 302 301 299 298 296 296 295 293 293 294 293 293 292 292 292 292 292 291
296 297 299 299 298 299 298 299 299 297 297 298 299 301 299 302 300 299 299 299 299 300 301 302 304 305 304 304 303 305 306 305 305 304 303 299 298 297 297 297 296 294 293 293 292 293 293 293 292 293 292 291 291 290
296 299 298 299 299 298 298 297 296 296 298 300 299 298 299 301 301 298 301 299 298 300 304 303 304 305 299 303 303 302 304 303 302 302 299 298 296 296 295 294 294 293 293 293 293 293 293 293 292 291 292 293 292 290
297 297 298 299 299 299 297 296 298 299 298 297 301 298 296 297 299 298 299 298 299 299 299 301 298 300 302 303 303 302 300 299 299 298 296 295 295 295 295 295 294 293 293 293 293 293 293 293 293 293 293 293 292 292
297 297 298 298 298 296 295 296 296 299 297 296 294 294 295 295 293 293 294 294 295 295 298 298 302 301 300 298 300 301 300 299 298 297 296 295 295 294 294 293 293 292 292 292 293 293 293 293 293 293 293 293 293 292
296 297 297 297 297 296 296 296 294 297 299 296 295 296 295 294 293 294 295 296 297 298 299 300 300 300 299 298 297 298 297 297 296 297 297 295 294 293 293 293 293 293 293 293 293 293 293 294 293 293 293 293 291 290
295 293 294 295 293 294 295 296 296 296 295 297 295 297 294 292 294 294 294 295 297 299 298 298 301 299 297 296 295 295 295 295 295 295 295 295 294 293 293 293 293 293 293 294 295 294 294 294 294 294 292 291 289 288
291 292 292 292 292 292 294 292 296 294 296 296 296 296 295 294 294 293 292 294 295 297 298 298 298 297 297 296 295 294 294 293 293 293 293 292 294 294 294 293 293 294 294 294 294 295 295 294 293 293 291 289 288 288
292 292 290 290 293 294 292 292 294 293 296 295 295 295 295 294 292 290 293 294 295 295 295 295 295 294 294 294 293 293 293 293 293 293 293 293 293 293 294 294 294 294 294 293 293 293 293 293 292 290 289 288 288 288
291 290 292 292 293 292 292 293 293 293 293 294 295 294 294 294 290 291 294 295 295 294 293 293 293 294 293 293 293 292 292 292 293 293 293 293 293 293 293 293 293 293 293 293 292 291 290 290 289 288 288 287 287 287
294 291 292 291 291 292 293 293 293 294 294 293 293 294 292 290 293 293 294 295 296 296 294 293 292 292 293 293 292 292 292 292 292 293 293 293 293 293 293 292 292 292 292 291 290 289 289 289 288 287 287 286 286 286
292 290 293 292 291 293 293 293 293 293 293 293 293 291 290 293 294 294 293 295 294 292 290 290 292 293 293 292 292 291 291 290 289 290 290 291 291 292 292 291 291 290 290 290 289 288 288 287 287 286 286 286 286 285
292 292 290 289 291 291 291 290 291 292 292 292 293 292 293 293 293 293 292 287 289 285 286 286 286 287 287 287 286 285 284 284 284 285 284 285 286 286 286 288 289 288 286 285 285 285 286 286 285 286 285 285 285 285
291 291 291 291 291 291 292 292 292 292 293 292 293 292 293 293 294 288 285 281 281 282 283 283 282 281 281 282 281 281 281 280 280 281 283 285 286 281 281 281 281 281 282 283 283 283 283 284 284 283 284 284 283 282
292 291 290 288 290 291 292 293 293 293 292 293 294 294 294 286 281 281 279 279 279 280 280 279 279 278 279 279 279 280 278 277 277 279 280 281 280 279 276 276 277 277 278 279 280 281 281 280 279 280 280 280 280 279
290 290 291 290 290 292 294 293 294 292 290 292 292 290 286 280 276 276 276 277 276 276 276 277 277 277 277 277 277 278 277 275 274 274 275 276 276 275 275 274 274 274 275 276 277 279 280 279 279 280 278 278 276 277
288 289 290 291 292 293 290 287 287 286 288 290 292 291 287 279 275 273 273 274 274 274 274 275 275 275 274 274 274 274 275 274 272 271 270 270 271 272 271 271 271 271 272 274 275 276 276 277 278 277 276 274 273 273
288 289 290 291 291 289 287 288 290 290 291 290 290 285 282 282 280 275 271 273 274 273 272 272 272 272 272 273 272 272 271 271 271 270 269 268 268 268 268 268 269 269 270 272 273 274 274 274 274 273 274 271 270 269
286 286 286 287 288 289 288 287 288 288 288 287 285 283 281 281 278 274 271 271 271 270 270 270 270 271 271 271 271 271 270 270 269 269 268 266 266 265 266 266 267 269 268 270 271 271 271 271 271 270 269 268 267 265

GFSWCAN_925_thetae_018.txt.gz
Theta_e
314 313 313 312 311 311 310 310 311 311 311 312 313 313 313 316 317 324 319 316 327 327 322 322 322 324 323 325 330 324 324 326 329 319 323 327 323 324 322 319 318 317 319 317 319 319 320 315 315 317 318 317 316 314
314 313 313 312 311 311 310 311 311 311 312 313 313 314 314 314 316 321 322 318 322 326 324 322 320 320 319 321 324 325 322 324 325 325 325 325 316 316 320 325 316 321 322 324 320 320 317 316 315 315 315 316 313 311
309 313 313 312 312 311 311 311 311 311 312 312 313 314 314 314 315 321 322 320 322 328 323 321 321 319 318 320 322 326 328 321 324 323 321 316 313 320 318 323 320 316 315 324 321 317 315 316 315 314 313 311 310 309
306 308 311 312 312 311 311 311 311 311 312 312 313 314 314 315 315 320 322 319 321 318 312 325 316 319 316 320 321 321 321 321 322 320 312 311 314 320 322 321 323 320 317 318 319 317 317 316 314 313 311 310 308 308
303 305 307 308 311 311 311 311 311 311 312 313 313 313 314 315 316 319 320 319 319 324 318 325 318 316 316 318 320 319 320 322 322 315 309 314 323 325 322 319 322 317 316 319 321 317 317 316 313 311 310 308 308 304
301 303 304 306 307 309 311 312 311 311 312 313 313 313 313 314 316 321 321 320 316 321 320 317 318 316 316 317 319 319 319 321 322 320 315 319 319 323 317 318 315 313 313 314 315 315 314 311 309 308 309 307 303 302
301 301 302 302 304 306 308 310 311 311 311 312 313 313 313 314 317 317 318 315 315 319 317 315 321 313 312 317 317 319 318 318 319 321 321 319 321 318 312 317 314 313 313 313 312 311 311 309 308 306 304 303 301 299
300 300 301 301 301 302 304 307 309 311 311 311 312 313 313 313 314 315 314 312 316 319 319 317 316 315 311 317 316 312 315 316 317 317 315 315 318 314 316 315 314 313 313 311 310 309 309 308 307 304 302 299 298 297
300 300 299 300 301 301 301 303 306 310 311 311 312 313 313 313 315 317 313 313 314 318 320 309 313 314 312 309 308 310 312 314 313 312 311 315 313 314 314 313 314 313 311 310 309 308 308 305 303 300 298 298 297 296
299 299 299 300 301 301 301 302 304 307 310 311 311 309 303 308 311 311 314 317 315 317 314 310 314 315 312 308 309 309 308 314 312 311 307 307 310 312 312 311 311 311 310 308 307 306 302 299 298 297 297 296 295 295
299 299 300 301 301 301 302 303 304 306 305 306 301 299 302 305 308 306 311 314 311 312 310 310 313 312 310 310 309 308 308 308 313 311 313 312 311 310 310 308 308 308 306 305 304 300 297 297 297 297 297 296 294 294
299 299 300 300 301 301 301 303 303 303 302 303 302 302 303 300 300 310 307 304 307 313 305 305 307 310 307 310 308 304 308 306 311 308 309 310 310 309 308 307 305 304 300 298 297 297 296 296 296 296 295 294 294 293
298 298 299 300 301 301 301 302 302 301 301 301 298 297 300 297 305 307 308 307 307 301 301 301 302 302 301 303 302 303 307 309 305 308 308 309 308 306 306 304 302 298 294 295 295 295 295 295 294 293 293 292 292 292
297 298 299 299 301 301 301 301 301 301 301 299 300 304 304 306 305 304 304 303 300 300 300 300 300 302 299 302 301 307 305 306 308 308 307 310 306 304 303 303 300 297 291 293 294 294 294 294 294 293 292 292 292 292
296 298 299 299 300 301 300 301 301 300 301 301 301 305 303 300 299 298 296 299 298 299 299 300 300 302 302 303 303 304 305 308 308 309 306 306 304 303 300 300 297 296 293 293 295 294 293 293 293 293 293 293 293 293
296 297 298 298 299 299 299 299 300 299 299 300 299 302 300 302 300 298 297 298 299 299 300 302 302 305 305 304 305 307 308 308 309 307 306 301 300 299 298 297 297 296 294 294 293 293 293 293 293 293 294 293 292 291
297 300 298 298 299 298 298 298 297 297 299 300 299 300 301 300 300 299 300 299 299 300 302 303 305 303 301 305 305 304 306 305 305 304 301 299 298 298 296 295 294 294 294 294 294 293 293 293 293 293 293 293 293 293
298 298 298 298 299 299 297 298 298 300 300 300 302 298 297 298 299 299 299 299 300 300 301 302 300 302 303 304 305 305 303 302 302 300 298 298 296 296 296 296 295 295 294 294 293 293 293 293 293 293 294 294 294 293
297 297 297 298 298 297 297 297 298 300 298 298 296 296 296 296 295 295 295 295 295 296 298 300 301 302 303 301 303 304 304 302 300 298 297 295 295 295 295 294 293 293 293 293 293 293 294 294 293 293 294 294 294 294
295 296 298 297 297 297 297 298 296 298 300 298 296 296 295 294 293 294 295 296 297 299 299 300 301 303 303 301 300 301 301 299 299 299 298 297 296 295 294 294 294 294 294 294 294 294 294 294 294 294 294 294 294 293
295 295 295 295 295 296 297 298 297 297 297 298 296 298 293 293 294 295 296 296 298 300 299 300 303 301 299 297 296 296 296 296 297 297 296 296 295 294 294 294 294 294 295 295 295 295 294 294 294 294 294 293 292 291
292 293 292 292 293 293 295 295 297 296 297 296 296 297 294 295 294 294 293 296 296 298 298 300 299 299 299 298 296 295 295 294 294 294 294 294 295 295 295 295 294 295 295 294 294 294 294 294 294 293 293 292 290 289
292 292 291 291 294 295 293 294 296 296 296 295 296 295 294 294 293 291 294 295 296 296 296 297 296 295 295 295 294 293 293 293 294 294 294 294 295 294 294 294 294 294 294 294 293 293 293 293 291 291 291 289 289 288
291 291 293 294 295 294 294 294 295 295 296 296 296 296 295 294 292 293 295 296 296 295 294 294 294 295 295 293 294 294 293 293 293 293 293 293 294 294 293 293 293 293 292 292 292 292 291 290 289 289 289 288 288 287
294 292 293 293 293 294 294 294 294 295 295 295 295 295 294 292 295 295 295 297 294 292 292 293 294 293 294 295 294 293 291 289 290 291 291 291 291 291 291 291 291 291 291 291 290 291 290 289 289 289 288 287 287 287
294 292 294 294 294 295 295 294 294 295 295 294 294 293 293 294 294 295 295 293 290 288 288 289 290 292 292 289 289 288 286 284 284 284 285 284 283 284 286 287 287 287 284 285 287 288 288 288 288 287 287 286 286 285
293 293 291 291 293 293 294 293 294 294 294 294 294 292 293 293 294 294 289 285 286 284 285 285 284 285 285 285 284 283 282 281 280 280 281 282 283 280 280 280 281 280 280 281 282 283 284 285 286 286 286 285 285 285
292 293 292 293 293 293 293 293 293 293 294 294 294 293 293 293 293 287 284 282 282 282 283 283 281 281 281 280 281 281 279 278 278 279 279 282 281 278 276 276 276 276 277 277 278 279 281 282 281 282 282 282 282 281
291 292 291 290 292 293 293 294 294 293 294 294 295 294 294 285 282 282 280 279 280 280 280 280 279 279 279 279 279 279 277 275 275 275 276 277 276 275 274 274 274 274 274 274 275 277 278 280 280 279 279 280 279 279
290 291 292 291 292 294 294 294 294 291 292 293 293 289 285 280 277 277 278 277 277 277 278 278 277 277 277 276 276 276 277 274 273 273 273 273 272 271 272 271 271 271 272 272 273 275 276 277 278 279 278 277 275 276
289 290 291 292 293 293 290 288 288 288 289 290 290 291 284 279 276 274 275 276 276 275 275 275 275 275 274 274 274 274 274 273 272 271 270 270 269 269 269 268 268 269 270 270 271 273 274 274 276 276 275 273 273 272
290 290 291 291 293 290 289 289 290 290 292 290 290 286 284 283 281 276 273 274 275 274 273 273 273 273 272 273 273 273 272 271 271 270 270 269 268 267 267 266 267 267 267 267 269 272 273 272 273 272 272 270 269 268
288 288 288 289 289 290 290 289 289 289 289 288 288 285 281 282 280 275 273 272 272 272 271 271 270 271 272 271 270 271 270 269 269 269 269 268 267 266 265 265 266 265 265 267 268 270 270 269 269 268 267 266 265 264

GFSWCAN_925_thetae_021.txt.gz
Theta_e
312 312 312 312 311 310 309 310 310 311 311 312 313 313 314 316 322 323 316 323 324 317 319 321 321 322 323 320 315 318 314 313 308 314 311 311 310 311 314 315 312 308 309 307 311 313 311 313 314 311 310 314 313 310
312 313 312 312 311 310 310 310 311 311 312 312 313 313 313 315 318 323 319 321 322 321 320 320 319 319 320 322 319 318 314 320 316 313 308 310 312 314 312 312 314 315 312 311 311 310 310 313 312 313 312 312 310 308
313 313 312 311 311 310 310 310 311 311 312 312 313 313 313 314 318 322 320 322 323 314 317 319 319 318 318 320 322 318 316 319 320 317 311 313 309 311 309 311 315 314 315 311 313 315 315 313 312 311 309 308 308 308
313 313 312 311 311 310 310 311 311 311 312 312 313 313 314 314 319 321 321 320 320 312 308 317 317 318 316 320 320 321 320 320 317 309 308 310 307 314 308 310 309 312 315 315 311 314 314 313 312 310 309 308 308 308
306 309 311 311 311 311 311 311 311 311 312 312 313 313 314 315 318 317 316 317 320 319 310 310 318 315 316 319 319 320 320 317 313 307 306 307 304 309 303 306 309 315 313 311 309 313 313 312 310 310 309 308 307 306
304 305 307 309 311 311 311 311 311 311 312 313 313 313 313 314 317 321 318 319 318 321 310 311 315 315 315 317 319 319 318 317 316 310 304 310 317 310 309 310 313 314 313 312 313 312 311 309 308 308 308 307 304 301
302 302 303 305 307 310 311 311 311 311 312 312 313 313 313 314 318 316 315 315 316 319 305 309 312 309 311 315 312 314 315 313 314 311 307 305 309 313 307 310 312 313 311 311 310 309 309 308 307 307 306 302 301 297
300 300 301 302 303 305 308 310 311 311 311 312 312 313 313 313 314 316 313 314 318 317 309 311 311 306 311 305 307 308 304 309 313 310 307 307 307 304 310 313 313 312 311 310 309 308 307 306 306 303 301 297 296 294
299 300 300 301 301 301 303 306 309 310 311 311 312 313 313 313 315 315 312 313 315 316 308 304 307 307 307 306 303 303 307 306 307 306 307 309 307 312 312 312 312 311 309 308 308 307 307 307 306 298 296 295 294 293
299 300 301 301 301 301 302 303 306 310 311 311 311 311 306 309 311 311 312 307 304 303 305 306 305 310 307 303 304 305 301 306 310 306 305 305 309 307 308 309 309 308 309 308 307 307 303 297 296 295 295 295 294 293
299 300 301 300 301 302 304 304 306 307 307 309 302 299 304 308 309 303 307 308 307 306 306 306 304 308 304 305 305 302 305 304 309 304 307 308 308 306 306 307 306 306 306 303 299 298 297 296 295 295 294 293 293 293
299 299 300 301 301 303 303 304 304 305 303 303 303 303 304 300 300 308 307 304 306 309 302 304 304 306 302 306 303 302 307 304 309 305 307 308 304 306 305 305 304 298 297 297 297 296 296 296 295 294 294 293 293 293
298 299 300 301 301 301 301 302 302 302 302 302 299 298 302 298 305 307 309 306 306 300 300 300 302 299 300 301 301 303 307 308 302 306 305 302 306 305 304 299 295 294 293 294 294 294 294 294 293 293 292 292 292 292
298 299 300 301 301 301 301 301 301 301 302 298 300 303 303 304 303 301 302 302 299 298 298 298 299 301 298 302 301 306 303 302 307 305 300 304 305 303 301 297 294 292 290 291 292 293 293 293 293 293 293 292 292 292
298 298 299 300 301 301 301 301 301 301 301 298 300 303 301 298 297 297 296 297 296 297 298 299 299 300 301 302 301 301 303 306 306 306 302 301 300 298 296 294 292 291 290 292 294 293 293 293 293 293 293 292 293 293
297 298 298 299 299 299 300 300 301 299 298 298 297 299 298 300 299 298 297 297 297 296 296 298 301 304 302 302 303 305 306 306 304 301 298 296 296 295 295 294 294 294 293 293 293 293 293 293 293 293 293 293 293 293
298 298 298 298 298 298 299 299 297 296 294 298 298 297 298 298 297 297 297 297 298 298 301 301 303 301 298 302 303 302 304 301 299 297 295 295 295 294 293 293 294 294 294 293 293 293 293 293 293 293 292 292 293 293
298 298 298 298 298 298 297 298 296 295 297 297 299 297 296 295 297 297 295 295 297 297 297 299 297 300 302 302 302 301 297 295 294 294 293 294 295 295 295 294 294 294 293 293 292 292 292 293 292 292 293 293 293 294
296 296 297 298 298 297 295 296 297 296 297 293 294 293 294 294 293 294 294 295 295 295 295 295 298 299 298 296 298 296 295 294 294 294 293 294 295 294 294 294 293 293 293 293 293 293 293 293 293 293 293 293 293 294
295 295 296 297 297 297 295 293 296 294 298 294 294 294 293 293 292 292 293 294 295 295 294 295 295 295 295 294 293 293 293 294 292 292 293 293 294 294 294 294 294 294 294 294 293 294 294 294 293 292 293 293 292 292
295 295 295 296 295 296 294 294 296 293 293 296 294 294 292 292 293 294 295 293 295 292 294 293 292 293 296 296 296 295 295 295 292 290 290 290 293 293 293 293 293 293 294 294 294 294 294 293 292 293 293 292 292 291
294 294 294 293 292 293 291 295 294 292 294 295 294 294 293 293 293 293 292 291 291 291 294 292 293 291 292 294 295 295 294 293 293 293 293 294 289 292 293 294 294 294 293 293 293 292 292 292 292 292 291 289 290 290
293 293 292 291 293 293 291 293 294 295 293 295 294 294 293 293 292 289 292 292 290 293 293 294 294 294 294 294 293 293 293 293 293 292 291 291 291 292 292 292 292 292 291 291 291 291 291 291 291 290 289 288 288 288
292 291 293 294 295 294 292 293 291 291 291 294 294 294 293 293 287 288 288 288 290 291 291 291 293 290 293 292 289 288 287 287 287 287 287 287 287 287 286 286 286 286 286 286 287 287 287 288 289 289 288 287 288 288
291 291 292 293 293 293 291 293 293 290 288 289 289 289 290 286 286 286 287 292 289 288 289 288 289 289 289 287 287 285 283 282 282 282 283 282 281 281 282 284 284 282 279 281 282 283 283 284 285 286 287 287 287 286
293 291 292 293 291 292 291 292 294 292 288 290 289 289 286 285 287 286 292 289 287 286 286 285 284 286 285 284 283 282 281 280 279 280 280 280 280 279 278 278 278 277 276 276 277 278 279 280 282 284 285 285 286 285
293 292 290 290 292 292 293 293 292 292 291 290 288 287 285 286 285 289 286 284 285 284 284 283 282 282 283 281 281 280 279 277 277 277 278 279 277 275 274 275 275 274 273 274 274 274 276 278 279 281 281 281 283 282
292 292 291 292 292 291 291 291 290 289 289 290 287 285 284 284 288 285 283 281 281 282 282 280 279 280 280 280 280 278 276 275 275 275 278 277 274 274 272 271 272 271 271 272 272 272 273 275 277 279 280 279 280 279
291 292 287 286 287 289 288 289 289 290 290 288 285 286 286 282 280 281 279 279 279 279 278 278 277 277 277 277 276 276 274 273 272 268 267 267 270 270 269 269 269 269 269 269 270 271 272 273 275 276 277 278 276 275
290 290 288 286 286 289 292 290 292 290 289 289 286 283 281 278 276 277 277 277 277 277 277 277 276 275 274 275 274 274 274 272 271 271 267 267 269 269 268 267 267 267 267 267 267 269 271 272 274 275 275 274 273 271
288 290 291 290 292 290 289 288 287 287 288 289 289 285 279 275 274 274 275 276 275 274 274 274 273 272 272 272 273 272 272 272 271 270 270 269 269 268 267 266 266 266 266 266 266 267 269 271 273 272 271 270 269 268
289 289 290 289 291 288 288 288 289 289 285 288 287 283 279 279 274 274 272 274 273 272 272 271 271 271 271 272 271 270 270 269 269 268 269 268 268 267 266 265 265 265 266 266 266 267 269 269 269 268 268 266 266 265
286 285 285 283 283 285 287 282 282 282 281 280 282 280 275 273 272 273 272 272 272 271 270 270 269 269 270 270 269 269 268 267 267 267 267 267 266 265 265 265 265 265 265 265 265 266 267 267 266 265 264 263 263 262

GFSWCAN_925_thetae_024.txt.gz
Theta_e
312 311 310 310 309 309 309 310 310 311 312 312 312 313 316 320 321 317 321 324 321 313 318 319 318 320 319 315 313 315 313 310 308 307 304 312 304 309 311 313 310 309 309 306 303 301 309 309 312 311 309 311 311 309
312 311 310 310 310 309 310 310 310 311 312 312 313 313 314 317 322 318 321 322 322 315 317 318 318 318 320 318 315 313 311 314 311 309 308 311 305 311 307 312 311 311 308 309 310 310 308 309 311 309 310 310 308 307
312 312 311 311 310 309 310 310 310 311 312 312 313 313 313 318 322 318 321 322 319 308 313 316 318 317 320 320 319 315 311 317 316 309 307 304 304 306 310 311 314 311 312 310 311 312 311 311 312 311 310 308 307 308
312 312 311 311 310 310 310 310 311 311 312 312 313 313 315 319 320 318 319 320 316 306 305 314 316 316 317 319 320 320 317 316 310 305 305 306 304 308 305 306 307 308 313 313 309 312 312 312 311 308 307 306 308 308
312 311 311 310 310 310 310 310 311 311 312 312 312 313 315 318 317 317 318 319 321 312 310 308 314 315 316 318 319 319 317 313 308 306 305 306 300 306 302 302 306 312 312 310 309 310 310 311 308 307 307 308 308 306
311 311 311 310 310 310 310 311 311 312 312 312 312 313 314 317 319 320 314 316 320 318 306 307 310 311 313 317 317 316 316 313 310 306 304 305 311 306 309 314 310 313 313 311 312 312 311 308 307 308 308 307 304 297
305 308 310 311 310 310 310 310 311 312 312 312 312 313 313 315 319 314 310 314 318 315 304 308 306 307 310 312 308 310 311 310 311 306 304 307 305 310 306 310 311 311 311 311 309 308 308 307 307 308 307 302 295 294
301 303 304 307 311 311 311 310 311 311 312 312 313 313 313 315 316 315 312 316 318 313 303 305 304 303 309 302 305 304 302 306 309 310 306 306 304 303 311 311 311 311 311 310 308 308 306 306 307 301 297 295 294 292
300 301 301 301 303 307 310 311 310 310 311 311 312 312 312 312 312 314 312 314 314 313 306 301 305 307 304 304 301 300 302 305 304 306 305 306 306 310 310 310 311 310 309 308 307 306 306 307 299 296 295 294 293 293
300 301 301 302 302 302 305 309 310 310 310 311 311 309 306 307 309 311 312 305 302 303 302 303 303 306 306 301 303 303 300 304 309 306 305 305 309 306 305 307 307 307 307 307 308 308 302 297 296 296 295 294 293 292
301 300 301 303 303 303 304 306 308 310 311 311 303 300 306 308 309 301 306 306 306 306 305 303 302 307 301 305 306 299 304 304 308 302 304 303 306 304 305 305 304 306 302 301 301 298 296 296 295 295 294 293 293 292
300 301 302 303 303 304 305 306 306 307 305 306 305 304 305 301 301 308 306 304 305 308 301 304 303 305 302 302 303 302 305 303 307 302 307 308 304 304 300 297 297 297 297 296 296 296 296 295 295 294 293 292 292 292
300 300 301 301 301 302 303 304 305 305 304 303 300 299 303 298 306 310 311 306 306 300 300 300 304 299 300 301 301 303 307 307 302 307 307 304 306 300 296 295 294 294 294 294 294 294 294 293 292 292 291 291 291 291
299 300 301 300 301 301 301 301 302 301 302 298 301 303 303 303 302 301 302 302 298 297 298 298 299 300 298 302 301 306 303 302 307 305 299 304 305 302 296 294 293 291 290 291 292 293 293 293 293 292 292 292 292 292
298 298 300 300 300 301 301 301 300 300 298 298 296 302 299 296 296 296 296 297 296 296 297 298 298 300 300 301 301 301 303 305 304 304 302 299 298 296 294 293 291 291 290 292 292 292 292 292 292 292 292 292 292 292
298 298 298 298 298 299 299 300 300 299 297 296 297 298 297 298 299 298 297 297 296 295 295 297 300 303 301 301 302 303 304 303 302 300 298 295 296 294 294 293 293 292 292 292 292 292 292 292 292 291 292 292 293 292
297 298 298 298 298 298 298 298 298 294 293 298 297 296 297 297 297 298 296 296 297 298 300 299 299 299 297 300 302 302 301 301 299 297 294 294 295 294 292 292 293 293 293 293 293 292 292 292 292 292 291 292 293 293
297 297 298 297 297 298 297 298 293 293 297 296 297 295 294 294 296 296 294 293 294 296 296 297 295 299 300 301 301 300 297 294 293 294 293 293 294 293 294 293 294 293 292 292 292 292 292 292 291 292 292 293 292 293
295 296 297 298 297 296 295 294 295 294 295 293 293 292 293 293 292 293 293 294 294 293 291 292 295 297 296 294 295 296 294 292 293 293 292 293 293 293 293 293 293 292 292 292 292 292 292 293 293 293 293 292 291 292
294 295 296 297 297 297 292 290 295 292 295 294 293 293 292 292 291 292 293 293 294 289 289 290 291 290 291 290 289 290 289 290 290 290 291 291 293 293 292 292 292 292 292 293 293 293 293 293 293 292 292 292 291 290
294 294 294 296 296 294 289 292 295 292 292 294 292 292 291 291 293 293 293 291 290 287 292 290 288 289 293 294 294 294 293 293 290 287 287 288 292 292 292 291 292 293 291 291 289 289 290 290 289 291 291 291 291 290
293 293 293 294 292 291 287 293 291 290 294 294 293 292 292 293 292 292 291 291 289 289 290 289 290 289 291 292 292 292 292 291 290 289 289 289 287 287 287 287 286 286 286 287 286 287 287 287 286 287 288 288 288 287
293 292 291 291 286 291 290 292 292 292 291 293 293 293 292 292 291 289 292 291 289 290 290 291 292 292 290 288 287 286 287 287 286 285 285 285 285 283 282 283 283 283 282 282 282 282 282 282 282 283 285 286 287 286
292 290 288 287 290 289 290 292 289 292 292 293 293 293 291 292 287 288 284 291 291 288 287 287 289 288 288 286 284 283 282 282 282 282 281 281 281 281 282 281 280 278 276 277 277 276 277 277 278 279 281 282 284 285
291 285 284 288 288 289 288 290 292 290 287 288 286 286 288 282 281 281 282 291 288 287 284 284 285 286 286 285 282 281 279 279 279 280 279 279 279 277 276 276 276 275 273 273 274 273 274 274 275 276 278 280 281 282
287 283 285 285 284 288 287 287 287 288 287 288 286 287 278 279 284 284 289 285 286 284 283 284 281 282 282 281 281 280 277 277 278 278 277 277 274 273 273 272 273 272 271 270 271 271 271 272 273 274 275 276 279 280
287 286 288 288 289 291 289 289 291 291 291 291 290 287 283 284 280 287 284 282 284 283 282 282 281 282 281 280 278 276 276 275 275 275 275 273 272 271 270 269 270 269 269 269 269 269 269 270 271 272 273 275 277 278
288 287 287 289 292 291 291 290 290 291 288 288 286 285 286 283 285 282 282 281 281 280 279 279 279 278 278 277 276 275 274 274 274 276 274 273 271 270 269 268 268 267 267 268 267 267 267 267 268 270 272 274 275 274
290 289 288 288 286 286 286 286 287 289 289 285 282 281 284 280 277 279 278 279 279 278 277 276 276 276 275 274 274 273 272 272 271 264 262 261 267 268 268 268 267 266 266 266 266 266 267 268 270 272 273 272 272 271
288 286 284 281 284 289 290 288 290 287 287 285 282 280 279 276 275 276 276 277 276 275 274 273 273 273 272 272 272 272 271 271 271 269 263 263 269 268 267 267 266 265 265 265 265 266 268 269 270 271 271 270 269 268
287 288 289 286 290 288 287 286 287 287 287 288 284 280 276 273 274 274 274 274 274 274 273 272 271 271 271 271 270 270 270 269 269 268 268 268 267 267 266 265 265 265 265 265 265 265 266 268 268 268 267 266 265 265
288 288 289 286 289 285 286 287 283 282 281 284 283 277 274 270 268 272 272 273 273 271 271 270 270 269 269 269 269 269 268 267 267 267 266 266 266 266 265 265 264 264 264 264 264 265 265 265 265 264 264 263 262 262
280 272 274 271 275 279 279 274 273 274 275 276 275 271 270 270 270 272 272 272 271 271 270 269 269 269 268 268 268 267 267 266 266 266 266 266 265 265 264 264 264 263 263 263 263 263 263 263 263 262 262 261 261 260

GFSWCAN_925_thetae_027.txt.gz
Theta_e
309 309 309 309 309 309 309 310 311 311 312 312 314 316 320 318 316 319 322 323 319 312 317 317 317 317 315 313 313 313 312 309 303 306 303 305 301 308 310 311 311 310 311 309 305 303 310 307 310 311 308 309 310 308
310 309 309 308 309 309 309 310 311 311 312 312 313 315 319 319 318 321 321 320 319 314 316 317 316 317 318 314 313 310 313 311 309 305 302 305 303 309 305 310 309 310 307 308 308 309 306 306 310 308 308 310 309 307
310 309 309 309 309 310 310 310 311 311 312 312 313 315 320 321 319 318 321 319 317 308 313 314 316 317 318 319 317 312 308 312 311 305 307 303 303 304 309 309 311 310 308 307 309 309 309 307 309 310 309 309 306 306
310 310 309 309 309 310 310 310 311 311 312 312 313 317 319 320 317 318 319 317 313 303 305 312 315 315 316 319 320 317 314 311 306 303 303 304 301 305 303 306 307 308 310 310 308 309 311 311 310 309 307 306 307 307
310 310 310 309 309 310 310 311 311 311 311 312 313 316 316 317 317 318 319 319 317 310 308 305 312 313 315 318 318 317 313 310 307 304 303 306 299 304 303 301 307 309 310 308 309 309 310 309 309 306 306 306 306 304
311 310 310 310 310 310 310 311 311 311 311 312 312 314 316 315 315 314 310 316 318 314 306 308 308 309 312 315 315 314 313 310 307 306 303 303 307 305 309 313 310 310 311 307 309 308 308 309 305 305 306 307 303 296
310 310 310 310 310 310 310 311 311 312 312 312 312 313 314 317 317 311 307 314 317 312 303 308 306 305 308 309 305 308 308 308 309 306 304 304 304 308 306 310 310 310 309 310 309 307 309 307 307 307 306 299 296 294
310 310 310 310 310 310 310 311 311 312 312 312 313 314 314 314 314 312 314 316 315 310 301 304 302 303 307 304 306 302 303 305 305 307 305 307 303 303 309 310 310 310 309 310 307 307 307 305 306 301 295 294 294 293
302 305 309 310 310 310 310 310 311 312 312 312 312 312 312 312 310 311 313 314 314 310 304 301 304 307 302 304 301 300 302 306 303 305 305 305 305 311 311 309 310 309 310 309 307 306 305 304 298 295 295 294 293 292
301 302 302 305 309 310 310 310 310 310 311 311 310 309 301 307 309 311 311 302 300 302 300 302 301 305 306 301 302 302 301 304 310 304 305 305 309 305 304 304 305 305 306 306 306 305 297 297 296 296 295 294 293 292
303 303 303 302 303 306 309 310 310 310 310 310 302 301 307 307 308 300 304 304 306 309 304 302 302 306 301 305 304 298 304 303 308 301 307 305 306 302 298 296 298 298 300 298 299 298 297 296 296 295 293 292 292 292
301 302 303 304 304 305 306 308 310 310 308 307 306 305 305 299 299 304 303 303 305 308 301 304 303 305 301 300 303 302 303 303 306 302 307 306 302 297 295 295 296 297 297 297 297 296 295 295 295 294 293 292 292 291
300 300 300 300 301 304 305 307 307 306 306 306 302 299 303 300 308 311 311 307 306 300 300 300 303 299 300 300 302 303 307 307 301 307 308 305 298 298 297 297 297 297 296 297 297 296 295 294 292 291 291 291 291 291
300 300 300 300 300 301 301 302 304 304 303 299 301 304 304 303 301 301 302 302 297 297 298 298 299 301 298 302 301 306 303 302 307 306 299 302 301 300 295 293 292 291 290 291 291 291 291 292 292 292 292 292 292 292
298 299 299 298 299 300 300 300 300 300 298 298 298 301 299 296 296 296 296 297 295 296 297 299 299 300 300 302 300 301 303 304 302 298 300 297 295 294 293 293 292 291 290 291 291 291 291 291 291 291 291 292 292 292
298 298 297 298 298 299 300 300 299 298 296 296 296 298 297 298 299 298 297 298 296 295 295 297 300 301 301 300 298 298 300 298 297 299 297 295 294 293 295 294 292 292 292 292 292 292 291 291 291 291 291 292 292 292
297 297 297 297 297 298 299 299 297 293 293 297 298 296 296 297 298 297 296 296 296 297 300 298 297 299 297 300 301 301 300 300 298 297 294 295 295 293 293 293 294 293 292 292 291 291 291 292 292 291 290 292 292 292
295 297 297 297 297 297 297 297 292 292 296 296 297 295 294 294 296 296 294 293 292 296 296 295 295 295 296 297 300 299 298 297 294 294 294 294 294 292 292 293 293 292 291 291 292 291 291 291 291 292 292 292 291 291
295 295 297 297 297 296 292 294 293 295 295 294 293 292 292 292 291 292 293 293 293 291 290 290 291 293 295 293 293 294 293 290 292 292 291 292 292 292 292 292 291 291 291 291 291 290 290 290 290 289 289 289 288 289
294 295 295 296 296 296 292 290 293 292 294 294 292 292 292 292 291 292 293 293 292 288 289 290 291 290 290 289 288 288 288 288 288 287 288 288 290 290 289 289 288 289 289 288 287 287 286 286 286 286 285 285 285 287
293 293 293 295 295 294 289 292 294 293 293 293 292 292 291 291 292 293 294 291 286 286 291 289 285 286 290 291 292 292 291 291 288 285 286 286 287 287 285 284 284 284 284 283 284 284 284 283 282 282 282 283 284 284
292 292 293 293 290 289 288 291 292 290 293 293 292 292 292 292 292 292 290 293 289 288 289 291 292 291 292 289 287 288 288 287 286 286 286 286 284 283 282 282 281 280 281 280 280 280 279 278 277 277 279 279 280 282
292 291 291 290 287 287 288 292 293 293 293 293 292 293 292 291 291 289 291 291 290 289 288 288 289 288 286 284 284 283 284 283 282 281 282 282 281 281 280 280 277 276 275 275 275 275 274 274 274 274 275 275 277 279
292 289 289 289 288 286 283 291 288 289 291 292 293 292 291 291 288 288 286 290 290 287 286 286 287 286 285 284 282 280 280 280 280 279 279 280 279 278 276 276 275 273 271 271 271 272 271 271 271 272 272 273 274 275
291 285 288 284 286 281 282 282 286 286 286 290 292 291 289 284 285 287 282 288 287 286 284 283 284 286 285 282 281 280 278 278 279 279 277 276 275 274 273 273 272 271 269 268 268 268 269 269 269 269 270 271 271 273
286 283 285 280 282 285 282 284 284 285 285 289 290 288 282 285 289 285 288 286 285 284 282 283 283 283 282 281 280 277 275 275 277 276 274 272 271 270 269 268 268 268 267 267 266 266 266 267 267 267 268 269 270 271
284 280 284 287 288 289 287 284 288 290 290 291 286 286 288 289 287 286 284 281 283 281 281 281 281 281 280 277 274 274 274 274 275 274 272 271 270 269 268 267 266 267 266 266 266 266 265 265 265 266 267 268 269 271
285 286 289 286 290 290 291 289 291 291 290 290 289 290 290 286 285 281 281 280 279 278 278 278 278 278 276 274 273 273 273 273 273 273 271 270 269 269 268 267 267 266 266 266 266 266 265 265 266 267 268 268 269 269
289 289 289 288 288 286 288 289 288 290 289 287 283 285 282 278 275 277 277 278 278 277 275 274 273 274 273 272 272 271 271 271 271 261 261 258 266 268 267 266 266 265 265 265 266 265 266 267 267 268 268 269 268 267
288 286 286 282 285 289 288 287 288 286 286 282 280 278 277 274 273 275 276 276 275 272 272 272 272 273 272 272 270 270 269 269 268 268 262 260 267 267 266 266 265 265 264 264 265 265 266 266 267 267 266 266 265 265
285 287 288 288 285 287 286 286 287 286 286 285 280 278 275 271 273 273 274 273 273 272 272 271 271 270 270 270 269 269 269 268 267 267 267 267 266 266 265 265 264 264 264 264 264 264 264 264 264 264 264 263 262 262
286 286 287 287 287 284 277 279 279 275 284 284 280 275 269 267 265 270 271 272 272 271 269 269 269 269 269 268 268 267 267 266 266 266 266 266 265 265 265 264 264 263 263 263 263 263 263 263 263 262 262 261 261 260
278 273 274 269 275 277 276 270 269 272 278 280 274 269 267 269 268 270 271 271 271 270 269 268 268 268 268 267 267 266 266 266 265 265 265 265 265 265 264 264 263 263 262 262 262 262 262 261 261 261 260 260 260 259

GFSWCAN_925_thetae_030.txt.gz
Theta_e
309 308 308 308 307 309 311 311 312 312 314 315 318 320 317 317 318 320 320 321 316 311 316 316 316 314 313 312 312 312 312 309 303 306 303 303 301 307 309 309 311 310 311 311 303 299 309 305 311 311 309 307 309 307
309 308 308 308 309 310 311 312 312 312 313 314 317 319 319 320 319 321 319 317 317 313 314 315 315 315 316 312 311 309 313 311 309 305 298 301 305 307 305 309 308 310 307 306 307 308 306 304 308 307 306 307 308 307
309 308 309 309 310 311 311 312 312 312 313 315 318 320 318 319 320 320 319 317 317 308 312 313 315 316 317 317 314 311 306 309 308 303 301 302 303 301 306 307 310 308 305 305 308 308 306 305 305 308 307 308 308 307
308 308 309 310 310 311 311 311 312 312 313 316 319 319 319 318 319 319 316 312 312 303 306 311 314 313 315 318 318 314 311 307 303 301 301 301 301 303 301 304 305 307 307 308 306 307 307 308 308 307 308 306 306 305
308 309 310 310 310 311 311 311 312 312 313 316 316 318 318 318 317 316 317 315 313 308 308 306 310 311 314 316 315 313 310 309 306 304 303 304 296 302 302 300 306 307 309 307 307 306 308 307 309 307 307 306 306 304
309 310 310 310 310 310 310 311 311 312 312 314 316 316 317 316 315 312 309 317 313 313 307 309 306 307 311 313 312 311 311 307 306 306 303 302 304 304 309 311 309 308 307 306 307 307 306 307 306 305 305 305 302 297
309 309 310 310 310 310 311 311 311 311 312 312 314 315 316 315 311 307 306 313 314 310 304 307 305 304 306 307 304 306 307 306 307 306 302 303 305 306 304 308 309 308 308 308 307 307 310 307 308 305 304 297 295 293
309 309 310 310 310 310 311 311 312 312 312 313 313 314 314 314 314 313 312 315 313 308 300 303 303 303 305 304 306 302 303 305 306 306 304 305 304 303 310 308 308 308 308 308 307 306 305 305 303 295 294 294 294 293
309 309 309 310 310 310 311 311 312 312 312 313 314 313 312 312 309 311 313 313 313 308 302 299 304 306 302 303 300 302 303 308 303 305 306 304 305 310 307 304 304 305 306 306 306 304 300 298 295 295 295 295 294 292
308 309 309 310 310 310 311 311 312 312 311 311 310 309 303 307 308 310 310 302 300 299 302 303 299 305 306 301 302 301 301 305 310 305 305 306 307 302 296 295 297 299 302 305 306 298 295 296 297 297 295 295 293 292
302 304 308 310 310 310 310 310 310 311 310 309 301 303 307 307 307 298 301 302 304 304 303 302 302 306 301 306 306 297 305 303 309 301 308 305 306 300 295 297 297 297 297 297 297 297 297 296 295 293 292 293 294 293
302 304 304 305 308 309 309 309 309 309 308 308 306 306 305 300 300 304 303 303 305 306 301 304 303 304 301 298 303 302 302 302 304 300 306 305 299 295 297 297 298 297 297 296 295 294 293 293 294 294 295 293 292 291
300 300 301 303 305 306 308 309 309 308 307 306 301 298 301 298 308 310 311 308 306 300 300 300 303 299 300 300 301 303 307 306 300 306 307 304 298 299 299 298 297 296 296 296 295 295 295 294 293 292 290 290 291 290
298 299 299 300 300 302 305 305 306 307 306 299 302 307 304 304 302 301 303 302 297 297 298 298 300 301 298 303 301 307 303 302 307 306 299 301 299 299 292 291 291 290 289 291 291 291 290 291 291 291 291 291 291 291
298 298 298 298 299 300 301 301 302 302 298 298 298 301 299 296 296 296 296 297 295 296 297 299 299 300 301 302 300 301 302 300 298 297 299 297 295 293 293 294 292 290 288 290 290 290 291 291 291 291 291 291 291 291
298 297 297 297 298 299 299 299 298 298 296 296 296 298 297 299 298 298 297 297 296 295 295 298 301 300 299 300 299 300 299 295 296 298 297 295 294 293 294 295 292 293 292 291 291 291 290 290 290 290 291 291 291 291
296 296 297 297 298 298 299 298 297 293 295 297 298 295 296 297 298 297 296 296 295 297 300 296 297 298 295 297 298 298 295 297 297 295 294 294 294 293 294 293 293 292 291 291 291 290 290 290 290 290 289 290 289 290
294 296 296 297 298 298 297 296 292 294 297 295 297 295 294 294 296 295 294 292 294 296 294 294 295 294 293 295 295 297 296 293 292 292 293 293 292 292 292 292 291 291 290 290 290 289 289 288 287 286 286 285 285 285
294 294 295 296 297 297 291 293 292 295 294 293 292 292 292 292 291 292 292 292 290 289 289 288 289 291 291 290 288 296 295 289 293 292 290 290 290 290 289 289 289 289 288 287 286 285 285 285 284 282 282 282 282 283
293 294 295 296 296 295 292 289 293 293 295 294 292 292 292 292 291 292 293 292 288 287 289 290 290 289 289 289 288 288 288 287 288 287 287 286 287 286 285 285 284 284 283 283 283 282 281 280 280 279 278 279 280 280
293 293 294 296 295 294 289 291 293 293 293 294 292 292 291 291 292 292 293 290 286 285 291 288 285 286 288 288 288 289 288 289 287 285 285 286 284 283 282 281 281 280 280 279 279 278 276 276 276 275 274 275 276 275
292 292 293 293 290 289 288 291 292 291 293 293 292 292 291 292 291 291 290 289 289 288 289 291 292 291 289 287 285 285 285 285 284 283 284 283 281 281 280 277 277 276 275 274 274 274 273 273 272 271 272 272 272 273
292 292 290 290 286 286 290 291 290 292 293 293 291 291 291 291 290 288 291 291 290 288 288 288 287 286 285 283 282 282 282 281 280 280 280 279 278 278 278 275 273 272 271 271 271 271 270 270 270 270 270 270 270 270
291 289 289 289 283 285 282 288 286 286 291 292 291 292 290 290 288 288 287 290 289 287 287 287 285 284 284 282 280 279 279 280 278 278 279 278 277 275 274 273 272 270 268 268 268 268 268 268 268 268 268 268 268 268
284 285 286 286 287 280 278 278 284 285 284 288 292 290 289 284 286 288 284 287 286 284 284 285 285 285 284 282 280 277 277 278 278 277 274 273 273 272 271 270 270 269 267 266 266 266 266 267 266 266 267 267 266 267
285 285 284 277 279 288 279 283 280 282 281 285 285 285 282 284 288 286 287 284 284 283 281 282 282 282 280 280 278 276 274 275 277 274 272 271 270 269 267 266 266 267 266 266 265 265 265 265 265 265 266 267 267 268
283 281 282 286 288 288 282 280 285 283 285 290 287 286 289 291 287 285 283 281 282 279 279 280 281 280 277 275 273 273 274 275 275 273 271 270 269 268 267 266 265 266 266 265 265 265 265 264 265 265 265 267 267 267
285 281 286 284 286 288 290 289 290 289 289 289 287 289 289 285 282 279 279 278 278 277 277 277 277 276 274 273 272 272 272 272 271 271 269 269 268 268 267 266 266 265 265 265 265 265 265 265 265 265 266 267 266 266
285 284 283 284 287 288 288 289 289 289 288 288 287 285 280 276 273 274 275 276 276 276 274 273 272 273 272 272 271 271 271 271 271 261 261 258 266 267 266 266 265 265 264 264 264 264 265 265 265 265 265 265 265 264
282 282 282 281 284 288 283 285 284 283 283 281 279 277 275 273 272 274 275 275 274 271 272 272 272 272 271 271 269 268 268 268 268 267 261 259 266 265 265 265 265 264 264 263 263 264 264 264 264 264 264 264 263 262
282 284 286 287 285 283 284 285 286 286 284 277 277 276 274 270 272 271 272 272 272 271 271 270 270 270 269 269 268 268 268 267 267 266 266 266 265 265 265 264 264 263 263 263 263 263 263 263 262 262 262 261 261 260
285 284 285 286 283 278 273 277 276 279 279 283 277 273 267 267 265 270 270 271 270 270 269 268 269 268 268 268 267 267 266 266 265 265 265 265 265 265 264 264 263 263 263 262 262 262 262 261 261 261 260 260 259 259
277 272 274 271 275 276 272 268 267 272 276 275 268 266 265 266 268 269 270 270 270 269 269 268 268 268 267 267 266 266 265 265 265 265 265 265 264 264 264 263 263 263 262 262 261 261 261 261 260 260 259 259 259 258

GFSWCAN_925_thetae_033.txt.gz
Theta_e
308 308 309 308 307 306 307 310 311 313 314 315 315 316 315 315 317 322 320 321 316 313 315 315 315 313 313 314 317 314 315 312 308 313 314 311 312 311 311 310 313 315 315 314 305 310 315 306 311 315 314 308 309 310
309 309 308 307 307 309 311 311 312 313 314 316 316 316 316 315 316 320 317 316 316 314 315 314 314 314 315 311 313 310 315 313 313 311 305 305 310 308 308 316 308 314 312 314 311 314 309 306 311 309 307 309 310 310
308 308 307 308 311 311 312 312 312 314 316 318 319 316 316 315 318 320 318 316 315 310 313 314 315 314 316 315 312 315 308 311 308 305 305 305 309 307 313 312 310 309 306 311 310 310 308 308 307 306 307 309 309 309
308 308 310 311 311 312 312 312 314 317 319 320 319 319 317 318 320 317 317 313 312 306 308 314 312 311 314 317 316 312 309 306 303 304 304 305 310 304 307 308 311 310 308 310 310 310 308 308 308 310 308 308 308 308
309 310 311 311 311 312 312 313 315 316 318 318 319 318 318 318 319 316 314 312 310 310 309 309 309 310 312 313 311 309 309 309 308 307 306 309 302 306 304 304 309 308 311 313 313 309 309 309 308 309 309 309 308 307
310 310 311 311 311 311 312 312 314 316 317 317 317 317 317 316 315 314 312 315 311 313 310 311 305 306 309 311 309 309 309 308 308 310 303 305 305 307 310 312 309 308 308 307 310 308 308 308 307 307 308 307 303 300
310 310 310 311 311 311 311 312 312 314 316 316 316 315 314 311 310 306 307 312 310 309 305 307 307 304 304 306 304 306 306 307 309 306 304 306 307 307 307 313 308 307 308 308 308 308 310 308 309 304 299 295 294 294
310 310 310 311 311 311 311 312 312 313 314 314 314 313 314 314 315 313 310 312 309 305 302 306 305 305 304 306 306 303 306 307 307 307 305 305 306 305 311 304 302 303 304 307 306 306 306 300 296 295 295 295 296 295
310 310 310 311 311 311 311 312 313 313 313 312 312 311 311 311 308 312 310 311 311 307 304 300 307 310 304 303 301 303 304 310 304 306 307 308 306 307 299 297 298 298 301 303 299 296 296 297 297 296 295 294 293 292
310 310 310 310 311 311 310 312 312 311 311 310 310 308 304 307 307 308 309 304 302 300 303 302 301 307 307 303 304 304 302 307 312 306 305 307 306 296 297 298 298 298 298 301 302 298 298 297 295 295 295 293 293 293
308 308 309 310 311 311 311 311 311 311 310 309 303 304 307 307 307 300 303 304 303 304 303 302 303 306 302 308 305 300 306 304 310 307 309 306 305 297 297 298 298 297 297 297 296 295 295 294 295 294 294 293 294 295
305 307 308 309 309 310 310 310 310 309 307 307 306 305 305 302 301 306 305 303 303 306 302 304 303 304 301 299 304 303 304 303 307 302 306 306 297 298 298 298 298 297 297 296 296 296 295 295 295 295 295 294 293 292
301 303 304 307 309 309 309 309 309 308 307 307 303 300 304 300 306 303 309 306 307 301 300 300 303 300 301 301 302 304 307 308 302 307 308 302 298 299 298 297 297 296 295 295 295 295 294 294 293 292 290 290 290 290
300 300 301 302 303 306 308 308 307 306 306 298 300 302 300 305 303 302 304 303 298 298 299 299 300 302 299 303 302 308 303 304 308 308 303 300 299 294 293 292 292 291 288 290 290 290 289 289 289 290 290 290 290 290
297 298 300 299 300 302 305 306 306 305 298 298 299 301 299 296 297 296 296 297 296 296 297 300 300 301 302 303 300 302 303 302 301 300 300 296 294 293 295 293 291 291 288 290 290 290 289 289 289 289 289 289 289 289
297 297 296 297 299 299 299 301 301 298 295 297 296 298 297 299 299 298 298 298 296 295 296 298 301 302 301 301 299 301 302 300 300 299 297 294 293 295 295 295 292 292 290 290 290 290 289 289 288 288 288 287 286 285
296 295 296 297 298 298 298 298 296 294 296 297 297 295 297 298 298 297 296 296 295 297 300 297 299 299 297 299 300 299 298 298 299 297 296 295 295 294 294 294 292 290 290 289 289 288 287 286 285 284 284 284 283 283
293 294 295 297 298 298 297 296 293 295 296 295 297 295 294 294 296 295 294 293 296 297 296 298 297 297 297 297 298 296 296 295 295 295 294 293 292 292 292 290 289 289 288 286 285 285 284 283 282 282 281 280 280 281
293 295 296 297 297 297 293 293 292 295 295 293 293 292 292 293 291 292 292 292 290 289 292 291 292 296 296 293 294 296 295 293 295 292 289 288 288 288 287 287 286 285 284 283 282 282 281 280 279 278 277 277 278 278
294 295 296 296 297 295 292 290 293 294 295 294 292 292 292 292 291 292 293 292 290 290 292 292 293 291 291 290 290 293 292 290 290 289 287 286 285 284 283 283 282 281 280 280 278 276 277 277 276 275 274 273 274 274
293 293 295 295 295 293 289 291 293 293 293 293 292 292 292 291 292 292 292 290 288 289 292 291 290 288 287 287 286 287 287 289 287 288 287 285 283 281 280 279 279 277 276 275 275 274 273 273 272 271 271 270 270 271
291 292 293 293 289 289 289 290 292 291 293 293 292 292 292 292 292 292 290 289 289 290 290 291 292 290 288 286 285 284 284 284 283 283 282 282 282 280 277 275 275 274 273 272 272 272 271 270 269 269 268 268 269 269
292 292 290 288 287 287 290 290 288 292 294 293 292 291 292 292 291 288 291 291 290 288 288 288 286 285 284 283 282 281 281 281 281 280 279 278 278 277 274 273 271 271 271 270 269 268 268 268 267 267 267 267 267 267
290 287 285 287 284 289 282 287 288 287 292 292 291 289 291 290 288 288 290 290 289 287 288 286 285 284 282 281 280 280 280 279 277 276 277 277 276 274 273 272 270 268 268 267 267 267 267 267 267 266 266 266 266 265
284 286 283 288 285 281 282 282 284 290 284 286 287 285 285 283 286 287 286 287 284 283 283 285 285 284 282 280 278 277 277 278 277 275 273 273 272 271 271 269 269 267 266 266 265 265 266 266 265 265 266 265 264 265
286 285 283 283 286 283 282 282 284 282 281 284 286 285 282 286 287 287 285 283 283 282 281 282 282 280 279 279 277 276 274 275 275 273 271 270 270 269 268 267 267 267 266 265 264 264 264 265 264 264 265 265 265 265
285 284 284 286 288 288 281 282 285 284 283 285 286 286 287 289 285 283 282 279 280 277 277 278 279 278 276 274 272 273 273 274 274 272 270 269 269 268 267 266 265 265 265 265 264 264 264 264 264 264 264 265 265 264
288 282 284 281 281 284 284 282 284 287 287 288 287 286 288 285 283 278 278 276 275 275 275 274 274 273 272 271 271 272 271 271 271 270 269 268 268 267 267 266 265 265 264 264 264 264 264 264 263 263 263 263 264 263
283 281 280 279 279 281 281 282 283 286 286 287 287 284 279 275 272 273 274 275 275 275 273 271 271 271 271 271 270 270 270 270 270 265 264 265 265 266 266 265 265 264 264 264 264 263 263 263 263 263 263 263 262 262
283 281 281 278 280 285 284 282 282 281 280 280 278 277 275 272 270 272 273 273 273 271 271 271 271 271 270 270 269 268 268 268 267 267 265 264 265 265 265 265 264 264 263 263 263 263 263 263 263 263 262 262 261 261
280 284 286 285 284 280 278 278 285 285 280 277 274 274 273 271 270 270 270 270 270 270 270 270 269 269 269 268 268 267 267 266 266 265 265 265 265 265 264 264 264 263 263 262 262 262 262 262 261 261 261 260 260 259
282 282 283 281 279 274 273 278 273 278 280 279 271 270 266 268 266 269 270 270 269 269 268 268 268 268 268 267 267 266 266 265 265 265 265 265 265 264 264 264 263 263 262 262 262 261 261 261 260 260 259 259 259 258
274 270 275 274 276 275 269 267 266 269 273 272 269 265 266 268 268 268 269 269 269 268 268 268 267 267 267 266 266 266 265 265 264 265 265 264 264 264 264 263 263 263 262 262 261 261 260 260 260 259 259 258 258 257

GFSWCAN_925_thetae_036.txt.gz
Theta_e
300 300 300 303 304 305 306 307 309 307 308 309 311 312 314 312 315 321 319 316 323 324 321 320 319 321 320 324 327 319 320 319 320 329 331 324 329 317 317 315 319 321 324 325 317 327 326 311 314 319 317 316 313 315
305 306 308 308 308 308 308 307 307 309 310 311 313 314 315 312 314 320 320 316 318 322 321 316 315 316 317 317 322 319 324 321 323 326 323 320 322 314 320 324 314 320 319 320 318 319 313 312 316 315 314 315 315 315
308 308 308 307 306 308 310 311 311 313 313 314 314 315 314 313 317 319 319 317 319 322 320 322 320 316 316 316 315 322 318 319 318 316 320 320 322 319 322 321 318 315 312 317 315 314 314 313 313 312 312 313 313 313
306 307 309 310 311 311 312 312 313 314 315 315 315 315 314 314 317 319 318 316 318 319 318 321 314 315 312 316 317 315 317 312 312 315 321 316 324 313 319 316 318 315 313 315 316 315 313 313 312 312 313 314 313 313
310 311 311 312 312 312 315 316 317 318 318 318 316 315 314 315 318 316 314 312 314 319 318 321 314 312 313 314 314 314 315 317 319 320 317 324 314 315 311 313 317 312 315 317 318 312 313 314 313 312 313 314 313 313
311 311 311 312 312 314 315 316 317 318 319 319 316 315 315 317 315 316 320 313 312 313 323 321 312 313 313 314 314 315 316 317 318 320 313 313 309 316 318 320 313 312 312 312 315 313 314 313 312 311 310 308 307 306
311 311 311 312 312 313 315 316 316 316 318 318 316 317 318 317 315 315 316 312 310 310 319 316 319 311 310 313 310 315 314 316 318 314 310 312 312 315 313 322 308 307 308 310 310 312 314 309 307 303 301 300 299 298
311 311 311 312 311 312 312 315 314 314 313 314 314 313 312 312 313 315 310 310 307 311 316 317 315 318 309 313 313 308 313 316 312 310 310 312 310 312 316 304 304 305 306 309 304 308 306 302 301 300 298 296 295 295
311 311 311 311 312 313 312 312 312 312 310 311 311 311 311 312 317 314 309 309 308 313 317 309 320 319 308 307 307 310 312 313 309 312 312 314 310 311 301 301 302 302 303 304 302 303 301 300 298 296 295 295 295 295
310 311 311 311 311 311 312 312 312 311 310 309 309 312 313 309 308 308 310 315 313 310 308 306 306 310 310 310 309 310 309 312 314 311 308 312 302 299 299 299 299 300 302 301 302 300 298 297 297 297 297 296 296 297
310 310 311 311 310 310 311 310 311 310 309 310 313 311 308 307 309 310 311 313 312 312 308 306 309 310 306 311 309 306 311 309 314 312 314 311 305 299 299 299 299 299 299 299 299 298 298 298 297 297 297 296 296 296
309 310 310 310 310 310 309 310 310 310 307 309 310 306 306 308 311 310 309 308 311 311 306 309 307 307 305 306 308 307 308 307 310 306 312 310 301 300 299 299 299 298 298 298 298 297 297 297 297 296 295 294 293 291
305 307 307 308 308 309 310 310 309 308 307 307 308 306 312 307 314 318 314 312 311 304 303 304 307 306 304 307 306 308 309 311 306 309 310 304 300 298 299 298 298 297 296 296 295 295 294 293 292 291 292 291 290 291
302 303 305 305 305 306 308 309 309 310 309 303 307 309 309 312 308 307 308 307 300 300 302 305 304 306 304 307 305 312 305 306 310 310 308 301 301 298 297 297 296 294 291 293 293 292 291 291 291 289 289 289 289 289
301 301 303 302 304 305 306 305 305 305 300 302 304 306 303 299 299 298 297 299 298 297 301 304 303 306 304 306 304 307 308 310 308 308 303 300 297 297 296 294 294 293 292 293 293 291 289 289 291 290 289 288 286 286
298 301 298 299 300 305 304 305 303 298 297 299 300 301 299 301 300 299 298 298 297 298 298 301 304 309 305 306 307 308 310 308 304 301 298 295 297 297 295 295 295 293 292 292 292 291 290 288 288 288 287 284 283 284
297 295 297 297 297 298 299 298 297 295 298 299 300 297 299 299 299 298 297 297 295 299 303 305 307 305 302 305 305 304 305 303 300 298 296 297 297 297 294 294 291 292 292 291 290 287 286 285 284 284 284 282 282 282
294 295 296 298 298 297 295 295 297 297 297 297 299 297 296 295 297 297 296 296 300 301 301 302 301 304 305 305 304 300 298 298 298 296 297 297 296 295 295 293 292 291 288 286 286 285 284 283 283 283 281 280 280 280
294 295 296 297 297 297 297 295 296 297 296 296 295 295 296 296 295 294 294 294 294 295 299 300 303 303 303 301 299 297 298 298 296 292 291 292 292 292 291 289 288 287 285 284 283 283 282 280 279 279 278 277 277 278
294 295 296 296 296 295 296 296 295 297 297 295 294 294 294 295 294 295 295 296 296 298 299 300 299 296 297 295 294 297 297 298 295 293 290 290 288 288 287 287 285 284 283 282 280 279 279 279 277 276 275 274 275 275
293 294 295 295 294 293 293 295 295 295 295 295 293 293 294 294 295 295 295 295 298 294 296 294 292 290 289 290 291 293 293 294 294 294 291 289 286 285 283 282 281 280 280 280 279 278 276 276 274 273 273 273 272 273
292 293 293 293 293 293 295 292 295 294 295 295 294 294 294 295 295 294 292 296 294 292 292 293 292 291 289 288 287 288 288 287 286 285 285 284 284 283 281 280 280 279 277 276 275 275 274 272 271 271 271 271 271 272
291 291 290 290 293 294 293 292 295 294 295 295 295 294 294 294 293 292 294 293 291 289 289 288 287 287 286 284 284 283 284 285 284 283 283 282 280 279 277 276 275 275 275 273 272 272 271 269 270 269 270 270 270 271
289 287 290 290 291 291 289 292 292 293 295 295 295 294 294 293 292 292 293 292 289 288 288 287 286 285 284 283 283 282 281 281 280 280 280 280 279 277 276 274 273 271 270 270 270 270 269 269 268 268 268 269 269 269
291 288 289 290 289 290 290 290 291 293 293 292 294 293 292 291 291 290 290 288 286 286 286 287 286 285 284 282 281 279 279 280 280 278 276 276 276 275 274 272 271 269 269 269 269 268 268 267 267 267 267 268 267 267
289 288 290 288 290 291 290 292 291 291 291 293 292 290 290 292 291 289 286 284 284 283 282 283 284 282 280 280 280 278 276 276 277 276 273 273 273 273 273 273 272 271 268 267 267 266 266 266 266 266 266 267 267 267
290 289 288 288 289 290 291 289 289 291 292 293 292 292 292 292 289 285 283 280 281 278 277 277 279 279 277 275 274 273 273 273 274 273 271 270 269 269 269 269 269 267 266 265 264 265 265 265 265 265 266 266 267 266
289 289 289 288 290 290 291 291 291 292 292 290 291 291 291 288 286 280 279 277 277 276 275 273 273 273 273 272 272 272 271 271 271 270 269 269 268 267 266 266 265 265 264 263 263 263 263 264 264 265 265 265 264 264
290 289 288 286 288 289 289 290 290 289 288 289 290 287 282 277 275 276 275 275 275 276 275 274 272 271 270 269 269 269 270 271 272 272 272 272 270 269 266 265 265 264 264 263 263 262 263 263 264 263 262 262 262 262
289 287 289 286 288 289 288 288 288 286 283 282 280 278 276 274 272 271 273 273 273 272 270 270 270 272 271 272 270 269 267 267 267 268 270 269 268 266 265 265 264 264 262 262 262 262 262 262 262 262 262 262 262 261
287 289 289 288 288 287 284 281 285 284 282 280 278 279 276 274 271 269 269 269 269 270 271 270 269 268 269 269 269 269 269 266 266 265 265 265 264 264 264 263 263 262 262 261 261 261 261 261 262 261 261 261 260 259
285 284 286 287 287 282 280 283 283 285 283 281 277 275 274 275 274 271 268 269 270 270 268 268 269 269 267 267 266 266 266 265 264 264 265 264 264 263 263 263 263 263 262 261 261 260 260 260 260 260 260 260 259 258
284 283 282 283 284 285 279 279 279 281 280 279 276 274 273 275 273 270 268 268 267 268 267 267 267 267 267 267 266 266 265 265 264 264 264 264 264 264 263 262 262 261 262 261 261 260 260 259 260 259 259 258 257 257

GFSWCAN_925_thetae_039.txt.gz
Theta_e
299 299 298 298 299 299 300 300 300 303 304 306 307 309 310 308 310 310 322 322 325 326 323 324 320 321 325 324 329 324 324 323 325 329 334 330 332 323 322 320 323 324 328 326 327 327 326 314 315 317 320 315 316 316
299 298 298 298 300 300 300 302 304 305 306 308 310 308 308 309 311 312 323 321 324 325 324 321 320 320 321 323 325 323 325 325 326 328 331 331 327 319 327 324 318 323 322 324 321 321 316 314 314 315 315 315 315 315
300 300 300 300 300 300 303 306 308 309 309 307 307 308 310 311 312 314 323 323 323 325 323 324 323 319 318 321 321 326 326 324 325 326 327 329 327 326 326 326 322 319 317 318 317 315 315 314 314 314 315 315 315 315
301 301 302 303 306 308 309 308 308 307 307 309 310 311 313 313 312 315 322 323 323 324 324 324 319 319 317 320 321 321 323 321 322 324 329 320 326 321 326 322 320 319 317 317 317 316 315 314 315 316 315 315 316 316
308 308 308 307 307 307 308 309 310 310 311 311 312 314 314 314 312 316 318 317 319 324 324 323 319 317 318 319 319 319 320 321 322 325 321 328 321 322 319 320 322 316 318 320 320 316 317 317 316 314 315 314 313 314
310 311 311 312 313 313 313 313 313 314 314 314 314 314 314 313 313 317 324 315 315 321 325 327 319 318 318 319 319 321 322 322 324 324 323 320 315 323 324 323 317 314 314 314 317 315 316 314 309 308 307 306 306 305
312 312 313 314 314 314 315 317 317 316 316 315 314 314 313 313 316 319 318 316 315 318 323 323 322 317 316 318 318 321 321 321 323 322 317 321 319 320 318 324 313 311 311 312 311 313 315 308 307 305 303 300 299 297
311 312 312 313 313 313 313 314 317 317 316 315 314 313 315 314 315 316 308 310 312 316 320 320 319 322 316 320 318 316 321 322 317 315 315 316 316 318 323 311 309 309 311 308 308 308 307 305 303 301 300 299 298 296
311 311 310 310 310 309 310 313 314 313 313 313 314 314 315 317 320 314 308 310 310 317 320 311 319 318 313 313 314 315 318 317 314 316 316 316 315 318 309 308 307 306 307 306 305 304 302 301 301 300 299 299 298 297
311 311 312 312 311 311 311 310 309 310 311 312 314 316 320 313 308 310 313 319 318 315 313 311 313 317 315 315 313 314 312 316 317 314 313 317 310 304 303 302 303 303 305 304 303 302 300 301 300 300 300 298 298 298
310 310 310 309 310 310 310 311 310 310 311 316 318 316 311 309 314 315 315 318 317 315 310 310 314 314 310 314 310 311 313 314 316 315 317 314 311 303 301 302 301 302 303 303 302 301 300 300 299 298 298 297 296 295
310 310 310 310 310 310 309 309 309 309 309 311 312 310 311 313 316 314 312 311 314 313 308 310 309 309 308 311 311 311 310 310 314 311 317 315 304 300 300 301 300 300 301 300 300 299 298 298 297 296 295 294 293 293
308 308 308 309 310 310 310 310 310 310 310 312 312 308 315 310 317 315 312 312 312 307 306 309 309 309 308 309 310 310 315 315 309 313 312 307 302 300 300 300 300 299 298 297 296 296 295 293 293 293 293 292 293 293
307 307 306 306 307 309 310 310 310 310 309 310 310 310 310 314 308 307 309 309 301 302 306 308 307 311 308 309 309 312 307 308 311 312 311 304 300 300 300 299 299 296 294 295 294 293 293 293 292 291 290 289 289 289
302 305 306 305 304 305 306 308 310 309 301 303 306 309 305 300 299 299 298 301 299 300 306 306 308 310 308 309 308 308 309 312 312 312 305 301 300 300 299 298 296 294 294 294 294 292 291 292 292 291 289 287 286 285
300 302 301 302 302 302 304 306 303 300 300 300 300 302 300 302 301 300 299 299 298 300 303 308 310 313 309 308 308 314 314 313 307 304 301 299 299 299 297 297 296 294 294 294 294 292 290 289 290 289 286 284 284 284
299 297 297 298 299 299 302 300 297 297 300 303 300 297 300 299 299 298 297 297 296 301 306 306 313 308 305 308 308 308 309 305 300 299 298 298 297 298 297 295 293 294 294 293 291 290 288 287 286 285 285 284 282 283
296 296 297 298 298 298 296 297 298 299 300 300 300 298 297 296 298 297 297 298 300 301 304 306 304 307 310 309 307 302 300 299 297 297 297 297 295 295 296 295 294 293 290 290 288 287 285 285 286 285 283 281 281 281
294 295 296 297 297 298 297 296 298 299 299 298 298 297 298 297 296 296 298 298 299 300 302 303 307 307 305 302 301 299 298 297 297 295 295 295 294 295 294 292 291 290 288 287 287 286 284 282 281 281 280 279 279 279
295 295 295 296 298 297 297 297 297 298 299 296 297 297 297 297 296 297 299 299 300 301 300 300 298 296 296 295 295 299 299 297 296 295 293 293 292 292 291 291 289 287 285 284 282 282 283 282 280 278 277 277 277 277
294 294 295 297 296 296 296 297 297 297 297 296 295 296 297 297 297 297 298 298 297 295 297 294 293 292 292 293 295 296 296 296 296 296 294 292 290 289 287 285 285 285 285 284 283 281 280 279 277 276 276 276 275 275
292 293 294 294 296 296 296 295 297 296 297 296 296 296 297 297 297 295 295 296 294 293 292 294 293 292 292 292 292 291 290 290 289 289 288 288 288 287 285 284 284 283 281 279 279 278 278 275 274 273 274 274 274 274
292 293 293 294 296 297 294 295 297 296 297 296 296 295 295 296 295 295 295 294 292 291 290 289 289 289 288 287 287 287 288 289 288 287 286 285 284 282 281 280 280 280 279 276 275 275 275 272 273 272 273 273 273 273
290 291 292 293 295 294 293 294 295 294 296 296 296 295 294 294 293 294 295 291 289 288 290 289 288 288 287 285 285 284 284 285 284 284 284 283 282 280 279 277 276 274 274 274 274 274 273 273 271 272 271 271 272 271
293 291 293 293 293 294 294 294 295 295 295 295 295 295 293 293 293 292 292 289 287 287 288 287 287 287 286 285 283 280 280 282 282 280 279 280 279 278 276 275 274 272 272 273 273 272 272 271 271 270 269 270 270 270
292 290 292 292 293 294 294 295 293 293 294 295 293 292 292 294 293 291 288 286 285 284 283 284 286 285 282 281 281 279 278 279 279 278 276 276 277 277 277 276 276 274 271 270 270 270 270 269 269 268 269 269 270 269
292 291 291 289 290 291 293 292 292 293 293 294 293 293 294 294 291 287 284 281 282 279 279 279 280 280 280 278 276 275 275 275 275 275 273 272 272 272 272 273 272 270 268 268 267 268 268 268 268 268 268 269 269 268
290 290 291 291 292 292 292 292 293 292 292 291 293 292 292 290 287 282 281 279 278 278 277 276 275 275 275 275 275 275 274 273 272 273 272 272 271 270 269 269 268 266 266 267 266 265 266 266 267 267 268 268 267 267
290 290 290 289 291 291 290 291 291 289 288 290 292 289 284 279 277 278 277 277 278 278 278 277 275 275 274 273 272 272 273 273 274 274 274 275 274 272 269 268 268 268 267 267 266 266 265 265 265 265 265 265 265 265
290 290 291 290 290 290 289 288 289 286 285 284 283 281 279 276 274 274 275 275 275 274 274 274 274 274 274 275 273 272 270 269 268 270 272 272 270 268 268 268 267 267 266 266 266 265 265 265 265 266 266 265 265 264
289 291 290 290 289 288 286 286 287 285 284 283 281 282 280 276 274 272 272 272 273 273 274 274 272 272 272 271 272 272 272 269 266 266 265 266 266 267 267 267 266 266 265 265 265 265 265 264 265 265 265 265 264 263
288 287 288 288 289 285 285 286 286 287 286 284 281 279 278 279 277 273 270 272 273 272 270 272 272 271 269 269 268 268 267 266 267 265 265 265 265 266 265 265 265 265 265 264 264 264 264 264 264 264 264 263 263 261
286 286 286 286 287 287 285 285 284 284 283 282 279 279 277 278 275 272 269 269 269 269 269 269 269 268 267 267 267 266 267 266 265 264 263 263 263 263 263 263 264 264 264 264 264 264 264 263 263 263 262 261 261 260

GFSWCAN_925_thetae_042.txt.gz
Theta_e
299 299 299 298 298 298 298 299 300 299 299 299 300 300 300 301 302 301 308 309 314 325 325 324 323 324 325 320 326 326 328 326 334 334 339 336 332 330 327 323 325 326 330 327 331 327 326 315 315 319 321 318 317 316
300 299 299 299 299 299 299 300 299 299 299 300 300 300 301 301 301 304 309 310 313 323 327 323 322 322 324 325 328 327 329 327 328 332 333 337 326 322 330 330 320 327 325 330 326 327 319 315 315 316 317 316 317 317
299 299 299 299 299 299 299 298 299 300 300 300 300 301 303 303 305 306 309 312 324 326 325 325 325 321 321 323 324 328 333 325 328 330 332 333 323 331 326 332 328 320 319 324 321 316 316 315 315 317 316 317 316 316
299 299 299 299 299 298 299 298 298 299 301 302 301 304 306 306 307 309 309 315 325 325 322 325 321 320 320 322 323 326 328 327 329 331 335 320 325 326 333 328 328 321 319 318 318 318 316 318 318 316 316 316 315 315
299 298 298 299 298 298 299 299 302 303 305 306 307 308 307 308 308 309 311 316 319 326 324 324 320 320 320 321 321 324 326 328 329 328 317 332 326 328 326 326 330 318 319 325 326 318 319 317 312 312 311 310 309 310
299 299 299 299 300 300 303 306 308 308 308 307 307 308 309 309 310 312 320 318 321 322 326 325 319 321 320 321 321 323 325 327 327 327 328 323 319 328 325 329 319 317 316 316 319 316 316 311 308 307 306 305 304 303
305 305 306 307 307 307 307 307 307 307 308 309 310 311 313 313 313 316 319 315 319 322 324 321 322 318 320 320 321 323 324 325 326 324 322 324 321 323 320 330 317 313 313 314 312 314 311 310 307 304 302 300 299 299
306 306 306 307 308 309 310 310 310 310 311 311 312 313 314 314 314 315 310 312 315 319 323 320 315 322 318 323 320 319 325 323 320 317 317 321 319 324 327 315 313 311 311 310 309 309 307 305 303 302 301 299 299 298
309 309 309 308 308 311 312 314 313 313 313 313 313 314 315 315 320 313 312 316 313 317 322 312 320 320 316 316 315 317 320 318 316 318 318 319 316 320 316 312 310 309 310 308 306 305 304 303 302 301 300 299 299 298
309 310 311 309 311 310 309 310 313 313 313 313 314 316 317 316 310 310 315 318 320 318 314 313 316 319 316 316 315 315 313 317 320 315 314 318 311 307 306 306 306 307 306 305 304 303 302 301 301 300 299 299 297 297
309 309 309 310 309 310 311 311 312 313 315 317 320 316 312 311 314 316 318 319 317 317 311 313 315 316 313 315 313 313 314 316 317 316 316 314 313 306 303 304 304 305 305 304 303 302 301 300 299 299 298 296 294 294
309 309 310 309 309 309 309 310 312 312 313 315 314 312 313 316 315 312 310 312 316 314 308 312 313 311 311 313 312 313 310 312 316 313 317 316 306 303 303 303 303 303 302 301 300 300 299 298 297 296 295 294 293 292
307 308 309 309 310 310 310 310 310 312 313 313 312 308 316 310 315 317 314 313 310 307 306 310 309 310 309 310 310 309 311 315 313 314 313 309 302 302 302 301 301 300 300 299 298 296 295 294 294 293 292 292 293 291
305 306 306 307 307 309 309 310 310 310 309 310 310 309 312 310 308 306 308 306 301 301 306 307 308 309 309 308 310 311 308 309 312 314 313 304 301 301 301 301 299 297 295 296 295 294 293 292 291 290 289 288 287 287
305 306 306 305 304 305 308 310 310 308 302 304 306 307 304 300 299 299 298 300 299 301 306 309 309 310 308 309 310 307 310 312 312 313 307 301 300 301 300 298 295 295 294 294 293 292 292 292 292 289 286 286 285 283
302 302 298 299 304 305 305 307 304 301 300 300 300 302 300 302 301 299 299 299 298 301 306 310 311 310 309 309 309 313 313 314 308 304 300 300 300 300 299 296 295 295 296 294 293 291 290 290 290 288 285 283 284 283
300 297 298 298 298 303 305 301 299 299 299 300 300 296 299 299 299 298 297 297 297 302 306 309 312 309 306 309 309 307 307 304 301 299 298 299 298 298 297 295 295 295 295 293 292 291 289 287 286 286 285 283 283 283
298 297 298 298 299 299 298 297 299 301 299 299 300 298 297 295 297 297 296 297 300 301 303 305 306 308 310 310 307 302 299 297 297 297 296 297 297 296 295 295 295 293 292 290 288 287 286 287 286 285 283 281 282 282
295 296 297 297 299 299 298 298 299 300 299 298 297 297 297 296 296 296 297 298 299 300 301 303 305 305 302 300 301 298 297 297 296 295 294 294 294 295 294 292 292 291 290 289 288 287 284 283 282 281 280 280 280 280
296 296 297 297 299 298 298 298 298 299 299 298 298 298 298 298 297 296 298 299 299 300 298 298 296 294 295 295 295 298 297 295 295 295 294 292 292 292 292 291 289 287 285 284 283 284 284 283 280 279 278 278 278 277
294 295 297 298 297 297 297 298 297 298 297 297 296 298 298 298 297 298 298 298 297 295 296 294 293 293 292 292 292 294 295 297 297 296 294 293 291 290 288 288 287 287 286 285 284 282 281 279 278 277 277 277 275 276
294 295 295 295 297 296 297 297 298 297 297 297 297 297 298 298 297 297 297 295 293 293 292 292 293 292 291 291 291 291 291 291 291 290 290 290 289 288 287 286 285 284 282 281 280 280 279 276 275 274 275 275 275 275
294 295 295 296 296 296 295 296 297 297 297 296 297 296 296 296 295 296 295 293 291 291 290 289 289 289 288 287 287 287 289 289 288 288 287 286 284 283 282 282 282 282 279 277 277 277 276 275 275 273 274 273 273 274
290 292 293 295 296 294 294 295 296 295 296 297 296 295 294 295 295 296 293 290 289 289 289 289 290 288 287 285 284 283 286 286 285 285 285 284 282 281 279 278 276 275 276 276 276 275 275 274 273 273 272 271 272 272
294 292 294 294 295 296 295 294 295 295 295 296 296 295 294 295 294 293 292 290 287 286 286 287 286 287 286 284 282 281 281 282 282 281 281 281 280 279 277 276 274 274 274 274 274 273 273 272 272 271 270 270 271 271
292 291 292 292 292 294 294 294 293 294 295 295 293 292 294 295 293 291 288 286 283 282 282 283 286 283 281 280 280 279 278 279 279 277 276 276 277 279 278 278 277 273 272 271 271 270 271 270 270 269 270 270 270 270
292 292 291 291 292 293 293 293 294 295 294 295 294 295 295 295 291 287 283 281 281 279 279 279 280 280 279 278 277 276 275 275 276 275 274 273 273 273 273 273 272 270 269 269 268 268 268 268 268 268 269 269 269 269
291 290 291 292 292 293 293 294 293 293 292 291 294 292 291 288 285 282 281 280 280 278 277 277 276 276 276 276 276 276 276 275 274 274 274 273 273 272 271 271 269 268 268 268 267 267 267 267 267 267 267 267 267 267
291 291 292 290 291 291 291 292 291 289 287 289 292 288 284 279 278 279 279 279 279 279 278 278 277 276 275 274 273 273 272 272 274 275 275 276 275 272 270 269 269 269 269 268 268 267 267 266 266 266 266 266 266 266
290 291 291 291 291 291 289 289 288 286 284 285 283 280 278 276 275 275 276 276 276 276 275 275 275 275 275 276 274 272 270 269 268 269 271 271 270 269 269 269 269 268 268 267 267 267 266 266 266 266 267 267 267 266
289 291 291 291 290 287 286 286 287 285 284 283 282 282 278 276 274 273 273 274 274 274 275 274 273 272 272 271 271 272 272 269 268 267 266 266 267 268 268 267 267 267 267 266 266 266 266 266 266 266 266 266 265 265
288 287 289 289 289 286 286 286 287 288 287 285 282 281 280 281 277 273 271 273 273 273 272 272 272 271 269 269 269 270 268 268 268 266 265 265 264 265 265 265 265 265 266 266 265 265 265 265 265 265 265 265 264 262
288 288 287 288 288 288 286 286 286 285 284 282 280 280 278 277 275 273 271 270 270 270 270 270 270 269 269 269 268 268 268 268 266 266 266 265 264 263 262 263 263 263 264 264 264 264 265 265 265 264 263 262 262 261

GFSWCAN_925_thetae_045.txt.gz
Theta_e
298 298 297 297 297 297 297 297 296 299 298 298 298 298 299 300 300 301 302 304 305 312 316 319 317 319 322 320 319 323 323 323 323 321 319 316 316 317 320 324 319 316 317 311 316 319 320 313 314 314 316 313 313 313
299 298 298 297 297 297 298 297 297 298 299 298 299 299 298 300 301 300 302 303 304 310 315 317 321 322 320 318 322 321 325 324 325 324 320 315 322 313 317 317 320 320 321 318 318 317 317 312 315 314 314 314 314 314
299 299 298 297 298 298 298 298 299 299 299 299 298 297 298 300 300 301 302 305 307 311 310 313 322 322 320 320 320 321 322 324 326 324 321 319 318 314 313 315 318 319 318 318 314 317 314 317 315 315 314 314 311 309
299 299 298 298 298 298 298 298 298 299 298 299 299 300 300 300 301 302 303 305 309 309 305 319 321 320 323 322 319 323 326 326 324 322 313 311 315 320 313 317 317 317 315 317 315 317 316 313 313 312 310 309 305 303
299 299 299 299 298 298 298 298 298 298 300 300 300 300 300 301 301 302 304 306 308 310 318 321 319 320 322 323 323 325 324 322 320 312 308 316 318 315 313 312 313 316 317 312 314 315 314 310 307 306 305 305 304 302
299 298 298 298 297 297 297 297 299 298 298 298 299 301 301 303 305 306 310 307 308 312 318 317 317 319 321 321 323 323 322 322 321 315 312 316 317 313 310 309 316 314 313 314 316 311 308 305 303 302 302 301 300 299
298 299 299 299 299 298 297 296 297 299 300 300 302 303 304 307 308 310 315 315 313 310 316 314 316 317 318 319 316 319 320 318 319 316 313 314 315 314 309 312 314 313 311 311 310 308 307 305 303 300 299 299 298 297
300 298 298 299 299 298 299 300 302 303 302 304 305 307 308 308 309 310 311 312 312 319 313 313 312 315 316 316 312 314 318 315 313 314 312 308 310 304 310 312 311 311 309 307 306 306 304 302 300 299 298 297 297 296
305 306 305 305 305 305 306 306 305 306 306 309 311 311 309 309 314 315 314 316 314 317 310 307 314 316 313 312 310 311 311 313 313 309 313 309 311 313 313 310 309 309 307 305 304 303 302 301 300 298 298 297 296 295
306 306 308 309 309 307 307 308 309 309 309 309 312 314 309 313 310 313 316 311 310 309 307 309 310 313 313 307 308 308 304 309 312 310 310 310 307 305 304 305 306 306 304 302 302 302 301 301 300 299 298 297 295 294
308 308 307 307 308 308 306 308 309 312 313 313 313 310 311 312 314 307 305 307 308 306 305 308 311 313 310 309 309 305 308 306 308 308 308 309 309 305 304 304 303 305 304 303 302 301 300 298 298 297 295 293 291 290
309 309 309 309 308 308 310 310 312 313 315 314 312 312 312 311 307 305 306 306 306 307 305 308 308 310 306 309 306 306 309 303 310 309 310 309 305 302 303 302 303 302 301 300 300 299 299 298 295 294 293 291 289 287
309 309 309 310 311 311 312 312 311 312 312 310 307 304 310 304 308 307 306 310 308 303 304 304 306 304 304 304 305 307 310 305 304 310 310 305 303 302 302 301 301 300 298 297 295 294 293 292 292 291 290 289 287 284
304 308 310 307 309 308 309 310 310 310 308 305 304 307 306 308 304 302 304 304 299 299 302 304 304 304 302 305 304 309 306 307 310 310 306 302 302 301 301 299 299 297 294 294 293 291 290 289 288 287 286 286 285 283
302 304 306 308 309 309 309 309 309 306 300 300 301 304 301 299 299 298 297 299 297 299 302 304 304 304 304 306 305 305 307 309 306 305 304 301 301 300 298 295 294 293 292 293 292 291 290 288 286 285 284 283 282 281
300 302 299 301 305 307 309 309 306 299 296 298 298 302 300 301 301 299 298 299 297 297 299 300 304 306 307 305 308 309 305 306 305 301 300 300 300 297 295 294 294 294 292 292 291 290 289 287 285 283 284 283 281 281
298 296 298 300 302 303 304 301 299 297 296 298 298 296 297 298 297 297 296 297 296 299 304 303 307 306 303 307 306 303 303 301 299 299 299 298 297 294 293 294 293 293 292 290 290 288 286 286 285 283 282 282 282 280
296 297 298 299 301 301 299 299 297 297 298 297 297 296 296 295 297 296 295 296 298 299 300 303 302 306 305 306 303 299 297 296 295 296 296 296 295 294 295 294 293 291 289 288 288 287 286 285 283 282 280 281 281 279
297 297 298 299 298 298 296 297 298 297 297 296 295 294 295 294 294 295 296 296 297 297 298 299 298 299 298 296 298 297 296 295 295 294 294 294 294 293 292 291 290 289 288 287 285 283 282 281 280 279 279 279 279 277
295 296 297 297 297 296 296 296 298 297 298 296 295 296 295 295 294 295 295 295 296 296 294 294 294 293 294 293 294 294 294 293 293 293 292 292 291 291 290 288 285 284 283 283 283 283 280 279 278 278 278 277 276 276
293 294 295 296 296 297 294 295 296 297 296 296 295 296 296 295 296 295 294 293 292 293 294 293 291 290 291 291 291 292 294 294 293 293 292 291 288 288 287 287 286 285 284 282 281 279 277 276 276 276 276 275 275 275
294 295 294 294 294 294 293 294 295 295 296 296 295 295 296 296 295 294 292 291 291 291 290 290 290 289 287 287 288 289 290 290 290 289 289 288 287 286 286 284 282 280 279 279 279 277 275 275 274 274 274 274 273 274
292 293 293 294 289 290 290 294 292 295 294 295 295 295 295 295 293 293 291 290 290 289 289 288 287 286 285 284 285 286 286 286 286 285 284 283 281 280 279 278 279 278 277 277 276 276 275 274 273 273 273 272 272 272
292 291 288 289 290 293 289 289 293 293 293 295 293 293 292 292 292 289 289 288 285 284 285 286 288 286 283 282 282 282 284 282 282 283 282 281 279 278 276 276 275 276 276 275 274 274 273 272 272 272 271 270 271 270
287 288 288 286 288 290 289 294 293 291 290 291 291 290 292 291 290 289 289 286 282 281 281 284 281 282 282 281 280 279 279 280 279 277 277 279 278 276 275 274 273 272 273 272 271 271 271 270 270 269 269 270 270 270
291 290 290 291 291 292 293 293 292 290 289 287 292 292 290 290 285 286 285 282 279 279 279 280 281 279 278 277 277 276 276 278 277 276 274 275 275 277 277 274 272 270 270 269 269 269 268 268 268 268 268 268 269 269
291 292 291 290 292 292 290 291 291 287 286 289 290 289 293 287 283 284 281 280 279 278 277 277 278 278 277 277 276 275 274 275 274 274 273 272 272 272 272 270 269 268 269 268 268 267 267 267 267 266 266 267 267 266
290 291 292 292 291 291 291 291 290 289 289 288 290 283 284 281 280 280 280 280 278 277 276 275 275 275 274 274 273 273 274 274 274 273 272 271 271 270 270 270 269 269 269 268 268 267 267 267 266 266 266 266 266 265
290 291 287 285 290 289 288 289 289 287 285 287 284 282 279 278 276 277 277 276 276 276 275 276 276 274 273 272 271 270 270 272 272 267 267 268 271 269 268 269 269 268 268 267 267 267 267 267 267 266 266 266 266 266
289 289 290 289 289 288 287 287 283 282 283 282 279 277 276 275 273 274 274 274 275 274 274 273 272 272 271 272 270 269 269 268 268 268 263 262 266 267 268 268 267 267 267 267 266 266 266 265 265 265 265 265 265 265
288 287 286 285 283 286 285 286 285 284 280 276 278 273 273 272 273 272 272 273 273 273 272 271 270 270 270 269 269 269 268 268 267 267 266 266 266 265 265 265 265 265 265 266 266 265 265 265 265 265 265 265 264 263
285 285 282 283 284 284 286 284 282 286 283 279 277 273 273 274 270 271 270 271 271 270 270 270 270 269 269 268 268 268 268 268 267 266 266 265 265 264 264 264 263 263 264 264 264 264 264 264 264 265 264 263 263 262
284 282 281 280 282 284 280 280 283 278 277 277 277 275 271 271 270 271 270 270 269 269 268 269 269 269 269 268 267 267 267 266 266 265 265 264 264 264 263 263 263 263 262 262 261 261 262 262 263 264 263 262 262 261

GFSWCAN_925_thetae_048.txt.gz
Theta_e
297 297 296 296 296 296 297 297 297 297 296 297 297 297 297 298 302 303 302 302 303 307 310 314 315 313 314 316 319 319 321 320 317 316 318 315 311 316 317 318 315 315 314 309 311 310 314 315 313 313 310 312 311 311
297 297 297 297 296 297 297 297 297 297 297 297 298 299 300 303 302 302 302 302 302 306 310 309 310 310 312 314 318 317 319 321 321 321 317 314 318 310 315 319 318 318 313 314 315 314 314 314 314 312 312 313 313 312
297 297 296 296 296 297 296 296 296 296 298 297 298 301 302 302 302 301 303 303 303 305 309 311 313 317 319 320 320 319 317 321 322 320 319 317 316 311 315 312 317 317 318 318 314 316 316 314 313 311 309 306 305 306
298 297 297 296 297 297 297 296 297 298 297 298 298 298 298 300 300 300 301 304 304 309 307 311 315 319 321 319 320 319 318 320 319 317 313 312 313 315 310 316 314 315 314 314 316 314 313 311 309 306 304 303 302 301
298 297 297 297 297 297 297 297 298 298 298 298 298 298 299 300 301 300 300 304 308 310 311 310 315 320 322 321 322 325 319 319 314 310 309 316 314 314 310 310 310 314 313 312 312 314 311 308 305 305 304 303 301 299
298 298 297 297 297 297 297 297 298 298 298 297 298 298 299 300 300 302 303 302 305 306 310 311 314 318 320 321 321 321 321 320 319 315 312 315 315 310 310 308 314 313 312 312 313 308 305 303 301 301 300 299 298 297
298 298 298 298 298 297 297 297 298 298 297 298 299 299 300 300 301 304 305 308 303 306 309 311 314 317 318 317 315 319 317 314 318 315 312 312 315 311 305 311 313 311 308 307 305 304 304 303 301 299 298 297 296 295
298 298 298 298 298 298 298 298 299 299 299 298 298 299 300 300 301 304 306 311 308 308 309 312 314 314 315 314 316 314 314 312 313 313 309 305 309 301 309 311 310 307 307 306 304 304 302 299 298 297 296 296 295 295
297 297 297 297 297 297 297 298 297 298 297 298 299 302 304 304 307 305 308 307 309 311 311 306 314 316 311 310 308 308 308 311 310 309 309 310 307 308 310 310 307 306 305 303 301 300 299 298 297 297 296 295 294 292
300 298 298 298 297 297 298 299 299 300 300 301 303 307 306 307 307 307 307 310 310 307 305 307 308 313 311 305 307 308 305 309 312 310 309 306 307 304 304 304 304 303 302 301 300 299 298 298 297 296 295 294 292 291
306 306 304 303 302 301 300 300 302 303 303 306 310 308 311 310 309 309 307 306 306 304 303 307 309 312 309 309 308 302 307 302 311 311 309 310 308 305 304 304 304 303 302 301 300 299 299 298 297 295 293 291 289 288
305 305 306 306 305 305 305 305 305 307 310 311 311 311 309 308 304 306 305 303 306 307 305 307 308 309 305 306 305 305 308 302 310 308 311 309 305 304 306 304 304 302 301 300 299 299 297 296 294 292 290 288 287 286
308 307 307 307 307 307 308 310 311 311 312 311 305 303 308 301 307 301 305 307 306 303 303 303 306 303 304 304 304 306 304 305 302 308 304 305 303 302 302 301 300 298 297 296 295 294 293 292 291 289 286 285 285 284
309 308 309 310 310 310 311 311 310 310 308 302 301 304 304 305 302 302 303 303 299 299 302 301 303 305 300 306 304 310 307 307 305 307 305 303 302 301 300 298 296 295 293 293 292 291 289 288 287 287 285 284 283 281
302 306 306 303 303 304 306 310 308 305 298 298 300 303 300 299 299 298 297 299 297 298 300 303 302 304 304 305 304 305 307 308 302 303 303 301 300 299 296 295 293 292 291 291 290 288 287 286 285 284 283 282 282 281
303 304 301 300 303 307 308 307 303 299 296 296 297 301 299 301 300 298 298 299 298 297 297 299 303 304 305 305 306 306 304 308 305 301 300 300 297 295 294 294 293 292 291 290 289 287 286 285 284 283 282 281 281 281
300 298 299 301 303 302 305 302 297 295 297 296 297 296 297 298 298 297 296 297 296 299 304 301 306 305 302 306 304 302 302 300 299 298 298 296 295 294 293 292 292 291 290 290 289 287 285 283 283 283 282 280 280 280
297 298 298 300 303 300 299 298 295 296 297 296 296 296 296 295 296 296 295 296 297 299 300 302 301 300 298 303 302 299 297 296 296 296 294 294 293 293 293 293 292 291 289 288 287 286 284 283 282 281 282 280 279 279
297 297 298 298 300 298 293 295 295 297 296 296 295 294 294 294 294 293 294 294 295 294 296 296 294 295 296 295 297 296 295 295 295 294 293 293 293 292 291 290 289 288 287 285 284 282 281 280 279 279 279 278 277 277
294 296 296 297 297 294 294 293 295 295 297 295 295 295 295 294 293 292 292 292 294 294 293 293 291 290 292 292 293 294 293 293 293 293 292 291 291 289 288 286 285 285 284 282 280 279 279 278 277 277 277 276 275 275
293 293 294 295 296 296 294 294 296 296 295 296 295 295 296 292 290 290 290 290 290 291 292 290 288 287 287 288 289 291 292 292 292 292 290 288 287 286 285 285 284 282 281 279 278 277 276 275 275 275 275 274 274 275
292 293 294 294 290 290 291 292 294 294 295 295 294 294 294 294 292 290 289 289 289 289 289 287 286 285 285 286 285 286 288 288 287 287 286 286 285 284 282 281 280 279 279 278 277 276 275 274 273 274 273 273 272 273
291 293 293 289 286 286 286 290 290 293 293 294 293 293 293 291 293 289 288 287 285 284 285 285 284 283 283 282 283 283 283 284 283 282 281 280 279 278 278 278 277 277 277 276 275 274 273 273 273 273 272 271 271 271
292 288 288 284 287 287 282 287 289 290 289 289 290 289 290 292 289 287 286 283 282 281 282 282 283 282 281 280 280 279 281 280 280 280 279 278 277 276 275 274 274 274 274 273 273 272 271 271 271 270 270 270 270 270
285 285 282 282 284 287 285 289 285 286 285 285 285 287 288 287 286 285 283 282 279 278 279 280 279 279 279 278 277 277 278 277 277 276 275 276 275 274 273 272 271 271 271 271 270 270 269 269 269 268 268 268 268 269
289 286 288 289 289 287 286 290 284 290 282 282 289 289 285 280 279 281 282 279 277 277 276 277 278 277 276 275 275 275 275 276 275 273 272 274 275 275 274 272 271 269 269 268 268 267 267 267 267 267 266 266 266 266
286 285 288 288 289 288 284 283 284 282 282 286 284 279 284 277 278 281 280 279 277 276 276 276 276 275 275 274 274 274 273 273 272 271 271 270 270 270 270 269 268 268 268 268 268 267 267 266 266 266 266 266 266 265
288 288 288 287 281 283 280 279 279 281 280 284 282 277 275 275 278 279 277 277 276 275 274 274 273 272 270 270 271 273 273 272 272 271 270 269 269 268 268 268 268 268 268 267 267 267 266 267 266 266 265 265 265 266
288 288 282 284 281 281 283 282 281 283 284 284 275 276 275 275 273 274 275 275 275 274 272 272 272 271 270 270 270 269 270 271 271 263 261 260 265 266 267 268 267 267 267 266 266 266 266 266 266 265 265 265 265 265
282 281 280 277 278 282 280 275 277 273 279 276 275 274 273 272 271 272 273 273 271 270 270 270 270 270 269 269 268 268 267 267 267 266 261 260 265 265 265 265 265 265 265 265 265 265 265 265 265 265 265 265 265 264
280 277 277 276 277 283 283 278 279 277 272 268 269 267 268 269 271 271 271 271 271 270 270 269 268 268 268 268 267 267 267 266 266 266 265 265 265 264 264 263 263 263 263 263 263 263 263 263 263 264 264 264 264 263
273 274 275 279 278 278 280 283 282 277 272 269 269 264 266 264 265 269 269 270 269 269 268 268 268 268 268 268 267 267 266 266 265 265 264 264 264 263 263 263 263 262 262 262 262 261 261 261 262 262 263 263 262 262
274 270 269 273 278 277 272 277 276 275 272 269 270 268 266 266 267 269 268 268 268 267 267 267 268 268 268 267 266 266 265 265 264 263 263 263 263 263 262 262 262 262 262 262 262 261 260 260 260 260 260 261 261 260

GFSWCAN_925_thetae_051.txt.gz
Theta_e
298 298 299 298 298 298 297 297 296 296 296 296 296 295 297 296 298 300 299 303 304 306 307 311 311 314 313 313 314 314 320 318 314 317 315 312 309 316 315 316 315 318 316 310 309 308 317 311 311 310 309 310 310 310
297 297 297 297 297 297 297 296 296 296 295 295 295 296 297 296 298 299 301 302 302 303 307 305 306 307 309 311 312 314 316 318 317 318 313 311 313 306 314 317 315 316 316 316 314 313 312 313 312 311 310 311 310 310
296 296 296 296 296 296 296 296 296 296 296 296 298 298 298 299 298 297 301 303 302 303 304 306 310 312 312 311 315 316 314 318 319 315 313 314 315 311 314 312 316 316 314 315 315 316 315 312 308 307 308 307 307 308
296 297 296 296 296 296 296 296 296 297 297 296 297 297 297 297 297 298 302 303 302 306 306 309 310 314 315 319 318 317 316 317 315 314 310 310 312 314 309 315 316 316 314 314 314 313 312 309 305 304 303 302 301 300
296 297 296 296 296 296 296 296 296 297 297 297 297 297 297 299 300 302 302 302 302 303 310 311 310 312 318 320 319 318 318 316 312 310 307 312 314 315 311 313 313 312 315 314 313 313 312 309 304 303 302 301 300 299
297 297 296 296 296 297 297 298 297 296 297 296 302 302 301 301 300 300 301 300 304 306 308 309 310 312 317 319 318 316 317 315 313 311 309 314 313 312 314 315 314 312 312 310 313 311 305 303 301 300 300 298 297 297
297 297 297 297 297 297 297 297 296 298 296 298 298 299 300 300 300 301 302 303 303 306 308 307 308 310 318 316 312 316 313 312 314 313 308 311 314 309 301 311 312 310 307 305 304 304 303 301 300 298 297 296 295 294
297 297 297 297 297 298 298 298 298 297 298 298 298 299 300 300 300 300 302 303 303 307 307 308 310 311 314 315 315 312 313 312 313 312 308 306 309 300 311 310 308 306 305 304 303 303 301 298 297 296 295 295 294 293
298 297 297 297 297 297 297 297 297 298 298 299 299 300 300 299 300 302 304 304 306 305 306 304 311 313 311 311 308 307 311 311 310 310 310 312 307 312 308 308 307 306 306 301 299 298 298 297 296 295 295 293 292 290
298 298 297 297 298 298 297 297 298 298 298 297 301 302 303 301 304 305 306 307 307 308 308 306 308 312 312 305 307 306 304 309 312 310 308 309 309 305 303 304 303 302 300 299 299 298 297 296 296 295 294 292 291 289
297 298 298 298 298 298 298 298 297 298 298 300 303 304 306 306 306 304 304 306 305 305 304 306 308 312 308 309 308 303 307 305 314 312 313 310 310 306 303 303 302 301 301 301 300 298 297 297 296 293 291 290 289 288
298 297 297 297 297 297 297 297 298 299 301 303 308 307 307 308 305 306 304 303 305 307 304 307 307 308 305 306 304 304 307 302 312 307 310 312 305 304 304 302 302 301 301 300 299 299 297 295 293 291 289 288 288 286
300 299 299 298 298 298 298 299 300 302 303 310 305 302 306 301 307 306 308 307 306 302 303 303 306 302 303 303 301 300 302 304 303 310 311 304 303 304 303 302 300 300 299 298 296 295 293 291 289 288 287 286 285 283
303 303 303 303 303 302 301 302 301 304 306 301 305 303 304 304 302 302 303 303 299 299 300 302 303 304 300 304 302 301 305 305 300 302 303 303 303 301 299 298 296 295 294 293 293 291 289 287 286 286 285 283 281 281
303 304 304 304 304 304 303 302 304 302 297 299 301 302 301 299 299 298 297 299 298 298 299 302 302 302 304 305 302 304 306 308 300 300 303 301 299 297 296 295 293 292 292 291 290 289 287 286 285 284 283 282 280 280
303 304 300 303 305 306 304 301 299 298 294 297 296 300 298 301 299 298 298 299 298 297 296 297 299 300 305 303 305 305 300 302 304 301 299 297 296 295 294 293 293 291 290 289 288 287 286 285 284 282 282 280 280 279
306 298 300 299 300 302 301 299 297 294 295 297 297 296 296 297 298 297 296 297 296 299 303 299 305 305 302 304 303 301 301 300 299 298 296 295 294 294 293 291 291 290 288 287 286 285 285 283 281 281 281 280 279 279
296 297 298 301 300 299 298 297 295 296 297 296 296 296 294 293 294 294 294 294 297 299 299 300 298 298 298 301 300 298 296 295 295 294 294 294 293 292 292 291 290 290 289 287 285 284 283 283 283 282 281 280 279 278
296 297 297 299 300 298 294 295 295 297 296 295 295 294 294 292 291 291 292 293 292 293 294 294 293 293 293 294 295 295 295 295 294 293 292 292 292 291 291 290 288 288 287 286 284 283 282 281 281 280 279 278 278 277
295 296 297 297 298 293 294 294 294 296 297 295 294 291 291 291 290 290 290 290 292 292 291 290 288 287 288 289 291 293 293 293 293 292 289 288 288 288 288 287 285 283 282 281 280 279 278 278 277 277 276 276 276 275
293 293 295 296 296 294 291 293 295 295 294 296 295 294 291 289 288 287 287 288 288 289 288 286 285 285 285 285 287 289 289 289 289 289 288 287 285 285 284 283 282 281 279 278 278 277 276 276 275 274 274 274 275 274
292 293 292 293 288 289 290 290 294 293 295 295 294 292 291 291 288 288 286 284 284 284 286 284 283 283 283 283 283 283 283 283 283 282 281 282 282 281 280 280 279 278 277 277 276 275 274 274 274 273 273 272 273 272
292 293 291 288 286 285 286 289 290 293 293 293 291 292 292 291 290 287 284 283 282 281 282 283 282 281 281 280 281 281 281 281 280 279 279 278 277 277 277 277 277 276 276 275 274 273 272 272 272 271 271 270 270 270
290 284 281 281 284 282 280 284 287 288 287 288 289 288 292 290 286 283 282 281 280 279 280 279 280 280 279 278 278 278 278 278 277 277 277 276 275 274 273 273 272 272 272 272 271 271 270 270 269 269 269 269 269 269
285 283 281 281 280 283 280 280 282 284 281 281 282 285 288 284 281 281 280 279 278 277 277 278 277 277 277 277 276 275 275 275 275 274 273 275 274 273 271 270 269 269 269 269 268 268 268 268 267 267 267 267 267 267
285 283 287 281 285 284 282 283 284 282 278 281 287 286 276 275 275 278 280 277 275 276 275 276 276 276 275 274 273 273 273 273 272 271 270 271 272 272 271 270 269 268 268 268 267 267 266 266 266 266 266 265 265 265
286 284 285 286 286 285 281 278 281 278 280 282 281 277 274 273 274 279 279 277 276 274 274 273 273 273 272 272 271 271 271 272 270 269 269 269 269 269 268 268 268 268 268 268 267 267 266 266 266 266 265 265 265 265
289 287 282 279 279 280 277 274 276 278 279 283 276 272 271 270 275 276 276 276 274 273 271 269 269 269 269 269 270 271 270 270 270 270 269 267 267 267 267 267 267 267 267 266 266 266 266 266 266 265 265 265 265 265
284 280 279 277 276 278 280 277 277 280 279 279 270 272 273 272 271 271 272 272 273 272 270 270 269 269 269 268 268 268 268 268 268 261 258 256 263 264 264 264 265 265 265 265 265 265 265 266 265 265 264 264 264 264
280 276 276 271 275 279 277 273 273 269 274 272 273 272 271 270 270 271 271 271 270 268 268 269 269 269 268 268 266 266 266 266 265 265 259 259 264 264 264 263 263 263 263 263 263 263 263 264 263 263 263 264 264 264
274 274 274 273 276 277 275 272 275 272 266 264 267 264 266 268 269 269 269 269 269 269 268 268 268 267 267 267 267 266 265 265 265 265 264 264 264 263 263 263 263 262 262 262 262 261 261 261 261 261 262 263 263 262
271 268 273 277 278 277 275 276 271 269 265 264 266 260 262 262 263 268 268 268 268 268 267 268 268 267 267 266 266 265 265 264 264 264 263 263 263 262 262 262 262 262 262 262 261 261 260 260 260 260 260 260 260 261
268 266 266 270 274 275 272 277 274 272 269 268 268 266 264 263 264 267 267 267 267 267 266 267 267 267 266 266 265 264 264 263 263 263 263 262 262 262 262 261 261 261 261 261 261 260 260 259 259 258 258 258 258 258

GFSWCAN_925_thetae_054.txt.gz
Theta_e
302 302 302 302 302 302 301 299 299 298 299 299 299 298 299 299 299 300 300 300 302 306 306 309 307 310 310 310 308 309 314 314 311 314 313 315 309 316 316 317 318 320 317 310 308 309 318 310 309 311 309 309 308 309
297 298 298 298 298 297 298 298 298 299 299 299 298 298 299 299 299 300 299 300 302 304 306 304 304 305 306 309 310 309 311 313 313 315 310 307 310 306 313 318 313 320 317 317 316 316 312 310 310 309 307 309 309 309
298 298 298 298 298 298 298 299 299 299 299 298 298 298 298 299 298 298 298 299 302 304 305 305 306 309 309 309 310 311 311 315 315 312 310 310 313 309 312 313 316 314 312 314 314 315 314 313 309 308 309 309 308 307
297 297 297 297 297 296 296 297 297 297 296 296 296 295 295 296 296 299 299 299 301 302 302 307 308 309 312 313 311 311 313 315 312 311 308 309 310 312 309 314 315 314 314 314 313 313 312 311 306 305 303 303 302 300
296 296 296 296 296 296 297 297 297 297 296 296 296 295 295 296 296 298 298 298 302 302 306 305 306 307 311 313 315 314 314 314 310 308 305 311 311 312 307 309 311 312 314 314 314 314 313 311 304 303 303 301 300 299
296 296 296 296 296 296 295 295 295 296 296 296 295 297 296 297 297 297 300 300 302 302 302 306 307 308 311 317 317 315 315 312 311 310 305 310 311 313 311 311 314 312 311 312 314 311 305 303 300 300 300 298 298 297
295 296 296 296 296 296 296 296 296 296 296 296 297 297 296 297 297 301 301 301 304 304 305 302 304 307 315 316 313 314 311 311 312 309 306 310 311 310 300 311 312 310 308 307 304 304 303 303 301 297 297 296 295 293
296 296 296 296 297 297 297 296 296 297 297 297 297 297 299 298 300 300 302 302 305 306 306 302 307 308 312 315 315 312 311 310 311 309 304 305 307 300 312 310 307 305 304 303 302 301 302 298 296 295 294 294 293 292
296 296 297 297 296 297 297 297 299 299 300 299 300 300 300 299 299 299 302 302 304 303 304 302 309 311 307 310 307 310 309 310 308 308 309 309 306 312 311 307 305 304 305 300 299 298 298 296 295 295 294 293 292 291
297 297 297 298 298 298 297 298 299 300 300 299 299 300 299 300 303 304 305 305 305 304 306 305 305 308 311 304 306 306 304 309 313 311 308 305 310 305 304 304 303 301 299 299 298 297 296 296 295 294 293 292 291 291
297 297 296 297 297 297 297 298 299 299 300 300 300 300 302 303 302 303 304 306 304 306 304 304 306 309 307 310 307 301 306 306 313 312 313 311 313 307 303 303 302 300 300 300 299 297 297 295 294 292 291 291 290 290
297 297 297 297 297 298 298 298 298 298 298 301 302 303 304 306 304 304 305 302 305 307 303 306 307 307 304 306 305 304 308 305 314 307 311 313 307 304 303 302 301 300 299 298 298 296 295 294 292 291 290 289 288 286
298 298 298 298 298 298 298 297 297 299 299 299 304 302 305 300 307 304 306 306 306 302 302 303 305 302 302 304 302 303 306 309 304 310 313 307 304 303 302 301 300 299 298 297 296 295 292 291 290 289 288 286 285 284
297 297 297 297 297 297 297 297 297 296 299 300 302 302 303 303 302 302 303 304 299 299 300 301 302 303 300 304 301 308 305 305 308 309 303 303 302 301 300 299 297 296 294 293 292 291 290 289 287 286 285 283 283 282
300 300 299 298 298 298 298 298 298 299 297 298 299 302 301 299 298 298 297 299 297 297 299 302 302 303 303 304 302 304 307 307 302 298 302 300 299 298 297 295 294 293 292 290 289 288 286 286 284 283 282 281 281 280
303 303 301 302 301 300 299 300 298 297 295 296 296 299 297 299 298 298 297 299 297 297 297 299 302 305 305 303 304 304 303 303 303 300 298 296 295 294 294 293 292 291 290 289 287 286 285 284 283 281 280 279 279 279
301 298 299 303 304 302 301 299 296 294 295 296 296 293 295 296 295 296 295 295 294 299 303 301 304 303 302 303 302 300 299 299 298 296 295 294 294 293 291 290 290 289 288 287 286 285 283 282 281 281 280 279 279 278
297 299 300 301 300 299 295 294 294 295 296 296 295 294 291 290 291 291 292 293 295 298 297 296 296 296 296 298 298 297 296 294 294 294 293 292 292 291 290 289 288 287 286 286 284 283 282 282 282 281 280 279 277 277
295 298 299 300 299 297 295 294 294 295 294 293 291 290 291 289 289 289 290 291 292 291 292 291 289 289 288 291 290 292 294 294 292 291 290 291 290 290 289 288 287 286 285 284 284 283 282 281 280 280 279 279 278 276
296 297 297 297 297 293 294 293 294 294 295 293 291 288 287 287 286 286 287 288 289 289 287 287 285 285 285 285 286 290 292 292 290 289 287 286 286 285 285 284 283 282 281 280 279 279 278 276 276 277 277 277 276 274
295 294 296 296 295 293 292 293 295 294 295 293 292 291 290 288 285 284 284 285 285 286 285 283 283 283 283 283 283 284 284 284 285 287 285 283 282 282 281 280 280 279 279 278 277 276 276 275 274 274 274 274 274 274
292 292 292 293 288 288 289 289 293 293 294 294 293 292 291 287 285 284 283 282 282 281 282 282 281 281 281 281 281 281 281 281 280 280 279 279 280 279 278 278 277 277 276 275 275 274 274 273 273 272 272 272 272 272
292 292 289 286 285 285 285 288 287 290 288 290 289 289 289 286 287 284 282 281 280 279 280 280 280 279 279 278 278 278 278 279 278 277 277 276 275 274 273 273 274 274 273 272 272 271 271 271 271 270 270 270 270 270
289 283 280 280 283 281 279 283 286 286 284 285 286 287 289 284 283 280 280 279 278 277 278 278 278 278 277 276 276 275 276 276 275 275 275 274 273 271 271 270 270 270 270 270 270 269 269 268 268 268 268 268 268 268
286 284 280 280 279 282 278 278 280 282 283 282 284 286 283 281 279 279 278 278 277 275 275 276 275 275 276 275 274 273 273 273 273 272 271 273 272 271 269 268 268 267 268 268 267 267 266 266 266 266 266 266 266 265
286 283 287 282 284 283 285 285 284 278 277 280 280 280 273 273 272 276 278 276 275 274 273 273 274 274 273 271 271 271 271 271 270 269 267 268 269 268 268 267 267 267 267 267 267 266 266 266 266 266 265 265 265 265
286 283 282 283 284 283 277 275 278 276 276 277 276 273 270 270 272 278 277 275 274 271 270 270 271 271 271 270 269 269 270 270 269 267 266 267 267 267 266 265 265 265 266 266 266 265 265 265 265 265 265 265 265 265
288 283 280 276 276 278 275 272 274 276 278 280 273 269 268 267 273 274 275 273 271 269 268 268 268 268 268 268 269 269 268 268 268 267 266 265 265 265 265 265 265 265 265 265 265 265 265 265 265 265 264 264 264 264
280 276 277 274 274 275 276 274 275 276 275 274 267 269 271 271 269 271 270 271 271 270 269 268 267 267 267 267 267 267 267 267 267 260 257 255 262 263 263 263 263 263 263 263 263 263 263 263 263 263 263 263 263 263
276 274 274 271 273 275 270 270 267 264 270 270 272 271 270 269 268 269 270 270 269 268 268 268 268 268 267 267 265 265 265 265 265 265 257 258 263 263 263 263 262 262 262 262 262 262 262 262 261 261 261 261 262 263
271 271 274 273 275 271 269 268 271 270 264 263 264 262 264 266 268 268 268 268 268 268 268 267 267 267 267 266 266 265 264 264 264 263 263 263 263 263 262 262 262 262 261 261 261 261 261 260 260 260 260 260 260 260
268 266 271 274 275 270 270 271 263 264 262 261 264 258 259 260 261 266 267 267 267 267 267 267 267 266 266 265 265 264 264 263 263 263 263 262 262 262 262 261 261 261 261 261 260 260 260 259 259 259 258 258 258 258
265 263 264 269 273 274 273 273 272 269 265 265 266 263 260 261 262 265 266 266 266 266 266 267 266 265 265 264 264 263 263 263 263 262 262 262 262 261 261 261 260 260 260 260 260 259 259 259 258 258 258 258 257 257

GFSWCAN_925_thetae_057.txt.gz
Theta_e
301 301 301 302 302 302 301 300 303 303 302 301 300 300 300 300 301 301 301 301 303 306 306 308 307 309 309 309 310 309 312 312 312 313 314 315 315 318 320 318 319 320 319 319 314 318 322 312 309 316 318 310 312 311
299 301 302 301 301 302 303 303 302 301 300 300 299 299 300 301 301 300 300 301 301 304 306 304 304 305 306 309 309 309 311 312 313 315 313 312 315 311 318 320 315 322 319 321 319 322 316 311 315 311 309 313 311 312
297 297 300 302 301 300 300 300 299 299 299 299 299 299 301 301 301 300 299 299 300 303 303 305 306 308 307 307 308 313 310 313 313 313 314 316 316 313 318 317 318 315 315 318 317 316 315 313 312 310 310 311 309 310
298 298 297 298 298 298 298 298 298 299 299 300 299 299 299 299 299 299 299 300 300 303 303 305 306 307 307 308 309 309 312 313 312 313 311 311 316 313 316 318 318 316 317 316 316 315 314 314 312 310 308 307 305 304
297 297 298 299 298 299 298 299 298 299 299 299 299 299 298 297 298 298 298 298 299 301 303 304 304 305 307 309 310 310 311 314 313 312 309 315 312 313 310 313 315 315 316 318 320 317 318 317 313 307 307 306 304 302
295 296 296 297 297 297 298 298 298 298 298 298 298 297 297 298 298 298 298 299 298 300 303 304 304 307 309 312 312 312 313 314 314 314 311 312 311 315 316 319 316 314 312 314 316 314 307 305 303 304 304 302 301 301
296 296 295 295 296 296 296 297 296 297 297 296 296 295 296 298 297 297 298 299 299 300 304 303 306 306 308 313 314 315 315 315 314 314 310 314 314 313 309 320 315 312 311 309 306 307 307 304 306 301 300 299 297 296
296 296 296 296 295 295 295 295 295 295 295 295 295 296 296 296 297 298 300 301 299 301 304 303 304 308 310 314 315 312 313 313 311 313 306 313 310 307 314 312 310 308 306 306 305 303 305 300 298 297 296 296 295 294
297 297 297 296 296 296 296 296 296 296 295 296 296 297 297 298 295 297 301 301 301 303 304 302 307 312 308 309 308 309 309 311 309 310 311 313 311 317 314 311 309 306 307 304 300 299 299 300 298 296 296 295 294 293
297 296 297 296 296 297 297 296 297 297 297 297 298 299 299 298 300 302 301 303 303 303 305 305 303 309 310 307 308 308 306 310 314 313 310 311 314 308 305 306 305 303 301 300 300 299 298 298 297 296 295 295 294 293
297 297 298 297 297 298 299 299 297 297 297 298 300 299 298 301 301 301 303 304 302 305 304 304 303 309 308 312 309 303 307 306 315 313 316 316 314 310 305 305 302 301 300 301 300 299 298 296 296 294 293 293 292 291
297 298 298 298 297 299 300 300 299 298 299 301 302 302 302 302 301 302 305 303 305 305 304 306 306 307 305 306 309 305 308 306 315 307 311 315 308 304 304 302 301 300 300 299 298 297 296 294 293 292 291 290 288 286
297 297 297 297 297 298 298 298 297 297 299 300 303 301 303 300 304 306 308 307 307 303 303 304 305 303 303 303 303 305 308 309 305 310 313 307 304 302 302 301 300 299 298 296 295 293 292 291 290 290 288 287 286 284
297 297 297 297 297 297 297 297 296 296 297 298 300 303 302 302 301 301 304 304 299 299 300 301 302 304 300 304 303 309 306 304 311 313 307 304 300 300 299 298 297 295 293 293 292 291 290 289 287 286 286 285 284 283
298 298 298 297 297 297 297 296 296 296 293 297 298 302 301 299 298 298 297 298 297 297 299 302 302 303 303 304 304 306 309 307 304 304 303 299 298 297 296 294 293 292 291 290 289 287 286 285 285 284 283 283 282 281
297 297 297 297 297 297 298 297 296 294 292 295 293 294 295 297 295 295 295 297 295 296 297 300 303 306 306 304 305 303 306 303 302 300 298 296 295 294 293 292 291 289 288 288 286 285 284 283 283 282 281 280 280 280
300 299 300 298 297 298 297 296 295 294 295 296 294 290 291 292 292 292 292 293 293 298 303 302 300 299 301 302 300 299 298 297 295 295 294 293 292 291 290 289 289 288 287 286 285 284 282 281 281 281 280 279 279 278
298 301 300 299 298 298 295 294 294 295 293 291 291 290 288 288 288 289 290 291 294 297 295 294 294 293 293 295 294 291 291 294 293 293 292 291 290 289 288 288 287 286 285 284 284 283 283 283 282 281 279 278 278 277
298 299 300 299 299 295 294 294 294 292 290 290 288 287 288 286 286 286 288 288 289 289 290 288 286 286 286 287 286 286 290 291 289 288 287 287 287 287 286 285 284 284 283 283 282 281 280 280 280 279 279 278 277 276
300 299 300 298 296 293 294 293 293 294 293 290 289 287 286 285 284 284 285 286 286 286 284 284 283 283 283 283 284 285 286 289 288 286 284 283 282 282 282 282 281 280 280 279 278 278 278 277 276 276 276 276 276 274
297 296 296 296 294 293 292 293 294 294 293 292 291 290 288 286 283 282 282 283 283 283 282 281 281 281 280 280 281 282 281 282 283 284 283 281 280 280 279 279 278 278 277 277 276 275 274 274 273 273 273 273 273 272
292 292 292 291 288 288 288 287 293 292 292 292 291 290 286 283 282 282 281 280 279 279 280 280 279 279 279 279 278 279 279 278 278 277 276 276 277 277 276 276 275 275 274 274 273 272 272 271 271 271 271 271 271 271
291 291 288 285 285 284 284 287 286 289 289 289 286 286 284 281 284 282 279 279 278 278 278 278 279 277 277 276 276 276 276 276 276 275 274 273 273 272 272 271 272 272 272 271 270 270 269 269 268 268 268 268 268 268
289 282 279 279 282 280 278 282 285 285 284 285 286 285 285 282 280 279 278 278 277 276 277 276 276 277 276 275 274 273 275 274 274 273 273 272 271 269 269 268 268 268 268 267 267 266 266 266 266 266 266 266 266 265
285 283 281 282 278 280 279 282 279 282 283 282 283 283 278 279 278 277 277 277 276 274 274 275 274 274 275 274 273 272 271 272 271 270 269 271 270 269 268 267 266 266 266 266 266 266 266 266 266 265 265 265 264 264
284 281 285 285 284 282 283 285 281 277 278 277 279 276 273 273 273 276 277 275 274 272 271 272 273 272 271 270 270 270 269 269 269 267 266 266 267 268 267 267 266 265 265 266 266 265 265 265 265 265 265 264 264 264
284 280 280 281 283 280 276 275 277 276 275 277 276 272 271 270 272 276 275 273 272 269 269 268 270 270 270 269 267 267 267 268 266 265 264 265 265 265 265 264 263 263 264 264 264 264 264 264 264 264 264 263 263 263
285 280 278 274 275 276 273 272 273 275 276 278 272 268 267 268 273 273 273 270 269 268 268 268 268 268 268 267 267 267 267 266 266 265 265 264 263 263 263 263 263 263 263 263 263 263 263 263 262 262 262 262 262 262
276 273 275 271 272 273 274 271 272 273 273 272 266 268 270 270 268 270 270 270 270 269 267 266 266 266 266 266 266 266 266 266 266 262 261 261 261 262 263 263 262 262 262 262 262 262 261 261 261 261 261 261 261 262
275 272 273 269 271 272 269 266 265 263 269 269 271 270 269 267 267 268 269 269 269 268 267 267 267 267 266 266 265 265 264 264 264 264 261 261 261 262 262 262 262 262 261 261 261 261 261 261 261 261 261 260 260 260
271 270 272 272 272 267 265 266 267 266 262 263 262 262 264 266 267 267 267 267 267 267 267 267 266 266 266 265 265 264 263 263 263 263 263 262 262 262 262 261 261 261 261 261 261 261 260 260 260 259 259 259 258 258
267 266 271 273 273 268 268 267 261 263 261 263 263 258 260 261 261 265 267 267 267 267 267 267 266 265 265 264 264 263 263 263 263 262 262 262 262 261 261 261 261 261 261 260 260 260 260 259 259 259 258 258 258 257
263 262 264 268 271 271 270 270 270 268 264 264 264 261 259 262 264 265 266 266 266 266 266 266 266 265 264 263 263 263 263 263 262 262 262 262 261 261 261 261 261 260 260 260 260 260 259 259 259 258 258 258 257 257

GFSWCAN_925_thetae_060.txt.gz
Theta_e
301 301 301 301 302 303 302 303 302 304 303 302 303 302 301 300 302 301 302 303 306 307 307 308 307 308 309 312 315 314 316 315 317 318 318 319 325 318 321 320 323 324 325 327 325 331 330 316 315 320 322 321 320 319
301 301 301 302 301 301 301 301 301 302 302 303 302 301 300 300 301 301 302 302 304 307 308 306 306 308 307 309 312 315 312 314 315 316 318 317 324 322 318 321 321 326 323 326 323 325 323 317 321 319 319 320 318 319
301 301 301 301 302 300 301 301 302 302 302 302 301 300 301 301 300 301 302 302 303 306 306 307 307 308 308 308 310 311 312 311 314 314 317 319 326 321 328 322 320 319 318 323 322 321 320 319 317 317 316 317 316 316
298 299 299 300 300 302 302 302 302 301 301 300 300 300 301 300 300 301 302 302 303 305 306 306 306 306 307 308 309 311 312 316 317 317 318 318 323 316 322 319 322 321 320 320 323 322 318 318 319 318 316 314 314 314
297 298 298 298 299 299 299 299 299 299 300 300 300 299 300 300 300 300 301 302 303 304 305 306 305 304 307 310 311 311 314 317 320 321 313 319 319 321 319 319 322 319 320 324 325 322 323 322 320 320 317 315 314 313
298 298 298 298 299 299 300 299 299 299 299 299 299 300 300 298 299 299 301 300 301 301 303 306 305 305 305 306 311 313 313 314 317 318 320 318 317 320 325 322 319 317 318 320 321 320 320 314 311 315 316 315 312 311
296 298 298 298 298 298 299 298 298 299 299 299 299 298 299 298 299 300 300 301 299 302 303 303 307 307 304 306 313 314 315 315 315 316 318 319 320 318 322 323 318 319 319 319 317 315 317 313 316 310 310 310 307 308
295 295 296 297 297 297 297 297 298 298 298 298 298 297 297 296 297 299 302 298 299 302 304 306 308 308 310 311 315 316 318 316 317 317 317 319 318 319 322 319 318 317 318 315 315 313 313 311 309 307 306 305 305 304
296 295 295 295 295 295 296 296 296 297 297 297 298 297 296 298 299 300 301 299 300 303 304 304 308 312 310 312 311 310 311 314 311 313 317 318 319 320 316 316 317 317 317 318 313 309 308 309 308 305 304 304 304 301
296 296 296 296 296 296 296 296 295 296 297 297 297 299 299 299 299 300 300 301 301 303 304 305 305 307 310 310 310 312 312 315 314 312 314 313 320 317 316 315 315 315 314 310 310 309 308 307 306 304 304 303 302 300
297 298 298 296 296 297 296 297 297 297 296 298 299 301 300 298 300 303 303 303 305 306 306 306 306 310 311 317 314 311 311 309 317 314 319 319 318 315 308 312 311 310 308 308 307 307 306 306 304 302 300 300 298 297
296 298 299 298 297 296 297 297 297 298 299 300 301 301 299 301 303 304 304 306 306 305 308 308 307 309 310 312 314 310 313 310 320 309 312 318 309 305 305 306 305 305 304 303 303 303 302 301 300 299 297 295 292 289
297 298 299 298 297 297 297 297 297 298 299 300 303 303 303 301 303 306 306 307 308 307 307 307 309 309 309 310 308 309 313 313 306 312 315 307 303 302 302 302 300 299 297 296 294 294 294 293 292 291 290 288 288 287
297 297 298 298 298 297 297 296 296 298 298 300 302 304 305 305 303 303 306 307 302 304 306 306 305 309 305 309 307 314 309 308 314 317 309 304 301 299 298 296 295 294 293 292 291 290 289 289 288 287 286 286 285 285
297 297 297 297 297 297 296 296 296 297 296 297 298 300 301 299 297 296 298 300 298 299 302 304 304 307 305 308 307 309 312 310 307 305 302 299 298 296 294 293 291 290 289 289 288 288 287 287 286 285 284 284 283 283
297 297 298 297 297 297 296 296 296 294 294 294 291 292 293 295 294 294 293 295 295 296 299 302 304 309 308 309 306 305 309 302 300 298 296 296 293 292 291 290 289 288 288 288 287 287 286 285 284 283 282 282 282 281
297 298 297 297 297 297 297 295 294 295 294 294 292 289 289 290 290 291 292 291 292 297 303 303 302 301 303 302 300 297 297 296 296 295 293 292 292 291 290 289 288 288 287 286 285 284 284 283 283 283 283 281 281 280
298 299 296 296 297 296 295 294 294 293 291 290 290 289 288 287 287 288 289 290 296 297 295 294 293 293 293 296 294 290 290 292 290 290 291 290 289 289 288 288 287 287 286 285 285 284 284 283 282 281 280 280 279 279
300 298 297 297 298 296 296 295 294 292 290 289 288 287 288 286 285 286 287 288 289 290 289 288 287 287 287 286 286 287 289 291 288 286 286 285 285 285 284 284 283 283 283 282 282 282 281 281 281 280 280 279 279 278
299 298 298 297 296 296 296 296 294 293 292 291 289 287 286 285 285 286 286 287 286 285 284 284 283 283 283 283 284 285 287 289 287 285 284 283 282 282 282 282 282 281 280 279 279 279 279 278 277 278 278 278 278 277
299 298 297 295 294 294 293 295 294 294 293 292 292 290 288 287 286 284 284 284 284 283 282 281 281 280 280 280 281 281 281 281 283 283 282 281 280 279 279 278 278 278 278 278 277 276 276 276 276 276 276 275 275 274
294 291 291 291 293 292 293 291 295 294 295 294 293 290 289 287 285 284 282 282 280 280 281 280 279 279 279 278 278 278 278 277 277 277 276 276 277 277 277 276 276 276 276 275 275 274 273 272 273 273 273 272 272 271
291 291 289 290 292 294 291 291 293 293 294 293 292 289 288 286 284 283 281 280 279 279 279 279 278 277 276 276 276 276 276 276 276 275 274 274 273 273 273 273 274 274 273 272 271 271 270 269 269 269 269 269 270 269
288 285 287 288 291 289 289 290 290 291 291 292 291 289 286 286 283 282 280 279 278 277 278 277 278 278 277 275 275 274 274 274 274 273 273 273 272 271 271 270 270 270 270 269 269 269 268 268 268 268 267 268 267 268
289 286 289 288 289 288 288 288 287 290 289 288 288 286 283 284 283 281 280 279 278 276 276 276 275 276 276 275 274 272 271 272 272 271 271 272 272 271 270 269 268 267 268 269 268 268 267 267 267 267 267 266 266 266
286 285 288 288 287 288 287 287 286 285 286 286 284 281 281 281 280 280 279 278 276 275 274 276 276 275 273 272 273 271 271 271 271 270 268 269 270 270 270 270 269 267 266 266 267 267 267 266 266 266 266 265 264 264
286 286 285 282 285 284 284 284 283 283 283 283 282 280 280 279 279 278 277 275 274 272 271 272 273 273 272 271 269 268 268 268 267 267 266 265 265 265 266 267 266 264 264 264 264 264 265 265 265 265 265 265 264 263
285 284 283 281 281 281 280 281 281 281 280 279 278 276 276 276 277 275 275 272 271 270 269 269 268 269 269 268 268 268 267 266 265 266 265 265 264 263 262 262 262 262 262 262 263 263 263 263 263 263 262 263 262 262
283 281 281 276 278 278 277 278 278 276 275 277 276 275 273 272 271 273 272 272 271 270 270 269 267 267 267 266 265 265 266 267 268 267 268 268 267 264 262 262 262 261 261 262 262 262 262 261 261 260 260 261 261 261
281 280 280 276 276 277 275 273 274 272 272 273 273 272 271 270 269 269 270 271 271 270 268 267 266 268 267 268 267 265 263 263 263 266 267 266 265 262 261 261 261 261 261 261 261 261 261 261 261 261 261 261 260 260
277 281 280 279 277 275 274 272 271 271 271 272 271 272 271 271 269 267 267 266 266 266 268 267 266 266 267 266 266 266 265 262 263 263 262 262 261 262 261 261 261 261 261 260 260 260 260 261 260 260 260 259 259 259
278 278 279 279 276 274 272 275 275 275 274 274 272 270 269 271 271 269 266 266 267 268 267 267 267 266 265 264 264 263 263 263 262 262 262 261 261 261 261 261 261 261 260 260 260 260 260 259 260 259 259 259 258 257
277 278 278 277 276 275 276 277 276 275 274 274 273 271 271 272 272 269 266 266 266 267 266 265 265 265 264 264 263 263 263 263 262 262 262 262 261 261 261 260 261 261 260 260 259 260 259 259 259 258 258 257 257 257

GFSWCAN_925_thetae_063.txt.gz
Theta_e
301 301 302 301 301 303 304 304 302 302 303 302 302 303 303 303 301 302 304 305 308 308 308 308 309 308 308 310 313 312 316 317 319 320 318 316 322 314 315 317 325 325 327 331 328 332 331 320 319 322 324 322 322 322
299 300 301 301 301 302 303 303 303 302 303 303 303 303 302 302 301 302 305 305 306 309 309 308 310 308 309 308 311 312 315 314 315 315 318 317 324 324 316 324 320 327 324 327 325 325 323 320 322 321 322 323 323 323
299 299 302 301 301 302 302 302 303 303 303 303 303 302 303 302 300 302 304 304 305 308 309 309 308 309 309 309 310 314 315 313 314 314 316 319 321 318 325 320 318 321 321 325 325 323 322 322 321 321 321 322 322 321
299 299 300 301 301 302 303 303 303 303 303 303 303 303 301 300 302 303 303 304 305 307 309 309 307 307 308 309 310 312 313 313 314 316 318 321 321 313 320 316 317 316 317 320 320 319 318 322 322 321 321 321 320 318
299 299 300 300 302 302 302 302 302 302 303 303 303 302 300 301 301 302 303 303 304 306 308 309 307 306 305 305 309 311 314 314 315 317 319 318 313 312 316 318 318 315 316 323 324 319 323 322 322 323 323 322 319 318
298 300 299 299 299 300 301 301 301 301 300 300 300 300 300 300 302 302 302 303 304 305 306 307 306 307 306 306 308 312 313 315 316 317 319 314 312 316 323 321 317 314 314 316 319 319 320 322 317 317 321 321 320 318
298 299 299 299 299 299 299 299 299 299 300 299 299 300 300 300 301 303 304 303 302 303 304 305 306 306 306 306 307 312 312 314 315 316 318 318 317 317 323 322 315 315 316 316 317 318 320 320 319 316 316 318 315 316
298 297 298 298 299 299 298 299 299 300 299 300 299 299 299 299 301 302 301 300 302 304 304 304 307 309 307 308 310 313 314 314 313 315 316 318 319 320 321 316 315 315 315 316 317 319 319 318 315 314 313 313 313 313
296 297 297 298 298 299 298 298 298 299 298 298 298 298 299 300 302 302 299 301 304 304 305 305 308 311 311 311 311 314 314 316 314 318 318 317 319 321 317 315 315 315 317 317 317 318 318 315 315 314 312 311 312 310
296 295 295 296 297 298 298 298 298 297 296 296 298 300 301 301 300 300 302 303 303 304 306 305 307 311 308 311 314 313 316 317 316 318 316 318 320 316 314 313 317 317 316 317 317 317 315 314 314 312 310 309 309 307
296 296 296 296 295 296 297 297 297 296 298 301 302 301 300 300 302 303 303 304 304 304 305 306 308 308 305 307 314 313 316 314 318 318 319 317 318 311 308 310 311 312 312 312 312 311 310 311 312 309 308 307 305 304
298 296 297 297 296 296 297 297 297 300 301 301 301 299 300 302 302 304 305 305 305 306 308 309 308 304 302 297 311 309 315 312 319 312 313 315 306 303 304 304 303 305 306 307 306 307 306 306 305 303 300 294 291 289
298 296 297 297 297 297 297 298 298 299 301 303 303 302 303 303 306 306 304 307 309 309 309 310 309 306 304 308 311 313 317 316 310 313 312 306 302 300 299 299 297 296 296 296 295 295 293 291 290 290 290 288 287 286
296 296 297 296 296 297 297 297 298 299 302 302 304 304 306 305 303 302 300 306 303 305 308 310 309 310 307 311 308 314 309 310 315 316 309 301 299 298 295 294 293 291 290 290 289 289 289 289 288 288 287 287 286 286
298 298 297 297 296 297 297 297 298 299 298 297 298 298 299 298 297 296 295 299 297 299 307 308 307 308 307 309 307 308 312 312 307 306 301 298 296 294 292 291 290 289 289 289 289 289 288 287 287 287 286 285 285 284
297 298 297 297 296 297 297 298 297 298 297 294 291 294 293 297 295 293 293 294 293 294 304 306 305 312 308 309 308 305 308 302 301 298 296 295 293 293 292 291 290 290 290 289 288 287 286 286 286 285 284 284 283 282
298 298 297 297 297 296 296 296 294 293 293 293 293 289 290 291 291 290 292 292 291 297 304 304 304 301 304 304 300 296 297 295 295 295 293 293 292 291 290 290 289 288 288 287 287 286 286 285 284 284 283 282 281 280
298 297 297 296 296 296 295 295 293 293 291 290 291 290 288 287 288 289 289 290 295 296 294 294 294 294 294 296 293 291 292 292 290 289 289 289 288 289 288 289 288 287 286 286 285 285 284 283 283 283 282 281 281 280
297 297 296 296 297 296 297 295 294 292 290 290 288 287 288 287 286 287 288 289 289 289 289 289 287 286 287 286 286 288 290 290 289 287 286 285 285 285 285 284 284 284 283 283 283 283 283 283 283 282 282 281 281 281
297 296 297 297 297 297 297 296 294 293 292 291 290 288 287 287 286 287 286 287 286 286 285 285 284 283 283 283 284 285 288 288 287 285 284 283 282 281 282 282 282 281 281 280 281 281 281 280 279 279 279 279 279 278
297 296 296 296 296 295 295 296 295 294 294 294 293 291 290 289 287 287 287 284 284 284 282 283 282 281 280 281 281 281 281 282 283 283 282 281 280 280 279 279 279 279 279 279 278 278 277 277 277 277 276 276 275 275
296 293 295 294 296 295 296 295 296 297 296 294 293 292 291 290 288 286 284 283 282 283 282 281 281 281 280 279 279 279 279 278 278 278 277 278 279 278 278 277 277 276 276 276 275 274 273 274 274 274 274 274 273 271
292 293 293 294 297 297 294 294 295 294 295 294 293 291 290 289 286 286 284 282 281 281 281 280 279 278 278 278 277 277 277 277 277 276 276 275 275 274 274 274 275 274 274 273 273 272 272 271 271 272 272 272 272 271
289 290 291 293 294 293 293 293 293 293 293 293 291 289 288 288 286 285 283 281 280 280 280 281 281 281 279 277 277 276 276 276 275 275 275 274 274 273 273 273 273 273 273 272 272 271 271 271 271 270 270 270 269 270
291 288 292 291 292 293 293 292 291 292 291 290 289 288 287 287 286 284 283 281 280 279 280 279 279 279 279 278 276 274 274 274 274 274 275 275 275 274 272 271 270 269 271 271 271 270 270 270 269 269 268 267 267 268
289 287 289 290 290 291 291 291 290 289 289 288 287 285 286 286 284 283 282 280 279 278 278 279 279 277 276 275 275 273 273 274 273 272 270 271 272 273 273 273 271 269 268 269 269 270 269 268 268 268 268 268 266 267
290 289 287 286 288 289 289 288 288 288 287 287 286 285 285 284 282 280 278 277 277 275 275 275 276 275 274 273 272 271 270 269 270 269 268 268 268 268 268 268 267 266 267 267 267 267 267 267 267 267 267 266 266 266
287 286 285 285 284 285 285 285 285 284 284 282 284 281 281 281 280 279 277 274 274 273 272 272 272 272 272 272 272 272 270 269 268 269 269 268 267 266 266 265 264 264 265 264 266 265 265 265 265 265 265 265 264 264
286 285 283 280 282 281 281 282 282 279 278 281 281 279 277 275 276 275 274 274 273 273 273 272 271 271 270 269 269 269 269 270 271 271 271 271 270 267 265 265 265 264 265 265 264 264 263 263 263 263 264 264 265 265
285 285 282 279 280 281 279 278 277 276 276 276 275 274 274 273 272 273 273 274 274 273 272 272 271 272 272 272 270 268 267 266 267 270 271 269 267 265 265 265 265 264 264 264 264 265 263 264 264 264 264 264 263 263
284 285 283 282 280 278 277 276 275 276 276 276 276 277 275 274 271 271 271 271 271 271 271 271 270 271 270 270 270 270 268 265 263 263 265 265 265 265 264 263 263 263 263 263 263 263 263 264 264 264 263 263 262 261
283 284 282 280 279 277 277 279 279 279 278 278 276 275 274 276 275 272 270 270 271 272 270 271 271 269 267 266 265 265 265 264 264 263 263 264 264 263 263 262 262 262 263 262 263 263 262 262 263 263 263 262 261 260
283 283 282 281 279 279 279 280 280 279 279 278 277 276 276 277 276 273 268 268 271 271 270 270 268 266 265 265 265 264 264 263 263 262 262 262 262 261 262 263 262 262 262 262 263 262 262 262 262 261 261 261 260 260

GFSWCAN_925_thetae_066.txt.gz
Theta_e
299 299 301 301 301 301 302 303 303 303 303 302 302 302 302 303 303 301 304 304 308 309 309 308 309 310 310 311 312 312 313 315 318 320 320 318 321 316 314 315 323 324 326 327 327 326 328 322 321 321 323 325 325 324
299 301 301 301 302 303 303 304 304 303 301 302 303 302 303 303 303 301 304 304 307 309 309 308 308 308 310 310 312 312 313 315 315 317 317 318 327 325 316 314 317 324 323 325 325 326 326 322 323 322 324 327 325 326
300 301 301 302 302 303 302 302 302 302 301 302 303 303 303 303 303 303 304 305 306 308 309 310 311 310 310 310 310 313 315 313 316 317 317 318 320 318 326 322 317 323 324 325 325 323 323 324 321 322 322 323 323 323
299 300 302 302 302 302 302 302 303 302 301 301 302 303 303 302 301 304 304 306 306 308 309 309 308 310 310 310 310 311 313 313 314 318 320 321 321 319 322 319 318 317 321 324 324 323 321 320 320 322 322 323 322 321
299 299 301 301 302 302 302 303 302 302 302 303 302 303 302 302 303 304 304 304 305 308 308 310 308 307 308 309 309 310 312 314 314 316 323 319 317 319 317 317 319 316 316 320 324 320 324 323 323 321 321 322 323 321
299 299 300 302 302 303 303 303 303 303 303 303 302 303 301 301 301 303 304 303 304 304 307 310 309 308 307 307 308 310 310 312 316 315 318 316 315 316 326 318 314 315 314 313 316 319 320 321 320 318 318 320 321 321
299 299 299 300 301 301 301 302 303 303 302 301 302 301 300 300 302 304 304 303 303 305 307 308 308 307 307 307 309 309 310 312 315 315 317 316 316 314 318 320 314 315 314 315 317 317 319 319 321 318 316 317 318 318
299 299 299 299 299 300 301 300 301 301 300 301 301 301 301 301 301 303 303 303 303 304 305 306 307 309 308 309 310 310 312 312 314 315 316 318 318 320 321 315 316 315 315 315 315 316 318 320 319 317 315 315 315 316
298 299 298 299 300 300 300 300 299 299 299 299 301 301 301 302 303 302 302 304 304 305 305 306 308 310 308 308 310 313 313 314 312 316 315 317 318 319 317 315 316 318 317 318 318 318 317 318 317 315 314 313 313 313
297 299 298 298 299 299 299 299 299 298 299 300 301 302 303 301 300 301 303 304 303 303 305 307 306 309 309 309 311 311 312 313 314 313 313 316 317 314 308 311 312 313 314 315 317 318 316 316 315 314 312 311 311 310
295 297 298 298 298 298 298 299 299 299 300 302 302 302 301 301 304 304 303 304 304 304 304 305 307 308 306 308 307 306 306 309 315 316 316 317 317 306 303 304 304 305 308 310 311 311 311 311 312 311 303 297 296 295
296 296 296 298 297 296 297 297 299 301 302 302 300 300 302 303 303 304 305 306 304 305 307 308 308 307 303 304 307 309 309 310 316 315 318 314 304 301 299 300 297 299 300 299 301 301 300 299 298 296 294 291 289 287
296 296 296 296 297 298 299 299 301 301 302 303 303 301 304 304 304 304 304 305 308 308 309 310 307 305 305 304 305 307 311 314 310 313 307 302 299 298 296 295 293 292 292 292 291 291 291 290 289 288 287 286 285 284
297 296 297 297 297 298 298 299 300 301 303 303 304 303 304 303 302 300 299 300 299 301 304 309 308 308 305 306 304 310 307 305 314 314 305 299 297 295 293 291 291 290 289 289 289 289 288 288 288 287 286 285 285 284
297 297 297 297 297 297 297 299 299 299 297 297 298 299 298 297 296 295 295 297 295 294 299 307 306 307 304 305 304 307 311 307 304 303 299 296 295 293 292 291 291 290 290 289 289 288 288 287 286 286 285 284 283 282
297 297 297 297 297 297 298 298 297 297 297 293 291 294 292 296 293 293 293 294 292 292 295 303 305 308 307 307 305 302 304 298 297 296 294 293 292 292 292 291 290 290 289 288 287 287 286 285 285 284 283 283 283 282
299 298 297 297 296 295 296 298 294 293 293 293 293 290 290 290 290 292 291 292 291 293 303 304 302 302 304 301 297 295 296 294 292 291 290 291 291 290 290 289 289 288 287 287 286 286 285 284 283 283 283 281 281 280
299 297 296 297 298 297 295 294 294 292 290 290 291 290 288 288 288 289 291 290 294 296 295 294 295 294 293 294 292 291 292 289 288 287 288 287 287 286 287 287 286 286 286 285 285 284 284 283 283 283 282 282 281 281
299 297 297 297 297 297 297 296 294 292 291 290 289 288 288 288 286 287 288 288 289 290 290 289 287 287 287 286 287 288 290 288 286 285 284 283 284 284 283 283 283 283 283 282 282 282 282 282 282 282 281 281 281 281
297 297 297 296 298 297 297 296 294 293 292 291 290 288 287 287 286 286 286 286 286 285 285 284 283 282 283 283 284 284 288 287 285 284 283 282 281 281 282 282 281 280 280 280 280 280 279 279 278 278 278 277 277 276
297 297 295 297 296 296 296 297 295 295 294 295 293 291 290 289 286 285 285 285 284 284 283 283 281 281 281 281 281 281 281 282 283 283 282 281 280 279 279 278 278 278 278 277 277 277 277 277 277 276 275 274 274 275
296 295 296 295 297 296 297 297 297 297 296 294 293 292 291 290 289 287 284 284 283 282 281 281 281 280 280 280 280 279 279 278 278 278 277 277 278 278 277 276 276 276 275 275 274 274 274 274 274 274 275 274 272 271
294 295 295 296 296 297 295 296 296 295 296 295 293 292 291 289 287 286 284 282 282 283 281 280 280 280 279 279 278 278 278 278 277 277 276 276 276 275 275 275 275 275 275 274 274 273 272 272 272 272 272 272 272 272
291 292 293 295 296 294 295 294 294 293 293 293 291 290 289 289 288 285 283 282 282 281 281 283 282 280 278 277 277 277 277 277 277 276 276 275 274 273 273 273 274 274 273 273 272 272 272 271 271 270 269 270 270 270
292 289 293 293 294 294 294 293 293 292 292 291 290 289 288 289 287 286 284 282 281 281 281 280 280 279 279 278 276 276 275 275 275 274 275 277 275 274 272 271 271 271 272 272 271 271 270 270 270 269 268 267 269 268
290 288 290 291 291 293 292 292 291 291 290 289 288 287 288 287 286 284 283 281 279 279 280 280 279 277 276 275 275 274 273 274 273 272 271 271 273 274 274 273 271 269 269 270 270 270 269 269 269 269 269 267 267 267
291 289 288 289 290 291 291 290 289 289 288 288 288 287 287 286 283 281 279 278 278 276 276 277 277 276 275 274 273 272 271 271 271 270 270 269 269 268 269 269 268 267 268 268 268 268 268 268 267 267 267 267 266 266
287 287 286 286 285 287 286 286 286 285 284 284 286 283 283 283 281 279 278 276 275 274 273 273 273 274 273 273 273 273 272 270 270 270 269 269 268 268 267 266 266 266 266 266 266 266 266 266 266 266 266 266 266 266
287 286 283 281 283 282 282 284 283 280 279 283 284 281 278 277 278 276 276 275 275 275 274 274 273 273 272 271 270 270 271 272 272 272 272 272 270 268 267 267 266 266 267 267 265 264 264 264 264 264 265 265 265 265
286 286 283 281 282 281 279 280 278 279 278 277 276 276 275 274 274 275 275 276 276 275 274 274 274 274 274 273 270 269 267 267 268 270 272 270 268 267 266 266 266 265 266 266 265 266 265 265 265 266 265 265 264 263
287 286 284 282 280 279 278 278 278 278 278 279 279 277 275 274 273 273 273 273 273 273 273 273 273 272 272 271 272 271 269 266 264 265 266 266 266 266 265 264 264 264 265 265 265 265 263 265 265 265 265 264 263 263
286 285 283 281 280 278 279 282 281 280 280 279 278 276 276 277 277 274 272 273 273 274 272 273 272 270 268 267 266 266 266 266 265 265 265 265 265 264 264 264 264 264 264 264 264 264 264 264 264 264 264 263 263 262
285 284 283 282 280 281 280 282 281 280 281 280 279 279 278 278 277 273 270 271 272 273 272 271 269 268 266 267 267 265 266 265 264 263 263 263 262 262 262 264 264 263 263 263 264 264 264 264 263 263 262 262 262 261

GFSWCAN_925_thetae_069.txt.gz
Theta_e
300 300 301 301 301 302 302 302 302 301 302 302 302 302 302 301 301 301 301 300 304 307 307 308 308 308 308 308 308 307 308 309 310 314 313 312 308 316 315 319 319 319 320 319 319 323 324 320 319 320 318 317 319 320
299 300 302 302 302 302 302 303 304 303 302 302 302 301 302 301 301 301 300 302 305 308 308 309 308 308 309 309 309 307 308 311 311 313 315 312 312 308 312 310 318 321 320 321 321 320 319 319 320 319 321 321 321 321
299 300 301 302 302 301 301 303 304 304 303 302 302 302 302 301 302 300 302 304 306 307 306 306 308 307 307 310 310 310 307 312 313 313 315 313 311 312 311 311 310 319 318 321 320 320 321 321 321 320 319 320 320 319
299 301 301 302 302 302 301 301 302 303 303 303 301 302 301 302 301 302 304 303 305 306 305 308 307 308 308 310 310 311 312 312 310 311 314 313 309 313 312 314 313 319 320 322 321 320 319 318 318 317 318 319 319 318
300 302 302 302 302 302 302 301 301 303 302 302 302 302 302 302 302 302 304 304 304 306 304 308 308 305 309 309 310 310 310 311 309 311 312 313 312 312 312 314 314 314 317 320 318 319 318 318 317 316 316 317 318 319
299 301 302 302 302 302 302 302 302 303 303 303 302 303 302 303 302 304 303 304 303 306 308 307 307 307 307 308 308 309 309 310 310 309 309 313 312 313 305 310 313 312 312 311 311 314 317 319 318 316 316 317 316 315
299 301 301 301 303 303 302 302 302 303 303 302 302 302 302 303 303 303 303 303 304 304 306 305 306 307 307 307 306 308 308 309 309 313 312 314 313 312 303 311 313 312 313 313 313 315 315 317 317 314 314 314 313 313
299 300 300 302 302 302 302 302 302 302 303 302 302 301 302 302 303 302 303 304 303 305 306 302 305 307 307 306 306 306 307 307 309 311 310 313 314 310 309 312 311 314 315 314 315 313 313 317 314 313 312 311 311 311
299 300 300 300 300 300 301 301 301 301 301 301 300 301 301 302 302 302 303 304 304 305 304 301 304 305 307 306 306 307 307 303 309 309 311 313 312 312 311 309 308 308 311 313 314 313 314 314 313 311 310 310 309 308
299 299 299 299 299 299 300 300 300 301 301 301 301 301 301 301 301 302 302 303 303 303 304 302 303 306 307 306 303 304 300 304 308 307 310 309 308 304 302 303 302 303 304 305 311 312 311 311 308 303 300 300 299 296
298 298 298 298 298 298 298 300 300 301 302 302 300 301 300 302 304 302 300 302 303 302 303 302 304 305 302 306 305 302 305 304 306 305 309 310 305 302 298 298 297 299 300 299 300 300 300 303 300 297 293 291 290 288
297 298 297 297 297 299 300 300 300 300 301 301 300 301 302 302 302 302 302 302 302 303 302 302 302 303 298 303 304 303 307 305 308 306 306 307 298 296 295 294 293 293 295 295 295 294 293 292 291 290 288 287 286 285
297 296 297 297 298 300 301 300 300 302 302 303 303 300 302 298 303 302 302 300 302 300 302 300 304 299 300 302 300 305 306 310 306 308 302 298 296 293 292 292 290 290 290 290 289 289 288 287 287 286 285 284 284 283
296 297 297 297 298 299 298 299 301 301 301 300 300 295 297 297 297 294 296 297 297 297 296 298 297 302 301 302 302 308 306 305 308 304 298 295 293 292 291 290 289 289 288 288 287 287 286 286 285 284 284 283 283 282
297 297 297 297 297 297 299 299 297 295 294 292 292 296 293 294 293 293 293 295 294 293 294 302 303 304 303 305 303 304 307 301 297 296 295 292 292 291 291 290 289 289 288 287 286 285 284 284 283 283 282 282 281 281
298 297 296 296 295 296 299 296 294 295 292 289 288 289 288 288 285 290 291 292 292 291 293 297 303 305 304 299 299 297 298 294 292 291 290 291 290 289 289 288 288 287 286 285 284 284 283 283 282 282 281 281 281 281
299 298 296 297 297 295 297 295 292 290 290 292 289 286 287 288 288 289 290 290 290 293 299 300 296 299 300 296 294 293 291 289 288 287 286 286 288 287 286 286 285 285 284 284 284 283 283 282 282 281 281 281 280 279
297 296 297 297 298 296 295 293 290 290 289 289 288 286 287 284 286 287 288 288 291 294 292 291 291 289 289 291 289 288 287 284 284 284 284 284 284 283 283 283 283 283 283 283 283 283 283 283 282 282 281 280 279 279
297 297 296 297 297 297 294 294 293 291 290 289 288 287 287 285 285 285 286 286 287 287 288 285 282 284 284 284 284 284 286 284 283 282 282 282 282 281 281 281 281 280 280 280 280 279 278 278 279 278 278 278 279 278
297 297 296 296 298 296 295 294 293 292 292 289 288 286 285 285 284 284 284 284 284 283 281 281 281 281 281 282 281 281 285 284 282 281 280 280 279 279 279 279 279 278 278 277 277 277 277 276 275 275 275 275 274 275
297 296 296 297 296 296 294 295 294 293 291 293 289 290 288 286 283 282 283 282 282 282 282 280 279 280 279 279 280 279 278 279 280 280 279 278 277 277 276 276 276 275 275 275 275 275 275 275 274 273 272 272 273 272
296 295 295 295 294 294 293 294 296 294 293 293 291 290 289 286 285 283 282 282 281 280 280 280 279 279 278 278 278 278 277 277 277 276 276 276 277 276 276 275 275 275 274 273 273 273 273 273 273 273 271 271 270 270
294 293 294 294 291 290 291 294 291 293 290 291 289 287 286 284 285 284 280 282 282 280 279 279 278 278 278 278 277 277 277 277 276 276 275 275 275 275 274 274 274 274 273 273 272 272 271 270 270 270 271 271 269 269
291 290 290 291 291 292 289 289 292 292 289 288 287 286 286 286 284 280 281 281 281 280 281 280 279 277 276 276 276 276 277 277 276 275 274 273 273 272 272 271 272 273 272 271 271 271 270 269 268 269 269 269 269 268
285 285 288 287 289 288 287 291 288 288 285 286 284 284 284 286 281 281 281 280 278 280 278 278 278 277 276 276 275 275 274 274 273 272 272 274 272 271 270 270 269 269 270 270 270 269 269 269 268 267 267 267 267 267
285 285 288 290 288 290 290 289 286 288 286 283 285 286 282 280 278 280 281 277 275 276 278 277 275 275 274 274 273 272 272 272 271 270 269 269 270 272 271 269 268 268 268 269 269 268 268 268 268 267 267 266 266 266
286 285 287 287 289 289 286 287 286 282 281 284 285 282 280 277 277 278 277 277 275 275 275 276 276 275 274 272 271 270 270 270 270 269 268 268 267 268 268 267 266 266 267 267 267 267 267 267 267 266 266 266 265 266
285 284 282 282 282 283 280 279 278 278 278 281 281 275 275 277 276 277 275 275 274 273 273 273 273 272 272 272 272 271 270 270 269 268 268 267 267 267 266 266 266 266 266 266 266 266 266 266 265 265 266 266 266 266
283 282 280 277 278 278 279 279 278 278 278 280 276 275 274 277 276 276 275 275 274 274 273 273 272 271 270 270 270 269 270 270 271 265 266 265 266 266 266 266 266 266 266 266 265 265 265 265 265 265 265 265 265 264
283 282 278 276 275 276 277 276 278 275 276 275 274 274 273 273 274 275 275 275 275 274 274 273 273 273 272 270 268 267 267 268 268 269 266 263 266 266 266 265 265 265 265 265 265 265 265 265 265 265 265 264 264 263
284 282 279 278 276 275 274 276 277 277 273 274 274 270 270 269 273 273 273 273 273 273 272 273 272 271 271 269 269 267 265 265 266 266 266 266 266 265 264 264 264 264 264 264 264 264 264 264 264 265 264 264 263 263
282 279 276 275 276 276 277 279 278 274 276 273 271 269 270 272 270 272 272 273 273 272 273 273 270 268 268 267 267 267 266 265 265 265 265 265 265 264 264 264 264 264 264 263 264 264 264 263 263 263 263 262 262 262
280 279 277 276 275 276 276 279 277 276 276 275 274 273 271 272 271 271 271 271 272 272 271 270 269 268 267 267 266 266 266 265 265 264 264 263 263 263 263 263 263 263 263 263 263 263 264 263 263 263 262 262 262 261

GFSWCAN_925_thetae_075.txt.gz
Theta_e
298 299 299 299 300 300 301 301 301 302 301 301 302 301 301 301 300 301 300 300 298 300 302 304 304 304 304 304 303 303 306 304 304 305 308 306 303 309 310 312 315 316 316 311 315 318 321 317 319 320 317 316 318 317
298 298 300 301 302 302 302 301 301 301 301 302 302 302 301 301 301 301 300 299 300 302 304 303 304 304 304 304 304 304 305 305 305 305 305 304 305 300 308 310 312 315 314 314 317 316 315 317 319 318 317 317 317 317
299 300 301 302 302 302 302 301 301 301 301 301 301 301 302 300 301 301 300 300 300 302 301 301 306 305 304 304 305 305 304 307 307 304 306 307 307 305 306 306 308 309 314 316 317 317 318 318 318 318 318 317 316 315
300 300 301 302 302 302 303 303 302 302 301 301 301 302 301 302 301 301 299 300 300 301 302 305 305 307 306 305 305 305 306 308 307 306 305 304 305 307 305 307 307 307 314 316 317 316 317 316 315 315 316 317 315 315
300 301 302 302 302 302 302 303 303 304 304 302 302 301 302 301 301 300 300 300 301 301 301 304 306 306 308 309 308 308 308 308 308 306 305 305 306 309 308 309 309 309 312 313 311 312 315 313 313 315 317 317 314 316
302 301 302 302 302 302 302 303 303 302 303 302 301 301 301 301 300 301 302 299 300 302 300 305 305 305 306 308 307 308 308 307 307 305 304 307 309 308 303 308 309 308 307 307 311 310 311 313 312 314 315 312 314 312
301 302 302 301 302 301 301 302 302 302 303 302 302 302 302 301 301 301 301 301 301 301 299 305 308 306 306 305 305 306 307 307 308 307 307 307 308 307 304 306 308 306 304 305 307 306 312 314 315 313 313 310 306 303
299 300 301 302 302 302 302 301 302 302 302 302 302 301 301 300 300 302 302 302 302 299 301 305 306 307 305 305 305 304 305 304 307 308 304 309 308 309 311 303 303 303 302 305 302 301 308 309 309 309 309 307 301 298
299 300 300 301 301 301 301 301 301 301 301 301 301 301 299 300 302 303 302 302 302 303 299 299 303 308 303 303 303 303 301 300 300 303 305 304 307 306 300 300 299 298 300 300 300 304 304 304 302 301 302 299 295 293
298 299 299 300 301 300 301 301 301 301 301 302 300 299 298 301 303 302 303 302 301 299 299 299 300 307 303 303 303 303 298 300 303 303 303 305 302 296 294 295 294 294 295 297 299 301 297 300 295 293 293 292 290 289
297 298 298 299 300 301 301 301 301 301 301 300 300 298 300 301 301 299 298 299 298 299 298 298 301 304 300 304 304 299 299 302 302 303 304 306 298 294 292 293 292 292 293 293 295 294 292 292 292 290 288 286 286 285
296 297 298 298 299 300 301 301 301 300 300 300 300 300 299 295 294 296 294 297 301 303 301 301 300 299 298 301 303 302 304 303 303 302 302 297 293 292 290 290 289 289 289 288 289 289 288 288 287 287 286 284 283 282
296 296 297 297 297 297 299 300 301 302 302 298 296 294 294 290 290 296 296 300 298 297 295 299 302 295 297 300 301 304 307 307 301 298 295 292 290 290 289 288 286 286 285 285 285 284 284 284 283 283 282 281 281 280
296 296 295 297 295 294 296 296 297 297 295 292 291 287 288 287 290 291 293 293 294 293 293 296 300 300 299 301 302 306 301 297 296 294 292 291 290 288 287 286 285 284 284 283 283 282 282 282 281 281 280 280 279 279
298 296 295 294 297 298 293 294 293 291 287 287 287 287 288 287 286 287 290 292 291 291 293 299 300 300 300 298 294 294 291 290 291 290 290 289 288 287 286 284 283 283 283 283 282 282 281 281 280 280 280 279 279 278
296 296 296 295 292 294 293 292 291 291 286 285 284 285 284 283 285 285 287 288 288 289 292 296 300 296 291 289 289 290 290 289 286 286 286 286 285 285 284 284 283 283 282 282 281 281 280 280 279 279 278 278 277 276
296 296 296 297 294 291 291 290 288 286 286 285 283 279 275 278 280 283 285 285 285 290 291 293 290 290 293 290 289 287 283 284 283 283 283 282 282 282 281 281 281 282 282 282 281 280 280 279 279 278 278 277 276 275
296 296 296 296 296 294 291 290 287 287 285 284 281 282 280 277 281 282 283 283 286 288 287 286 286 284 283 284 282 283 282 280 279 279 279 279 279 279 279 279 279 278 278 278 278 279 279 279 278 277 277 276 275 274
297 296 296 297 294 293 290 289 288 285 285 283 282 281 281 280 281 281 282 282 282 282 282 281 279 280 279 280 280 281 280 279 278 278 277 277 277 278 277 277 277 277 277 276 276 276 275 275 276 276 275 274 273 272
297 296 296 296 295 291 292 290 289 287 287 284 283 282 281 281 281 281 281 282 281 281 279 278 277 277 278 277 277 278 278 278 278 277 277 276 276 276 276 276 276 276 276 275 274 274 274 273 272 272 271 271 270 269
295 294 295 296 295 294 291 290 289 288 287 288 285 285 282 282 280 280 280 280 278 278 277 277 276 277 277 277 277 277 277 278 277 277 277 276 275 275 275 274 274 274 274 273 273 272 272 271 271 269 269 268 268 268
293 294 294 294 290 290 290 289 290 288 289 288 287 287 281 276 275 279 280 278 277 277 276 276 277 276 276 276 276 276 276 276 275 275 275 275 275 274 274 273 273 273 272 271 271 270 270 269 269 268 267 267 267 267
292 293 291 288 287 287 289 289 288 291 285 285 284 284 281 278 281 280 278 279 278 277 276 276 275 275 276 276 275 275 274 274 274 273 273 273 272 273 273 272 272 271 271 270 270 269 269 269 269 268 267 266 265 265
290 285 284 285 286 284 282 285 288 286 284 284 283 281 283 278 278 275 277 277 278 277 277 276 276 275 275 274 274 274 274 274 273 273 273 272 271 271 270 270 270 270 269 269 269 269 269 268 268 267 267 266 265 265
284 283 283 282 283 283 280 278 280 282 279 279 280 282 281 279 276 275 274 276 274 272 273 275 275 274 273 272 273 272 273 273 272 271 271 271 270 269 269 268 268 268 268 268 267 268 267 268 267 267 266 266 265 264
282 280 282 281 280 283 282 280 278 278 277 278 279 277 272 271 271 274 276 271 270 271 270 272 273 273 273 272 272 271 271 271 270 269 268 270 270 269 267 266 266 267 268 268 267 267 266 266 266 266 266 265 265 265
278 278 282 281 283 282 277 276 278 274 273 274 272 270 269 268 268 274 275 274 273 273 274 274 273 272 271 271 270 269 269 269 268 267 267 268 268 268 268 266 266 266 267 267 267 267 266 266 265 265 265 265 264 264
279 279 276 272 274 275 270 269 268 270 271 277 272 268 267 267 272 272 271 273 273 273 273 272 272 271 270 269 269 268 267 267 267 267 266 266 266 266 266 266 265 265 266 266 266 266 266 265 265 265 265 264 264 264
275 274 274 269 271 273 274 270 271 274 274 272 266 267 271 273 270 273 273 273 273 272 271 270 269 270 270 269 269 268 268 268 268 260 258 257 263 265 265 265 265 265 265 264 264 265 265 265 265 264 264 264 263 263
276 274 271 268 270 273 269 268 267 262 270 270 272 272 271 270 271 273 273 273 272 271 271 270 269 269 268 268 267 267 267 267 268 268 260 257 265 265 265 265 265 265 264 265 265 264 264 265 264 264 264 264 263 263
275 272 271 271 271 270 267 265 269 268 262 262 260 263 266 266 272 272 272 273 273 272 271 270 270 270 269 268 267 266 266 266 266 267 267 266 265 264 264 264 264 264 264 264 264 264 263 264 264 264 263 263 262 262
269 267 270 271 272 269 268 267 261 262 259 262 262 256 261 261 263 268 270 272 271 271 271 271 270 269 268 268 268 267 267 266 265 265 265 265 264 264 264 263 263 263 263 263 263 263 263 263 263 263 263 262 262 261
269 266 265 267 269 270 268 268 267 268 264 264 266 262 262 263 264 267 269 271 272 272 272 270 269 268 267 266 266 265 265 265 264 264 263 263 263 262 262 263 263 263 263 262 263 263 262 262 262 262 261 261 261 260

GFSWCAN_925_thetae_078.txt.gz
Theta_e
296 297 298 299 299 300 301 301 301 301 300 301 301 300 300 300 299 300 300 298 299 300 303 304 304 304 303 303 304 303 305 303 304 306 308 308 303 307 309 309 315 314 314 316 317 319 320 315 319 321 316 316 318 317
298 298 299 300 300 301 302 302 302 302 301 301 301 301 301 301 300 300 300 300 299 302 303 303 303 303 303 303 303 304 305 303 303 304 303 303 303 298 307 308 309 311 312 313 314 315 313 314 318 317 317 317 317 316
298 300 300 301 301 302 302 302 302 302 302 301 301 302 301 301 301 300 300 300 300 301 300 301 301 303 304 303 303 304 302 304 303 303 302 304 304 303 305 305 307 305 310 312 313 313 315 315 315 318 317 317 316 315
299 300 300 301 302 302 302 302 302 302 302 302 301 301 301 302 301 301 299 300 300 300 301 300 301 301 304 304 303 304 304 306 305 305 304 302 304 304 303 305 305 304 308 311 312 312 312 313 315 316 316 316 315 313
301 302 301 301 301 302 302 302 302 302 302 302 301 301 302 301 301 300 300 299 299 299 298 299 305 305 305 305 303 304 307 307 306 306 301 303 304 307 305 306 307 308 309 310 309 310 310 311 311 312 313 314 316 314
301 302 302 301 301 301 301 302 302 303 303 302 300 301 301 301 300 299 300 299 299 300 301 302 305 306 307 306 304 304 305 306 306 305 303 305 306 306 302 306 307 305 305 306 308 307 306 307 307 309 312 312 309 306
301 301 301 301 301 302 301 302 302 301 301 301 302 301 301 300 300 300 301 300 300 301 301 303 306 306 306 306 306 307 307 307 308 307 305 305 307 306 301 304 305 303 301 301 304 302 307 305 306 307 308 305 300 297
300 300 301 301 301 302 302 301 301 301 301 301 301 301 300 300 301 302 302 300 300 299 299 302 306 306 305 303 304 305 305 305 306 308 307 307 307 307 309 301 300 298 298 301 299 300 303 301 299 300 300 299 295 292
299 300 300 301 300 301 301 302 301 301 301 301 300 300 300 300 301 302 301 300 300 300 302 300 306 308 302 302 303 301 300 303 299 306 307 307 307 302 297 297 296 295 295 297 297 300 298 297 295 294 295 295 293 291
298 300 300 300 301 300 301 300 300 300 300 300 300 298 298 298 302 301 300 301 301 301 297 302 300 306 302 303 302 297 298 301 304 304 304 304 298 294 292 293 292 292 293 294 297 298 295 297 292 289 289 288 288 287
297 297 300 301 301 300 300 300 300 300 299 298 297 296 300 300 300 300 299 300 299 301 300 301 301 305 299 302 304 300 298 298 300 302 306 302 295 292 291 290 289 289 290 290 292 292 291 291 290 288 286 285 284 284
296 296 296 297 300 300 301 301 300 299 300 300 300 299 296 294 294 297 295 299 301 303 299 303 300 299 298 301 302 303 303 302 302 301 298 294 292 290 289 288 286 286 286 286 286 287 287 287 287 286 284 283 282 280
294 295 296 294 296 300 300 301 301 301 300 296 294 291 292 287 288 294 294 297 297 295 295 298 299 296 296 300 302 304 306 304 297 294 292 291 290 288 287 286 285 284 284 284 283 283 283 283 283 282 282 280 280 279
296 294 293 296 293 293 293 294 296 294 293 290 289 286 285 284 288 289 291 293 293 293 293 296 299 300 298 301 300 302 295 294 292 289 289 289 288 286 285 284 284 283 283 282 282 281 281 280 280 279 279 279 278 278
296 296 294 292 293 292 292 291 291 290 286 286 285 284 285 286 285 286 287 290 289 290 293 299 301 299 295 294 292 292 289 288 290 287 287 286 285 285 284 284 283 282 281 281 280 280 279 279 279 278 278 278 277 276
296 297 296 293 290 293 291 291 288 288 285 284 282 283 282 282 283 283 285 286 286 287 291 295 297 293 291 289 287 287 289 286 284 284 283 284 283 283 283 283 282 282 281 280 280 279 278 278 277 277 276 276 275 275
297 296 296 296 291 289 290 288 287 286 285 285 282 281 278 278 278 281 283 283 283 286 290 290 286 287 289 285 285 284 281 283 282 281 280 280 280 280 280 280 279 280 280 280 279 278 278 277 277 276 276 275 275 274
296 295 296 296 295 293 289 288 286 285 283 282 279 280 279 276 280 281 281 282 283 286 285 285 284 283 283 285 283 283 280 279 278 277 277 278 278 278 278 278 278 278 278 277 278 278 277 277 276 276 275 274 273 273
296 295 296 295 293 292 289 287 285 283 282 281 280 280 279 278 280 280 281 280 281 281 282 281 279 280 279 279 279 279 278 279 278 277 277 276 277 277 277 277 276 276 276 275 275 275 274 274 274 274 273 273 272 271
295 295 295 295 294 291 291 288 287 286 284 282 281 281 279 278 279 274 279 280 280 280 278 277 277 277 277 276 276 277 277 278 277 277 276 276 276 275 275 275 276 275 274 274 274 273 273 272 271 270 270 270 269 268
294 294 295 295 294 292 289 288 287 286 284 286 284 284 280 280 279 278 278 278 277 278 277 276 274 276 276 276 276 277 276 277 276 276 276 275 275 274 274 274 273 273 273 273 272 271 270 270 269 268 268 267 267 267
293 293 293 293 290 290 289 288 288 286 287 287 285 284 279 277 276 279 279 276 276 276 275 275 275 275 275 274 274 275 275 275 274 274 274 274 274 274 273 273 272 272 271 271 270 270 269 268 268 267 267 266 267 266
292 292 290 288 286 286 287 288 288 289 285 285 284 283 279 276 279 279 276 278 277 276 276 275 275 274 275 274 274 274 274 273 273 273 272 272 272 272 272 271 271 271 270 269 269 268 267 267 267 266 266 266 265 265
289 283 282 282 284 281 280 282 286 284 282 283 283 282 280 277 277 276 276 275 276 277 276 275 275 275 274 273 273 273 273 273 273 272 272 272 271 270 270 269 269 269 269 268 268 268 267 267 266 266 265 265 264 264
284 281 281 280 280 280 277 274 277 279 277 277 279 280 277 277 274 273 273 275 274 271 272 274 274 274 273 273 272 272 272 272 271 271 270 270 270 269 268 268 268 267 268 268 267 267 267 267 266 266 265 265 264 264
280 279 280 279 277 280 279 276 275 275 274 275 275 273 269 269 269 272 275 271 270 271 268 270 272 273 272 272 271 271 270 271 271 269 268 269 269 269 268 266 266 267 267 268 268 267 267 266 266 266 265 265 264 264
276 276 280 278 281 279 274 273 275 273 271 272 270 267 267 266 266 273 274 273 273 273 273 273 273 272 271 270 268 268 268 269 269 267 267 267 267 268 268 267 266 266 267 267 267 267 266 266 265 265 265 265 264 264
275 276 275 270 272 273 267 267 266 268 270 276 270 267 265 265 271 271 272 272 272 272 271 271 271 270 269 268 268 267 267 267 267 267 266 266 266 266 266 266 265 266 266 266 266 266 266 265 265 265 264 264 264 264
271 271 271 267 269 270 271 267 269 273 273 269 264 266 270 272 268 271 272 272 272 272 270 269 268 269 269 268 268 268 267 267 268 260 257 255 262 265 265 265 265 265 264 265 265 265 264 265 264 264 264 264 263 263
272 272 269 266 268 271 267 267 266 262 268 268 271 272 270 268 270 272 272 272 272 272 271 270 270 269 269 269 267 267 267 267 267 267 260 258 265 265 265 265 265 264 264 264 264 264 264 264 264 264 264 263 263 263
273 270 270 270 271 268 265 262 264 264 259 260 258 262 265 263 271 271 272 272 272 271 270 269 269 269 269 268 267 266 266 266 266 266 266 266 265 265 264 264 264 264 264 264 264 264 263 263 263 263 263 263 263 262
266 265 269 272 271 268 265 261 258 259 257 261 260 254 259 260 262 266 269 270 271 271 271 270 270 270 268 268 267 267 266 265 265 265 264 264 264 264 263 263 263 263 263 263 263 263 263 263 263 263 262 262 262 261
266 266 266 269 268 268 265 266 266 266 262 262 262 259 259 260 264 266 268 270 271 271 271 270 269 267 266 266 265 265 265 264 264 263 263 263 262 262 262 262 262 262 262 262 262 262 262 262 262 262 262 261 261 260

GFSWCAN_925_thetae_081.txt.gz
Theta_e
295 295 295 297 298 298 299 300 300 300 301 301 300 300 299 299 298 299 297 298 296 299 301 304 304 305 304 304 305 304 305 305 306 308 308 310 309 308 307 307 314 316 317 317 316 319 320 316 319 321 320 318 319 318
295 297 299 299 299 300 300 301 301 301 302 302 301 300 300 300 299 299 299 299 297 299 302 302 302 303 303 304 304 304 305 304 305 306 307 308 308 306 309 309 307 310 314 316 317 318 315 314 318 318 318 319 320 319
299 299 300 300 301 301 302 301 302 302 302 302 301 301 301 300 300 299 299 298 298 298 300 301 301 303 303 303 303 305 304 305 304 305 306 307 307 306 310 309 307 307 309 314 314 312 313 313 313 314 315 317 318 317
300 301 301 302 301 301 301 301 302 302 302 302 302 302 301 301 301 300 299 299 299 300 302 301 300 300 303 304 303 303 304 305 305 306 307 306 308 305 308 308 308 307 308 311 312 311 313 312 312 312 312 311 312 315
301 301 300 300 301 302 302 301 302 301 301 302 302 302 301 301 301 301 300 299 299 301 301 301 303 302 300 303 303 303 304 307 308 307 306 309 306 309 307 307 309 308 310 312 312 310 311 311 310 308 309 311 312 314
301 301 300 301 302 302 302 301 302 303 303 302 302 301 301 302 300 299 298 298 299 300 301 302 302 306 304 302 304 304 305 307 308 307 307 306 307 309 311 311 307 304 303 302 306 304 304 305 306 303 306 302 299 300
300 300 300 301 301 301 301 301 303 303 303 302 302 301 301 301 299 300 300 299 299 299 302 300 303 305 306 306 305 305 305 307 308 308 308 307 308 308 306 309 303 300 298 299 300 300 306 305 303 300 301 298 295 293
300 300 301 301 301 301 301 300 301 301 301 301 301 301 300 299 300 302 300 298 299 299 300 301 304 306 304 305 307 306 307 307 307 308 308 308 308 307 307 299 298 296 296 299 297 297 300 299 297 295 297 297 294 292
299 300 301 300 301 300 300 300 300 301 301 300 299 299 299 300 302 300 299 299 300 300 300 301 305 307 302 301 301 302 303 305 301 306 308 308 307 296 294 294 293 293 294 294 295 297 297 296 293 291 292 292 291 289
298 301 301 300 300 299 300 300 300 300 300 300 300 299 298 300 300 300 300 301 300 301 299 301 302 305 304 300 302 302 299 304 306 305 305 300 295 293 291 291 290 290 290 291 293 296 294 294 291 289 288 288 287 286
296 300 301 301 300 300 300 300 300 300 300 299 297 297 301 300 299 299 300 302 301 301 299 301 301 305 300 304 305 301 303 302 305 306 306 300 294 291 289 289 287 287 287 288 288 290 290 290 289 288 286 286 285 283
295 296 298 299 300 301 299 300 300 300 299 299 297 295 294 292 294 298 300 300 301 302 298 302 300 301 300 300 303 304 304 303 305 298 296 293 291 288 287 286 285 285 285 285 285 286 286 286 286 285 284 283 281 280
294 296 296 294 296 300 300 300 300 300 298 294 292 290 292 287 288 293 296 297 297 294 295 299 300 298 299 301 303 305 305 302 296 294 291 290 288 287 285 285 284 283 283 283 283 282 281 281 281 281 280 279 278 277
295 292 293 292 293 293 294 295 298 299 291 289 289 285 283 283 288 288 289 292 292 292 292 296 300 301 298 299 298 298 294 295 293 291 289 287 286 285 284 283 283 282 281 281 280 280 280 279 278 278 278 277 276 275
296 295 292 291 292 290 290 291 291 289 285 285 284 284 285 285 285 285 286 289 287 288 293 299 297 295 292 292 292 292 291 289 289 287 286 285 284 284 283 282 282 281 280 280 279 279 278 278 277 277 276 276 275 274
297 296 295 290 289 290 289 288 287 286 285 283 281 283 282 284 283 283 284 285 285 285 289 292 293 291 290 288 287 286 288 286 284 283 283 283 282 281 281 281 281 280 280 279 278 278 277 276 276 275 275 274 273 273
296 295 296 296 292 288 288 287 285 285 284 283 281 281 279 280 280 281 282 282 282 286 288 288 287 287 288 286 284 284 283 282 282 281 280 280 280 280 279 279 279 280 279 278 278 277 277 276 276 275 275 274 273 272
295 295 295 294 294 291 287 285 285 284 282 281 280 280 280 278 280 280 280 281 283 285 285 285 284 283 284 285 283 282 280 279 278 278 277 278 278 278 278 278 277 277 277 276 277 276 276 276 275 274 273 273 272 271
294 294 295 293 292 291 288 286 284 282 281 280 280 280 280 280 279 279 279 280 281 281 282 281 279 279 279 279 280 280 280 279 278 277 276 276 276 277 276 276 275 275 275 275 274 274 273 273 273 273 273 272 271 270
294 294 294 293 293 290 289 287 285 284 282 281 281 280 279 279 279 276 278 279 279 279 277 277 277 276 277 277 278 278 278 278 277 277 276 275 275 275 275 275 275 275 274 273 273 273 272 271 270 270 270 270 270 269
294 293 294 293 292 290 288 287 286 285 283 284 283 283 281 279 279 278 278 278 277 277 276 276 275 275 275 275 276 276 276 277 277 277 276 275 275 275 274 274 274 273 273 273 272 271 271 270 269 268 268 267 266 266
292 292 292 292 289 289 288 286 287 285 287 286 285 282 279 277 278 279 278 276 276 276 275 275 275 275 275 274 274 274 274 275 274 274 274 274 275 274 273 273 273 272 272 271 271 270 269 268 267 266 266 265 265 265
292 292 288 286 285 285 287 287 286 288 284 284 284 281 279 277 279 278 277 277 276 276 275 275 274 274 274 274 274 274 273 274 273 273 273 272 272 272 272 271 271 271 271 270 269 268 267 266 267 266 266 265 265 264
289 281 280 280 283 280 279 281 285 283 281 283 283 280 279 278 277 276 276 276 277 276 276 275 275 275 274 273 273 273 273 273 272 272 272 272 271 270 270 269 269 268 269 268 267 266 266 265 266 265 265 264 264 263
282 279 279 277 278 278 275 274 276 279 277 278 279 279 277 277 275 274 274 275 274 272 272 274 274 274 273 273 272 272 271 272 271 271 270 270 270 269 268 267 267 267 268 268 266 266 265 265 265 264 264 264 263 263
278 277 278 277 276 280 278 276 273 274 274 275 274 272 271 271 271 273 275 272 271 272 270 271 273 273 272 272 272 271 270 270 270 269 268 268 269 268 268 268 267 266 267 268 267 266 265 265 265 265 264 264 264 264
275 274 278 276 279 278 274 273 275 273 271 272 272 268 269 268 267 273 274 273 273 272 272 273 273 272 271 269 268 267 268 269 268 267 266 267 267 267 268 267 266 266 267 266 266 267 266 265 265 265 265 264 264 264
274 275 273 269 271 272 268 268 268 268 271 275 270 268 266 268 272 272 272 271 272 271 270 270 270 269 268 267 267 267 267 267 267 266 266 266 265 265 265 266 266 266 266 266 266 266 265 265 265 265 264 264 264 263
270 270 270 265 268 270 270 267 269 273 272 268 266 268 271 271 268 270 271 272 271 271 269 269 268 268 268 268 267 267 267 267 267 263 263 264 262 265 265 265 265 265 265 265 265 265 265 264 264 264 264 264 263 263
271 270 268 264 267 270 266 266 267 263 267 268 271 271 270 268 269 270 271 271 271 270 270 269 269 268 268 268 267 266 266 267 267 266 264 264 264 265 264 264 264 264 264 264 264 264 264 264 264 264 263 263 263 263
271 268 269 270 269 266 263 260 261 262 260 262 260 264 266 265 270 270 271 271 271 270 269 269 269 269 268 268 267 266 266 266 266 266 266 265 265 264 264 264 264 263 263 263 263 263 263 263 263 263 263 263 262 262
266 265 270 270 270 267 265 263 259 262 260 263 262 257 261 263 264 266 268 269 270 270 270 270 270 269 268 267 267 266 266 265 265 264 264 264 264 263 263 263 263 263 263 263 263 263 262 262 262 262 262 262 262 261
267 266 267 269 269 269 265 265 265 265 262 262 261 257 258 262 265 265 267 269 270 271 270 269 268 267 266 266 265 265 264 264 264 263 263 262 262 262 262 262 262 262 262 262 262 262 262 262 261 261 261 261 261 260

GFSWCAN_925_thetae_084.txt.gz
Theta_e
296 297 298 298 298 298 298 299 298 299 299 300 300 299 299 298 298 298 297 297 297 301 303 303 304 304 305 307 307 307 307 305 305 310 309 309 308 307 307 307 316 313 312 313 312 318 317 315 316 319 319 321 320 321
298 298 300 300 300 300 300 300 300 300 300 299 299 300 301 299 299 298 298 297 296 299 302 302 302 304 304 305 306 307 306 307 307 308 309 309 311 311 308 310 307 309 316 318 316 314 313 312 314 315 315 317 317 319
299 299 300 301 301 301 301 301 301 301 301 300 301 301 301 300 299 299 299 298 296 297 300 301 301 303 304 305 304 306 306 306 307 307 308 309 309 308 311 310 309 308 310 312 312 313 312 312 313 312 313 314 315 316
299 300 301 300 300 301 302 301 301 301 301 301 301 302 302 301 300 299 299 298 298 300 301 303 301 302 304 304 304 305 305 305 306 306 308 310 309 308 310 309 309 309 309 309 310 310 313 310 312 311 310 311 311 314
299 300 300 300 301 301 301 301 301 302 301 301 301 302 302 300 300 300 299 298 299 301 302 302 302 302 303 304 304 304 305 306 308 308 309 310 308 310 310 310 309 310 311 312 313 310 311 312 310 308 308 307 305 308
300 300 301 300 301 300 300 301 302 302 301 301 301 302 302 300 301 300 298 298 299 300 302 303 303 305 302 303 305 305 306 306 307 307 309 309 309 310 312 311 308 306 304 305 308 304 306 308 308 304 305 304 301 302
300 300 301 300 300 300 301 302 302 303 302 301 301 301 302 301 300 300 302 299 299 300 303 304 305 304 304 303 305 307 306 306 307 308 309 309 310 309 311 313 303 300 300 302 300 301 307 305 302 300 301 302 299 298
299 300 300 300 299 300 300 302 302 302 301 302 302 301 301 300 299 301 300 299 299 300 302 304 305 305 305 306 307 306 307 306 306 308 309 309 309 310 308 299 297 296 297 299 297 297 300 299 297 297 298 299 299 296
300 300 299 299 299 298 300 299 300 301 301 301 299 299 299 298 300 300 299 299 300 301 303 302 306 307 305 304 304 305 305 307 303 309 309 309 305 301 294 294 294 292 292 293 294 296 296 296 294 292 293 295 296 293
300 300 300 299 299 299 298 299 299 298 299 299 299 299 299 301 299 299 299 301 301 302 302 304 304 306 304 305 305 303 304 308 310 308 305 303 297 292 291 291 290 289 289 290 293 295 294 294 292 290 289 290 290 290
297 299 299 300 299 300 300 300 300 300 300 300 299 300 299 299 301 301 302 303 302 302 301 303 303 306 301 307 306 302 308 307 309 308 308 302 297 291 289 288 288 287 287 288 288 289 289 290 289 288 287 286 285 285
295 294 297 299 299 300 300 299 299 299 299 299 297 294 294 294 299 303 303 303 304 304 302 303 302 300 302 302 305 305 307 307 308 300 302 299 292 289 288 287 287 286 286 286 285 286 286 286 286 285 284 282 281 279
293 294 294 298 298 300 300 300 299 297 296 294 294 292 294 291 295 299 301 301 301 296 297 300 303 302 302 304 304 306 307 303 299 298 295 292 289 288 287 286 286 285 284 284 283 283 282 281 281 281 280 278 278 276
292 292 292 291 291 292 299 300 300 294 292 293 292 290 291 291 292 291 293 294 294 294 294 299 303 303 301 302 301 302 297 299 299 297 293 289 286 286 285 284 284 283 282 282 281 280 280 279 278 277 276 276 275 275
296 292 290 291 289 290 295 297 293 290 288 289 290 291 290 287 288 288 288 291 289 288 295 302 300 299 297 297 296 297 297 294 293 292 289 287 285 284 284 283 282 281 281 280 280 279 278 278 277 277 276 276 275 275
296 296 294 289 290 288 288 289 288 287 287 286 285 289 287 289 289 288 287 289 287 288 294 296 298 297 293 292 292 291 293 292 288 287 285 285 283 283 282 282 281 280 280 279 279 278 277 277 276 275 274 274 273 273
295 296 295 293 288 288 287 288 287 286 285 285 285 284 285 285 285 285 285 285 285 291 294 294 294 292 291 291 289 287 287 286 285 284 283 282 282 281 281 280 280 280 279 279 278 277 277 277 276 276 275 274 273 273
295 295 294 294 294 289 287 286 286 286 285 285 285 284 283 282 283 283 283 284 287 289 289 288 288 288 288 289 287 285 283 283 282 281 281 281 280 279 279 279 278 278 278 277 277 277 277 276 276 275 274 273 273 272
294 294 294 292 291 291 290 288 287 285 285 284 284 284 283 282 282 282 283 284 284 284 285 285 284 284 284 283 284 284 283 283 282 280 279 278 278 278 278 277 277 277 277 277 276 275 275 275 275 275 274 274 273 272
293 293 292 292 292 291 289 288 287 286 286 284 284 283 283 282 282 282 282 282 282 282 281 281 281 280 281 281 282 282 282 281 281 281 280 279 278 278 278 279 278 277 277 276 276 275 275 274 273 273 273 273 272 271
293 293 293 292 292 291 290 289 288 287 286 286 285 285 284 283 283 282 281 281 281 280 280 279 279 278 278 278 279 280 279 280 281 281 280 279 278 278 278 277 277 277 277 276 276 274 274 273 272 271 271 271 270 269
292 292 292 292 293 291 291 289 289 289 289 288 286 284 284 284 283 281 281 280 279 278 278 279 278 279 278 277 277 277 277 277 277 277 277 277 278 277 277 276 276 276 275 274 274 273 272 271 271 270 270 269 269 268
291 291 289 290 291 291 290 289 290 289 288 288 286 285 283 283 281 281 280 279 278 278 277 277 276 276 276 276 276 275 276 277 277 276 276 275 275 275 275 274 275 275 274 272 272 271 269 268 268 269 268 268 267 266
288 284 286 288 290 288 287 288 287 287 287 287 286 284 283 282 280 281 279 279 278 277 278 277 277 277 276 276 277 276 275 275 275 275 275 275 275 273 272 272 272 272 272 271 270 269 269 268 267 268 267 267 267 266
288 282 285 286 286 286 286 285 285 286 286 285 284 283 281 281 281 280 279 278 277 277 277 277 277 277 277 276 275 274 274 274 275 274 273 273 272 272 271 270 269 269 270 270 269 268 267 267 267 266 266 266 266 265
282 281 284 284 285 286 285 285 284 284 284 282 280 278 279 280 280 279 278 277 277 277 276 277 277 277 276 275 275 274 272 272 272 272 270 270 271 272 272 272 271 269 267 268 268 268 267 266 266 266 265 264 264 265
282 281 280 278 281 281 281 281 281 282 281 282 280 278 279 278 278 277 276 276 276 275 274 274 275 275 274 272 270 269 269 269 270 269 268 267 267 268 269 270 270 268 266 267 267 268 267 267 266 266 266 265 265 265
279 278 279 275 276 277 277 277 278 278 279 277 277 275 277 277 277 276 275 274 273 273 272 271 271 271 270 269 269 269 268 267 267 267 267 267 266 265 265 265 266 266 266 266 266 266 266 266 266 265 266 266 265 263
277 276 276 271 274 275 274 276 277 275 274 275 276 276 275 274 273 274 273 273 272 273 272 271 269 269 268 267 267 267 267 268 270 270 270 270 269 267 264 264 264 264 265 265 265 265 265 264 264 265 264 265 264 263
276 276 275 273 273 275 273 274 273 271 272 273 274 274 273 272 271 271 273 273 273 273 271 270 269 270 270 270 269 268 266 266 266 268 270 270 268 265 264 264 264 264 264 265 265 264 264 264 264 264 263 263 263 264
276 277 276 276 275 274 273 270 270 271 272 273 273 274 273 273 271 269 269 269 269 269 270 270 269 268 269 268 269 269 268 265 265 265 265 265 264 264 263 263 263 263 263 263 263 264 263 263 264 264 264 264 263 262
275 276 276 275 275 273 272 274 275 275 274 275 273 272 271 274 274 271 267 268 270 271 270 270 271 270 268 267 267 266 266 265 264 264 264 263 263 263 263 263 263 263 262 262 262 262 262 263 263 263 263 263 263 262
276 276 276 276 276 276 274 275 275 275 275 275 273 270 271 273 274 271 267 268 268 270 269 268 268 267 266 266 265 265 264 264 263 263 263 263 262 262 262 262 262 262 262 261 261 261 261 261 262 262 261 260 260 260

GFSWCAN_925_thetae_087.txt.gz
Theta_e
297 297 297 298 299 300 301 300 299 298 298 297 297 298 297 297 297 298 299 297 298 301 304 305 304 304 305 307 309 309 308 307 306 310 310 310 311 309 309 309 315 314 314 315 313 312 315 314 317 321 318 318 318 320
297 297 297 299 300 300 301 301 301 300 299 299 299 299 299 298 298 298 299 298 297 299 302 303 304 305 305 304 307 307 306 307 308 310 309 310 311 311 309 311 311 315 313 315 312 312 316 313 317 314 313 315 316 317
297 297 299 300 300 301 300 300 300 301 301 300 300 300 299 299 299 299 299 299 296 296 302 302 304 303 305 305 305 307 307 306 308 308 310 311 311 310 313 311 312 310 313 316 315 314 314 313 313 312 311 311 311 313
297 298 299 300 300 301 301 301 301 302 301 301 301 301 301 300 300 299 299 299 298 300 303 304 303 303 303 305 306 306 305 306 307 309 311 311 311 308 310 310 311 311 311 311 310 314 313 313 311 310 310 310 308 309
297 298 300 301 300 300 300 300 300 300 301 302 301 301 301 301 301 299 299 298 299 301 304 303 303 303 304 305 305 306 306 307 309 309 309 310 309 310 310 311 311 312 312 314 317 312 312 312 310 307 307 308 306 306
297 299 300 300 300 300 300 301 301 302 300 301 302 301 301 301 301 300 297 298 299 300 304 305 304 305 304 305 305 307 307 307 308 309 310 309 309 310 312 312 307 305 305 306 307 305 307 307 308 304 305 306 305 304
297 299 299 299 299 300 301 301 302 302 302 301 302 301 301 302 301 298 302 300 299 301 303 305 305 305 304 305 307 307 306 307 308 306 309 310 310 310 311 312 303 300 300 302 301 303 307 303 302 300 300 303 304 302
298 299 299 299 299 301 301 301 303 302 302 301 301 302 302 301 298 300 302 300 299 301 302 305 306 306 304 306 307 307 307 306 307 308 310 310 309 311 308 301 298 296 297 299 298 299 300 299 299 297 297 297 301 300
298 300 299 298 299 299 301 301 302 302 301 302 302 301 298 298 300 302 299 300 300 302 304 304 305 307 305 306 306 307 307 307 305 308 309 310 308 304 296 295 294 293 293 294 295 297 298 298 297 296 295 294 295 295
296 299 300 299 299 298 299 299 299 299 298 299 299 298 297 301 299 299 299 300 302 303 304 305 304 308 305 305 307 306 307 308 311 308 307 310 299 294 292 292 291 290 290 291 293 296 295 296 295 294 291 290 290 289
295 298 299 299 299 299 299 300 300 300 301 301 301 299 299 300 301 302 303 304 304 304 304 304 305 306 301 307 308 307 308 309 310 308 310 306 299 293 292 291 290 289 289 289 288 289 290 291 291 291 289 286 285 284
295 297 299 300 300 299 297 299 300 301 301 300 298 296 297 301 303 305 304 304 303 304 303 304 304 304 303 303 307 305 308 308 310 303 308 303 293 291 290 289 289 288 287 287 286 286 286 286 287 287 286 283 281 280
294 294 294 297 298 300 299 295 295 298 299 299 298 295 298 296 301 305 304 304 305 299 300 302 303 304 302 303 307 308 309 306 303 306 300 295 290 288 288 287 287 285 284 284 284 283 282 282 282 281 281 279 279 278
291 292 292 291 292 294 300 300 297 294 295 295 296 294 296 297 296 295 297 298 295 295 296 298 303 302 302 303 305 303 301 303 304 303 296 291 288 287 286 285 285 284 282 282 282 281 280 279 279 278 278 278 277 277
296 293 292 290 292 295 297 296 294 292 292 292 294 295 293 291 291 291 292 294 291 291 296 301 301 301 300 300 300 301 301 300 298 296 292 288 286 285 285 284 283 283 282 282 280 279 279 279 278 278 277 277 276 276
296 296 292 290 289 289 291 292 291 291 291 290 289 293 292 295 293 292 291 292 290 292 296 301 302 300 297 298 297 296 299 297 292 290 288 286 284 284 283 282 282 281 281 280 279 279 278 277 277 276 276 275 275 274
297 298 295 289 289 289 289 291 290 289 289 289 289 287 290 290 289 288 288 289 290 294 298 298 297 295 295 295 292 289 291 289 287 286 285 284 283 282 282 281 281 281 280 279 279 279 278 278 277 277 276 275 274 273
299 297 294 290 294 291 290 290 290 289 288 289 288 288 286 286 287 287 288 288 291 292 292 291 292 291 292 292 290 287 286 285 284 284 283 283 282 281 281 281 280 280 279 279 278 278 278 277 277 276 275 274 274 274
295 296 292 293 294 293 292 290 290 289 288 288 288 287 287 286 286 286 287 287 287 289 290 290 288 288 287 288 287 287 286 286 284 283 281 280 280 280 280 280 280 279 279 279 279 278 277 278 278 277 276 276 275 274
291 292 292 292 293 293 291 291 290 290 290 287 287 287 286 286 286 287 286 287 287 286 285 284 284 284 284 284 285 285 284 284 284 284 283 282 281 281 281 281 280 280 279 279 278 278 277 276 276 276 276 275 275 273
295 293 293 294 293 292 292 292 291 290 289 288 288 288 287 287 287 287 286 285 284 284 283 283 282 281 280 280 281 282 282 283 284 284 283 282 281 281 280 280 280 280 280 279 278 277 276 276 275 274 274 273 272 271
294 293 295 293 293 292 292 291 292 291 290 289 288 289 289 288 287 285 284 283 281 280 281 281 281 282 280 279 279 279 279 280 280 279 280 280 281 280 280 279 279 278 278 277 277 276 275 274 274 273 272 271 271 270
293 293 293 293 294 292 290 292 291 291 291 290 289 288 288 287 285 285 283 281 280 280 279 279 278 278 278 278 278 278 279 279 279 279 279 278 278 278 278 277 278 278 277 275 275 274 272 271 271 272 271 271 270 269
288 288 290 292 292 291 290 290 289 290 290 290 288 287 286 286 285 285 283 281 280 280 280 279 280 280 279 279 279 278 278 278 278 277 278 278 277 276 276 275 275 274 274 274 273 273 272 271 271 271 271 271 270 270
290 285 289 289 290 290 290 289 289 289 289 288 287 286 285 285 285 284 283 281 280 280 280 279 279 280 280 279 278 276 276 277 278 277 276 276 276 275 274 273 272 272 273 273 272 272 271 270 270 270 270 270 269 269
286 284 287 289 289 290 290 290 289 288 287 286 284 283 284 285 284 283 282 281 280 280 280 280 280 279 279 278 278 277 275 275 276 275 273 273 274 275 275 275 274 272 271 272 272 271 270 270 269 269 268 267 267 268
286 285 283 282 286 286 287 286 286 287 286 286 285 284 285 284 283 280 279 279 279 277 277 277 278 278 277 275 273 272 272 272 272 272 271 270 270 271 272 273 273 270 270 270 270 271 270 269 269 269 269 268 268 268
282 282 282 281 282 283 283 283 284 284 283 281 283 281 282 282 281 280 279 277 276 275 275 274 274 274 274 273 273 272 272 270 270 270 270 270 269 268 268 267 267 267 268 268 268 269 269 269 269 268 268 269 268 266
282 281 279 276 279 279 279 281 281 279 278 281 282 281 279 277 277 276 276 275 275 275 275 275 273 273 272 271 271 271 271 271 273 272 273 274 273 270 268 268 268 268 268 267 266 266 267 267 267 268 267 268 267 266
280 281 279 277 278 278 277 278 277 277 277 278 277 276 276 275 274 275 275 275 276 276 275 274 273 274 273 274 272 271 269 268 268 271 273 273 271 268 267 267 267 267 267 268 267 267 265 266 265 265 266 266 267 267
281 282 281 279 278 277 277 276 276 277 278 279 279 279 277 275 273 272 273 274 274 273 274 274 273 272 272 272 273 272 271 267 265 265 267 267 267 267 266 265 266 266 266 266 266 266 267 266 267 267 267 267 266 265
281 281 280 279 278 276 277 280 280 280 280 279 278 277 277 278 277 274 271 273 274 274 272 273 274 273 270 268 267 267 267 266 265 265 265 266 266 264 264 264 264 265 265 265 265 265 265 265 266 266 266 266 266 265
281 281 281 280 279 280 278 281 281 280 280 280 278 277 277 279 277 274 269 269 272 274 273 271 269 267 266 267 267 265 265 264 264 263 263 263 263 263 263 264 263 263 263 264 264 264 264 264 264 265 264 264 263 263

GFSWCAN_925_thetae_093.txt.gz
Theta_e
291 293 294 294 295 296 298 298 298 300 301 300 301 298 296 297 298 298 297 296 296 297 299 301 302 302 302 302 304 304 304 305 306 305 305 304 304 309 312 312 312 311 314 311 309 313 312 313 315 318 312 311 310 310
291 293 293 294 295 297 298 298 299 300 300 300 301 299 297 296 297 298 298 298 297 297 299 298 299 300 302 304 305 304 306 305 304 304 305 306 305 306 312 310 312 313 311 310 310 311 312 312 311 310 309 308 307 308
292 293 293 294 296 297 297 298 300 300 301 300 301 300 297 296 297 297 298 298 297 297 297 296 298 298 299 302 304 304 302 305 306 305 306 307 307 309 309 310 312 313 313 314 311 314 314 311 309 308 307 307 305 305
292 293 294 295 297 297 298 299 300 300 300 300 300 300 300 297 297 297 298 299 298 298 297 298 299 300 300 302 304 304 305 305 305 305 305 306 309 310 311 312 310 312 311 315 314 313 309 306 305 304 305 305 305 303
293 293 295 297 297 298 299 300 299 299 299 299 300 301 301 298 297 297 298 298 298 298 299 300 301 301 303 302 304 305 305 305 304 304 304 307 308 309 309 310 308 307 306 309 309 303 308 304 302 302 302 301 303 301
293 295 297 297 299 299 299 299 299 300 299 300 300 301 301 299 298 299 295 298 299 298 300 301 302 303 304 304 304 304 304 304 305 306 305 308 308 309 310 309 302 301 302 300 301 301 302 302 300 299 300 300 300 298
294 296 297 298 298 298 298 299 300 301 301 300 300 300 301 301 299 297 299 299 299 299 301 300 303 303 305 304 303 303 304 305 306 305 305 307 307 308 307 306 299 297 298 297 296 299 301 300 299 297 296 297 296 294
296 296 297 299 298 299 298 302 301 301 301 301 300 301 301 301 299 298 299 301 299 300 301 302 303 305 304 305 306 304 306 306 304 305 305 308 308 307 301 296 295 294 295 294 294 296 297 298 297 294 293 294 293 291
296 296 297 299 299 298 299 301 302 302 302 300 300 301 299 296 297 299 299 299 300 301 300 298 301 307 304 304 304 305 304 304 303 303 305 306 303 298 296 294 293 291 291 291 292 292 292 293 293 293 290 289 289 288
296 296 299 299 298 298 299 301 301 301 301 300 299 296 296 299 299 299 299 297 300 300 301 303 303 305 305 304 304 304 303 305 307 304 306 299 295 294 293 291 290 289 289 288 289 289 289 289 290 289 288 286 286 284
295 297 298 297 296 298 298 299 299 299 299 299 299 298 300 299 299 299 299 301 300 300 299 301 303 303 302 304 303 301 304 304 303 305 306 302 297 294 290 288 287 287 287 286 286 285 285 285 286 286 284 283 282 281
295 294 292 296 297 298 300 299 299 300 300 300 299 299 300 300 301 302 299 300 300 301 301 299 301 303 301 302 303 302 305 304 304 305 306 295 292 289 288 286 285 284 284 284 282 282 281 281 282 281 281 280 279 279
294 293 292 298 298 298 300 300 299 300 300 299 299 298 300 297 301 300 301 300 302 300 301 301 303 301 300 299 302 304 304 305 299 301 293 290 288 287 286 285 283 283 282 281 280 279 278 278 277 278 276 276 276 275
292 292 294 297 298 295 295 295 295 296 296 296 295 289 293 296 294 294 296 296 294 295 296 298 301 301 300 301 302 304 302 300 304 298 289 288 286 285 284 284 282 281 281 280 278 278 277 277 276 276 275 275 274 274
293 292 292 293 293 293 293 293 294 293 292 292 293 294 292 291 292 291 293 294 292 293 295 298 300 301 299 297 300 299 300 295 293 288 287 285 284 283 282 283 281 280 278 277 277 276 276 275 275 274 274 273 273 273
296 294 290 291 293 294 294 292 291 292 291 290 289 293 292 292 289 288 288 289 291 292 293 295 300 298 297 296 295 290 297 290 288 287 284 282 281 281 279 280 279 280 278 278 277 276 275 274 274 273 273 273 273 272
297 295 290 292 293 293 294 291 290 290 291 290 289 288 290 290 289 288 289 289 290 293 298 298 298 298 297 295 291 290 288 286 284 283 282 281 280 279 280 280 279 279 278 277 277 277 276 275 275 274 273 273 272 272
298 291 292 293 295 293 293 292 290 290 289 289 288 288 288 288 289 289 289 289 291 294 294 293 292 290 289 290 287 286 283 283 283 282 279 278 279 281 280 279 279 279 278 277 276 276 275 275 274 274 273 273 272 272
296 293 294 294 294 294 292 292 290 290 289 289 289 289 288 288 288 286 286 287 287 286 288 286 284 285 286 286 284 284 283 281 281 281 279 281 281 280 280 280 280 279 279 279 278 278 278 278 277 276 275 274 273 272
293 293 293 293 294 293 293 292 291 290 290 288 288 288 288 288 286 284 284 285 285 285 283 283 282 281 283 283 283 282 282 282 281 281 280 281 281 281 281 280 279 279 278 278 278 277 276 276 275 275 275 274 273 272
294 294 294 295 293 293 292 291 290 289 290 290 289 289 287 285 283 282 282 283 282 283 282 281 280 279 279 280 281 281 280 281 283 280 280 281 282 281 281 281 281 280 278 278 277 277 276 275 275 273 272 271 271 271
294 295 294 293 292 292 291 292 291 290 290 291 291 291 289 284 282 282 282 281 281 279 280 280 278 276 278 278 280 281 281 280 280 280 280 281 280 279 280 279 278 278 277 277 276 275 275 274 273 272 271 271 270 270
295 294 294 293 289 289 291 293 292 293 291 290 290 289 286 284 286 284 280 281 280 279 280 279 279 279 279 280 280 280 280 280 280 279 279 278 278 278 277 276 278 277 276 275 274 273 273 273 272 272 271 270 270 270
290 289 289 289 289 290 289 289 291 291 290 290 288 286 285 285 284 280 281 281 280 281 280 280 280 279 279 278 276 277 279 278 278 277 278 277 276 276 276 275 275 275 275 274 274 273 272 272 273 272 272 271 271 271
284 282 285 286 290 286 286 287 288 289 286 287 284 283 283 286 281 279 279 281 281 279 279 281 281 280 277 274 277 276 276 277 277 275 275 276 276 275 274 273 272 273 274 273 273 272 271 271 271 271 271 271 270 270
281 281 285 288 287 288 289 287 286 285 283 281 282 284 284 280 278 280 282 279 277 280 279 279 279 277 276 277 275 274 273 275 276 273 273 272 272 272 273 273 272 271 272 272 272 271 271 270 270 270 269 269 269 269
282 282 285 286 289 289 285 286 287 284 282 281 282 281 279 276 276 279 280 279 276 278 277 277 278 277 275 274 273 273 272 273 272 272 271 271 270 270 271 270 269 269 270 271 271 271 270 270 269 270 269 268 268 268
283 284 280 282 282 284 281 280 280 280 280 283 280 277 276 276 278 279 277 278 277 276 275 275 275 275 275 274 274 273 273 272 272 271 271 270 270 269 269 268 268 268 269 269 269 270 270 270 270 270 269 269 268 268
281 281 278 275 277 278 279 278 278 279 279 281 275 275 276 278 277 277 277 277 276 275 275 274 274 273 273 272 272 272 271 272 272 266 266 269 269 268 268 268 268 269 268 268 268 268 268 268 268 268 268 268 268 267
281 282 277 274 274 277 279 278 275 275 276 276 276 277 277 276 277 277 277 277 278 276 276 275 275 274 274 272 270 269 268 269 269 270 267 266 268 269 268 268 268 267 268 268 268 267 267 267 267 267 267 267 267 267
283 281 277 277 276 278 279 279 279 278 276 275 274 273 273 272 274 275 276 275 275 274 274 274 274 274 273 272 271 269 267 267 268 268 268 268 268 267 267 266 266 267 267 267 267 267 266 267 267 267 268 267 267 266
281 278 275 275 277 279 279 281 277 276 275 274 273 272 272 271 271 273 274 275 275 275 275 274 271 270 270 269 268 268 268 266 266 267 267 267 266 266 265 265 265 265 265 266 266 266 266 266 266 266 266 265 265 264
279 278 277 275 275 276 278 277 279 278 276 275 275 275 273 272 272 272 273 273 274 274 272 271 270 269 269 268 268 267 267 266 265 264 264 264 264 265 265 265 265 264 264 265 265 265 265 265 264 264 264 264 264 263

GFSWCAN_925_thetae_096.txt.gz
Theta_e
292 292 292 292 293 294 295 295 297 298 298 299 300 300 299 297 297 299 296 296 296 297 298 299 298 299 300 301 302 301 302 303 305 308 305 303 302 306 310 312 313 311 311 311 310 311 312 312 313 314 311 310 308 308
291 292 291 291 292 293 294 295 297 297 298 299 299 300 300 298 296 298 297 297 296 297 298 297 298 298 299 301 302 304 304 305 304 303 303 303 303 304 310 311 310 313 311 310 310 309 312 309 309 308 307 306 305 305
291 291 291 291 292 293 294 296 297 297 298 300 300 300 300 299 296 298 297 297 296 297 297 297 297 297 298 299 300 301 302 303 305 303 305 304 305 306 309 311 311 313 312 312 312 313 311 308 306 305 305 304 303 301
291 290 291 292 293 294 296 297 297 298 300 300 300 300 300 300 296 297 297 297 297 298 299 295 297 297 298 298 301 302 301 303 304 305 304 302 305 307 309 311 310 309 308 310 312 307 306 303 302 302 301 301 301 298
290 290 291 292 294 296 297 298 299 299 299 299 299 300 300 300 297 297 297 298 297 298 297 298 298 299 300 299 300 302 303 304 305 305 299 302 305 307 306 308 306 305 305 306 305 302 306 302 299 300 299 300 297 297
290 291 292 294 295 297 298 298 298 298 299 299 298 299 300 300 297 298 297 297 298 298 300 296 299 300 301 301 302 303 303 304 305 303 301 303 306 307 308 307 301 299 299 300 300 298 300 299 297 296 298 295 293 291
291 292 294 295 297 298 298 298 298 298 299 299 300 299 299 300 297 297 297 298 297 298 299 299 298 299 302 302 301 301 302 301 304 304 303 305 306 306 305 303 297 297 296 296 295 298 300 297 294 293 294 293 291 288
292 293 295 296 296 298 299 298 300 301 301 301 300 300 300 300 297 297 299 301 298 299 300 300 301 302 303 303 305 304 304 304 305 304 305 307 307 305 298 295 294 293 295 292 293 293 294 294 292 291 290 291 289 287
293 294 296 297 299 299 298 301 302 302 302 301 300 300 299 294 295 298 300 299 298 299 299 299 299 304 301 304 305 304 303 304 301 304 304 306 299 295 295 293 291 290 290 289 290 290 290 291 291 290 288 287 287 286
294 296 296 298 297 298 300 300 302 302 301 300 298 295 296 298 298 299 297 297 297 300 301 301 301 303 302 303 303 303 302 304 306 304 302 297 294 292 290 289 288 288 287 287 288 288 287 288 288 286 284 284 284 283
296 296 297 296 297 298 300 300 300 299 299 298 298 298 299 299 297 296 298 300 300 299 296 298 302 303 301 303 304 300 304 303 305 304 306 299 295 291 287 286 286 285 285 284 283 282 283 284 285 284 282 281 280 280
296 296 292 297 296 299 300 300 300 300 300 299 299 299 299 298 299 301 299 299 297 299 299 296 300 302 301 299 303 302 301 302 301 303 300 292 290 288 286 285 284 283 282 281 280 280 279 281 281 280 280 279 279 277
295 293 296 295 297 299 299 299 299 299 299 299 297 297 298 295 298 294 302 302 301 298 300 301 302 297 298 299 301 303 303 302 301 296 291 288 287 286 284 283 282 281 280 279 279 278 277 276 276 276 274 274 274 274
292 294 296 297 299 299 299 298 298 296 296 295 293 287 289 292 289 290 294 293 292 294 296 298 300 299 299 299 300 303 301 301 300 293 285 286 285 284 283 282 281 279 278 277 275 275 274 274 274 274 274 274 273 272
291 293 296 295 294 294 294 296 295 293 290 291 290 289 288 288 287 288 290 291 292 292 295 299 299 299 296 293 297 300 296 292 290 285 283 283 283 282 282 281 280 278 273 273 275 273 274 274 273 273 273 273 272 272
292 292 293 293 293 293 293 292 291 291 289 288 287 290 290 285 285 285 286 287 290 290 292 295 293 292 290 288 289 287 292 286 282 281 281 281 278 278 278 279 276 276 275 275 274 274 273 272 272 272 272 272 272 271
296 292 292 293 293 293 292 291 290 290 290 288 286 286 288 287 286 284 285 287 288 291 293 295 292 293 293 289 287 286 283 281 282 282 279 277 279 278 276 277 277 277 276 275 274 273 273 273 273 272 272 272 271 271
292 292 293 294 293 293 292 291 289 289 288 287 285 287 285 285 284 285 286 287 290 292 291 290 290 288 284 287 283 282 281 282 281 280 278 277 277 278 278 276 277 276 275 276 275 275 274 273 272 272 272 271 271 270
292 293 294 294 293 292 291 290 289 289 288 287 286 286 287 285 284 283 285 285 285 286 287 286 285 285 284 284 282 280 276 277 280 278 277 278 279 279 279 279 278 277 276 276 276 276 275 275 274 274 273 272 271 270
293 293 294 294 293 291 291 290 289 288 288 288 286 286 286 285 283 282 282 284 284 283 282 281 280 280 281 281 280 280 277 279 279 279 277 278 280 279 279 278 278 278 277 277 277 276 276 275 275 275 274 273 272 271
294 294 294 293 292 292 289 289 289 288 288 289 287 287 284 283 282 281 281 281 281 281 280 279 278 278 278 279 280 280 281 281 276 276 276 278 280 280 280 279 278 278 277 277 276 275 275 274 273 273 273 272 271 270
294 294 292 292 290 290 290 289 289 288 290 290 290 289 283 280 280 281 281 279 279 278 276 275 272 272 278 277 278 279 279 279 279 279 279 279 277 277 277 278 277 276 276 276 275 275 274 273 272 271 270 270 270 270
294 293 293 290 286 286 289 291 291 291 288 289 288 286 283 280 282 282 277 280 278 276 277 276 278 278 277 278 279 278 279 278 277 277 277 277 276 276 276 276 276 275 274 274 274 273 273 273 272 271 270 270 270 269
290 287 285 284 286 284 283 285 290 290 288 287 286 283 282 281 281 277 278 276 276 279 277 278 279 276 277 276 275 275 277 277 276 276 276 276 275 275 275 274 274 275 274 274 273 273 272 272 271 271 270 270 270 270
284 281 281 281 282 282 282 281 284 286 282 283 280 280 280 282 277 275 275 280 277 274 278 281 279 276 273 269 273 274 275 275 273 272 273 275 274 273 272 272 272 273 273 273 272 272 271 271 271 271 271 271 270 269
279 277 282 280 281 285 285 283 281 281 278 277 278 281 278 274 274 278 280 274 271 275 272 273 275 276 275 274 272 272 273 275 274 271 271 272 273 273 271 270 270 270 271 272 271 271 271 270 270 270 269 269 269 269
277 277 282 285 287 286 281 281 283 280 276 277 276 275 273 271 271 277 279 276 274 276 277 278 276 274 273 272 272 272 273 273 273 271 270 270 270 271 272 270 269 269 270 271 271 271 270 269 269 269 268 268 268 268
279 280 278 276 277 279 275 274 273 274 275 279 276 273 272 273 276 276 273 275 275 276 276 275 275 274 273 273 272 272 271 271 271 270 270 269 269 268 268 268 268 268 268 269 270 270 270 269 269 269 269 268 268 268
274 277 276 272 273 273 274 273 272 275 277 275 270 271 274 276 273 275 275 275 275 275 273 273 273 273 272 271 271 271 271 272 270 265 264 262 267 268 268 268 268 268 268 267 267 267 268 268 269 268 268 268 268 267
276 276 272 268 271 275 276 271 269 266 273 273 276 276 276 274 275 276 275 275 274 274 274 273 273 273 272 271 268 268 268 270 271 271 262 261 267 268 268 268 267 267 268 267 267 267 267 267 267 267 267 267 267 267
278 273 271 271 274 274 272 271 275 273 266 268 264 268 270 272 275 276 277 277 275 275 274 273 273 273 272 271 270 268 266 267 268 268 268 268 267 267 266 266 266 267 266 266 266 266 266 266 266 267 267 267 266 265
270 268 270 274 275 276 272 272 267 269 265 265 267 263 265 265 267 270 274 274 274 274 273 273 273 271 271 271 271 270 270 267 267 267 267 267 266 266 265 265 265 265 265 265 266 265 265 265 265 265 265 264 264 264
269 268 269 270 271 272 270 270 271 272 269 270 272 269 266 265 267 269 272 273 274 275 274 273 272 270 269 268 268 267 267 266 266 265 265 265 265 265 265 265 264 264 264 265 265 265 264 264 264 264 264 263 263 262

GFSWCAN_925_thetae_099.txt.gz
Theta_e
291 291 291 292 292 292 292 293 294 295 295 297 298 298 299 300 299 297 298 297 295 296 296 297 297 296 298 299 298 298 298 299 302 305 305 304 304 305 308 310 311 311 310 310 310 308 310 310 312 310 308 309 307 307
291 291 291 291 292 291 292 293 294 294 295 297 298 298 299 301 298 297 297 297 296 297 298 296 297 297 297 299 299 300 301 301 304 305 303 303 304 300 308 309 309 313 311 308 308 309 310 306 307 306 305 304 304 304
291 291 291 291 292 291 292 293 293 294 296 297 297 298 300 300 300 297 297 297 296 295 296 296 297 296 296 297 298 298 299 302 304 303 305 305 304 304 308 310 310 307 310 313 311 311 307 306 304 302 303 301 299 298
291 291 291 291 290 291 291 293 294 295 297 297 298 299 300 300 300 297 297 296 296 297 294 295 296 296 297 297 297 299 299 301 302 303 305 306 304 305 308 310 310 307 307 307 309 305 305 301 300 300 301 298 296 294
290 290 290 290 290 291 292 293 295 297 297 298 299 299 299 300 300 297 297 297 296 298 296 296 296 297 298 298 297 298 300 300 301 302 302 303 302 305 306 307 304 303 303 305 302 302 303 300 298 298 295 294 293 293
290 289 290 290 291 292 294 295 297 298 299 299 299 298 298 300 300 298 295 297 297 297 299 296 295 298 300 298 297 299 300 301 303 303 300 300 303 305 305 304 300 299 297 297 299 297 299 297 295 294 292 290 289 288
289 290 290 291 292 293 295 296 297 298 298 299 299 298 299 299 298 296 297 297 297 297 299 297 295 297 301 299 298 301 301 302 304 304 302 301 303 306 303 303 296 297 294 294 294 299 297 294 293 292 291 289 288 285
289 290 291 292 293 295 296 297 297 298 299 299 299 298 299 299 297 296 298 300 297 298 299 298 297 299 302 299 301 301 302 303 304 303 304 303 305 302 296 294 292 292 293 292 292 292 293 292 291 289 289 288 286 285
290 291 292 293 294 296 298 299 299 299 299 299 299 299 300 296 295 296 299 298 297 298 298 299 300 300 300 303 303 303 303 303 301 303 303 304 298 294 294 292 290 289 289 289 290 289 290 291 289 287 286 286 285 284
291 291 292 294 296 296 298 300 301 302 301 301 299 294 294 294 297 298 298 297 297 298 300 301 297 302 300 303 303 303 302 302 305 304 298 296 291 290 289 288 288 287 286 286 288 288 286 287 286 284 283 282 282 282
291 292 294 296 296 297 299 299 300 299 298 296 294 296 298 298 297 295 297 299 299 300 297 298 299 303 300 302 303 301 303 303 305 304 304 297 294 290 287 286 285 284 283 282 282 281 282 283 284 283 281 281 280 279
292 295 296 294 296 299 299 298 298 299 299 299 298 298 298 296 298 300 299 299 297 298 295 297 302 302 300 296 302 301 301 302 300 303 296 289 289 287 285 284 283 282 281 280 279 279 279 280 280 280 279 278 277 276
295 294 294 297 297 299 299 300 299 299 299 299 296 295 298 293 295 293 300 300 300 298 299 301 301 297 298 298 301 303 302 301 300 295 289 287 287 285 284 283 282 280 279 279 278 277 276 275 274 275 274 273 273 272
293 293 296 297 297 299 299 299 298 299 296 294 290 286 288 283 286 286 292 289 292 294 297 299 299 299 298 299 300 299 301 301 297 294 286 285 285 284 282 281 280 278 277 275 273 273 272 272 272 272 272 272 272 271
293 296 297 298 298 298 298 298 295 293 290 290 289 289 286 285 285 285 286 290 291 292 295 299 297 296 294 291 292 294 291 289 288 283 279 281 282 282 280 280 277 275 271 271 272 272 272 272 272 271 272 272 272 271
293 293 293 293 294 296 294 292 292 290 288 288 286 287 286 284 284 284 286 288 290 291 293 295 292 288 289 285 287 286 291 284 280 279 281 281 277 277 277 276 274 273 273 272 272 272 272 272 271 271 271 271 271 271
293 292 294 294 293 292 292 290 290 289 287 286 284 284 281 282 281 282 283 287 288 290 289 292 288 289 288 286 285 284 279 276 278 279 277 276 277 276 275 276 275 274 273 273 273 272 272 272 272 271 270 271 271 270
291 293 293 293 294 292 290 290 288 288 287 284 284 283 284 282 282 283 284 285 288 290 289 289 288 285 279 283 280 278 278 279 280 279 278 277 277 277 277 275 276 275 275 274 274 273 273 272 272 271 271 271 270 270
292 294 294 294 293 292 290 288 288 287 287 286 286 285 284 282 282 282 283 284 284 285 286 284 282 283 282 280 279 277 275 275 277 277 277 277 278 278 277 276 276 275 275 275 274 274 273 273 273 272 272 271 270 269
293 293 293 293 293 291 291 289 288 288 287 287 285 284 284 282 282 281 281 283 283 282 281 280 280 279 278 277 274 274 273 275 277 277 275 275 278 279 278 278 277 277 276 276 276 275 275 274 274 274 273 272 272 270
293 293 292 292 292 290 289 289 288 288 288 287 285 285 282 282 281 280 280 281 279 279 279 277 275 277 277 277 279 278 278 279 272 275 274 274 278 279 278 278 277 277 277 276 275 275 274 273 273 273 273 272 271 270
294 292 292 291 290 289 289 288 289 288 290 289 288 287 282 279 277 279 280 277 277 276 273 274 274 274 275 274 275 278 279 279 279 278 278 278 275 276 276 277 277 276 275 275 275 274 273 273 272 272 271 271 270 270
293 292 290 288 286 286 288 290 289 290 288 289 287 286 282 280 280 280 275 278 276 275 275 276 276 276 276 277 277 277 278 278 276 276 276 275 275 276 276 276 276 275 274 274 274 274 273 272 271 270 270 270 270 269
290 285 284 283 285 284 282 285 289 289 287 286 284 282 281 278 279 275 276 273 274 277 276 276 276 275 275 275 272 273 275 276 275 275 275 275 274 274 274 274 274 274 274 273 273 272 272 272 271 270 270 270 269 269
284 281 281 281 281 281 279 279 282 284 280 280 279 279 279 279 274 272 274 275 276 275 276 278 276 274 272 268 272 274 275 276 274 272 273 274 273 272 272 272 272 273 273 272 271 272 272 272 271 270 269 269 270 269
279 276 280 278 279 282 281 280 278 278 277 276 276 277 273 272 271 273 278 273 270 271 270 277 273 273 272 273 271 273 274 274 274 271 271 272 272 272 271 269 270 271 272 272 271 271 270 270 270 270 270 270 269 269
277 277 281 282 284 284 278 278 280 277 273 275 275 271 270 269 271 274 275 273 273 277 278 278 277 275 272 271 272 273 273 273 273 271 269 270 271 272 271 271 270 270 270 271 271 271 270 270 269 269 268 269 269 269
277 278 278 273 274 277 272 271 270 273 272 277 275 270 272 273 274 275 273 275 277 277 276 276 275 274 272 271 271 271 271 270 270 269 269 269 268 269 269 269 268 268 268 269 270 270 270 269 269 269 268 268 268 267
273 274 275 271 272 273 274 272 272 274 275 273 269 269 273 275 271 273 273 274 276 275 272 271 271 272 272 272 271 271 270 271 270 262 261 259 266 267 268 268 268 268 267 267 267 268 268 269 269 269 269 268 268 267
275 274 271 266 269 273 271 270 269 266 271 272 274 276 273 271 272 274 274 274 274 273 273 273 272 273 271 270 268 269 269 270 270 270 261 258 267 268 267 267 267 267 267 267 267 267 267 267 267 267 266 267 267 266
274 270 269 270 272 271 271 266 271 268 263 265 263 267 269 270 275 274 274 275 274 273 272 271 271 271 271 270 270 268 267 268 269 269 269 268 267 267 267 266 266 266 266 266 266 266 266 266 266 267 267 267 266 265
266 266 270 272 274 271 269 266 264 265 261 266 265 261 264 265 267 269 273 274 274 273 273 273 273 273 273 272 271 271 270 269 268 267 267 267 266 266 265 265 265 265 265 265 265 265 265 265 265 265 265 265 264 263
265 263 264 268 270 272 268 268 270 271 268 269 269 266 264 265 267 268 272 273 275 274 274 273 273 272 270 269 269 268 267 266 266 266 266 265 265 265 264 264 264 264 264 264 265 264 264 264 264 263 263 263 262 262

GFSWCAN_925_thetae_102.txt.gz
Theta_e
293 293 292 292 291 292 292 293 292 292 294 295 295 296 298 298 299 299 298 297 295 296 295 296 296 296 297 298 298 297 296 300 301 304 305 305 304 304 307 308 305 309 308 308 308 309 309 306 310 309 306 305 305 304
293 292 292 292 291 291 292 292 291 292 294 294 295 296 297 298 299 300 297 297 296 296 297 297 296 296 296 297 296 298 298 301 300 305 305 305 305 302 305 307 307 311 310 310 308 307 306 303 304 303 302 301 301 299
292 293 293 291 291 291 291 292 291 292 294 294 295 296 297 298 299 300 297 297 295 295 297 296 297 297 297 297 298 298 296 300 301 301 304 306 306 302 304 307 308 308 305 309 311 308 305 303 301 299 298 297 295 295
292 292 292 291 291 291 291 291 291 292 294 294 295 296 297 298 299 300 297 297 296 296 296 294 295 295 296 296 296 297 297 300 300 300 301 305 304 303 304 308 308 306 304 305 307 304 302 300 301 298 296 295 294 292
291 292 292 291 291 291 291 291 291 292 293 295 295 297 298 299 300 300 297 296 296 297 297 296 295 296 296 297 296 296 297 297 297 301 302 304 300 302 304 306 303 302 300 303 303 299 301 299 297 294 292 291 290 290
292 292 291 290 290 290 290 291 292 293 294 296 297 298 299 299 300 297 295 297 297 296 298 295 294 295 299 297 296 296 297 297 301 303 301 300 301 303 304 303 299 298 296 296 297 297 297 296 294 292 290 288 286 285
291 292 291 290 290 290 291 292 293 294 295 297 298 298 298 298 299 297 296 297 297 297 298 297 295 295 299 297 295 297 299 299 301 304 303 302 301 303 302 302 297 295 293 293 293 297 296 292 292 291 289 287 286 283
292 291 290 290 290 291 292 292 294 295 297 297 298 298 298 298 298 296 298 299 297 296 298 296 297 296 301 297 300 300 300 300 302 304 303 303 304 301 299 294 291 291 292 290 290 291 293 291 289 288 287 286 285 284
291 290 290 289 290 291 292 293 295 296 297 298 298 299 299 297 294 296 298 297 297 297 297 298 298 296 300 301 299 299 298 302 300 302 301 303 299 293 293 292 289 287 287 287 289 288 289 288 287 285 285 284 284 284
290 289 289 290 291 291 293 295 297 297 298 299 299 293 293 292 298 298 296 296 297 297 299 299 297 299 299 302 302 302 301 302 303 301 297 297 291 289 288 287 286 285 284 284 288 287 285 286 285 283 282 282 282 281
289 290 291 291 292 293 295 296 299 299 300 297 293 295 296 298 297 295 297 299 298 299 298 298 298 300 300 301 303 301 303 302 302 304 301 295 292 289 286 285 284 283 282 281 281 281 282 282 283 282 281 280 279 277
291 291 291 292 294 295 296 298 298 298 295 295 298 298 297 296 297 299 299 299 297 298 293 298 300 301 300 297 299 300 303 301 303 300 296 289 288 286 285 283 282 281 280 279 279 279 278 279 279 279 278 277 275 274
291 292 292 295 295 297 299 297 298 298 298 298 296 295 297 291 297 297 298 298 297 298 299 300 301 297 298 298 300 302 302 302 299 293 287 286 286 284 283 282 280 279 278 277 276 276 275 274 273 274 272 272 272 271
292 294 294 295 297 298 297 297 298 298 295 293 292 286 291 284 285 284 294 295 292 293 298 298 298 299 298 299 298 301 299 301 297 287 284 284 284 282 281 280 279 276 275 274 272 272 272 271 271 271 271 272 271 270
293 296 297 296 299 297 296 295 293 293 289 290 289 288 284 284 285 285 285 291 291 292 296 298 296 294 292 293 289 292 291 288 287 284 278 282 282 281 279 278 276 274 271 270 271 270 270 271 270 270 271 271 271 270
293 296 297 299 298 297 296 293 290 289 287 286 285 285 285 284 283 285 287 289 289 291 292 291 290 287 289 285 287 284 291 285 279 278 280 280 276 277 276 275 272 272 272 271 271 271 271 271 270 270 270 270 270 270
293 292 295 294 296 293 292 290 289 287 286 286 283 283 278 280 279 281 283 286 287 291 283 288 286 288 286 283 282 281 277 274 275 277 275 276 277 275 274 275 274 273 272 272 272 272 271 271 271 271 270 270 270 269
294 294 292 296 291 290 289 288 287 287 286 285 283 281 279 278 279 281 282 285 287 287 287 286 286 282 276 282 278 275 276 278 278 277 276 276 276 276 276 274 274 274 273 273 273 272 272 272 271 270 270 270 270 270
294 293 294 293 292 291 289 288 287 286 286 285 284 283 281 280 281 281 283 284 283 284 284 283 281 280 278 276 272 271 274 276 277 276 276 276 277 276 275 275 275 275 274 274 274 273 273 273 272 272 271 271 269 269
293 293 293 293 292 290 290 288 287 287 286 284 284 283 283 282 281 280 281 282 282 282 281 280 280 279 280 277 275 276 272 274 277 275 273 273 276 277 276 276 276 275 275 275 275 274 274 274 273 273 272 271 271 270
292 292 292 292 291 290 289 289 288 287 287 285 283 283 282 282 281 280 280 280 278 278 278 277 275 275 274 275 276 277 276 277 271 274 273 273 277 278 277 277 277 276 276 275 275 274 274 273 273 273 273 272 271 270
292 292 291 291 289 289 289 287 288 287 288 287 287 286 281 276 273 276 278 276 276 274 274 273 272 271 274 272 275 278 278 278 278 277 277 277 272 274 275 277 276 275 275 275 274 274 273 272 272 272 271 270 269 269
292 291 289 288 285 285 288 289 287 289 287 289 286 284 278 276 279 279 275 277 275 274 274 275 274 275 275 275 277 277 278 277 275 275 275 275 275 275 275 275 275 274 273 273 274 273 272 272 271 271 270 270 269 269
290 284 282 283 285 283 281 283 288 287 285 284 283 281 279 276 277 274 275 272 273 277 275 274 275 274 275 274 271 273 275 275 274 274 274 275 273 273 274 273 274 274 273 273 273 272 272 271 271 270 270 269 269 268
284 280 281 281 280 280 278 277 280 282 278 278 278 278 276 278 273 272 274 272 274 272 273 276 275 274 271 267 271 274 275 275 274 271 273 274 273 272 271 271 272 272 272 272 272 271 271 271 271 270 269 269 269 269
279 275 280 277 278 282 280 279 276 276 274 275 274 274 271 271 271 272 276 272 268 270 270 271 270 271 271 273 271 273 273 274 274 271 270 272 272 272 270 269 270 270 271 272 271 271 270 270 270 270 269 269 269 269
277 276 280 280 282 282 277 276 279 276 273 275 274 269 269 270 271 273 272 271 273 277 278 278 276 275 272 272 272 273 273 273 273 271 269 270 271 271 271 271 270 270 270 270 271 270 270 270 269 269 269 269 269 268
276 277 278 272 273 275 271 269 271 273 271 276 274 270 273 273 274 272 272 275 277 276 276 276 276 275 273 272 272 272 271 270 269 269 269 269 268 268 269 269 268 268 268 269 269 270 269 269 268 268 268 268 268 268
272 272 274 270 271 272 273 271 272 274 275 271 268 268 271 273 269 271 272 273 276 276 272 271 270 271 271 271 271 271 270 270 270 261 260 258 266 268 268 268 268 268 267 267 267 268 268 268 268 268 268 268 267 267
273 273 270 266 268 271 270 269 269 266 270 270 272 274 272 269 271 272 273 275 274 273 272 272 271 272 270 271 269 269 269 270 270 270 261 260 267 268 267 267 267 267 267 267 267 267 267 267 267 267 267 267 266 266
272 269 268 269 270 269 268 264 265 263 260 263 260 266 269 270 274 273 273 274 275 273 272 270 270 271 271 270 269 268 268 269 269 269 269 269 268 267 267 266 266 266 266 266 266 266 266 266 266 266 266 266 266 265
265 264 268 270 272 269 268 262 261 263 260 265 265 262 265 266 268 268 273 273 272 271 272 272 272 271 271 271 271 271 270 269 268 268 267 267 266 266 265 265 265 265 265 265 265 265 265 265 265 265 265 265 264 264
262 261 261 266 268 270 266 268 268 269 266 267 267 263 262 266 269 268 272 273 274 274 273 273 273 273 272 271 271 270 268 267 267 266 266 265 265 265 264 264 264 264 264 264 264 264 264 264 264 263 263 263 263 262